[[{"header":{"parameterUnit":"m.s-1","parameterCategory":1,"la1":30.6,"la2":29.2853,"lo1":-89.7004,"lo2":-87.6739,"dy":0.0162,"dx":0.0183,"nx":112,"ny":82,"refTime":"2023-08-12T06:00:00:Z","depth":0,"parameterNumber":2,"parameterNumberName":"U-component_of_WINDS"},"data":[0.0,0.0,0.0,0.0,0.0,0.0,0.0,0.0,0.0,0.0,0.0,0.0,0.0,0.0,0.0,0.0,0.0,0.0,0.0,0.0,0.0,0.0,0.0,0.0,0.0,0.0,0.0,0.0,0.0,0.0,0.0,0.0,0.0,0.0,0.0,0.0,0.0,0.0,0.0,0.0,0.0,0.0,0.0,0.0,0.0,0.0,0.0,0.0,0.0,0.0,0.0,0.0,0.0,0.0,0.0,0.0,0.0,0.0,0.0,0.0,0.0,0.0,0.0,0.0,0.0,0.0,0.0,0.0,0.0,0.0,0.0,0.0,0.0,0.0,0.0,0.0,0.0,0.0,0.0,0.0,0.0,0.0,0.0,0.0,0.0,0.0,0.0,0.0,0.0,0.0,0.2895,-0.1408,-0.3426,-0.449,-0.4525,-0.4487,-0.3926,-0.2635,0.0,0.0,0.0,0.0,0.0,0.0,0.0,0.0,0.0,0.0,0.0,0.0,0.0,0.0,0.0,0.0,0.0,0.0,0.0,0.0,0.0,0.0,0.0,0.0,0.0,0.0,0.0,0.0,0.0,0.0,0.0,0.0,0.0,0.0,0.0,0.0,0.0,0.0,0.0,0.0,0.0,0.0,0.0,0.0,0.0,0.0,0.0,0.0,0.0,0.0,0.0,0.0,0.0,0.0,0.0,0.0,0.0,0.0,0.0,0.0,0.0,0.0,0.0,0.0,0.0,0.0,0.0,0.0,0.0,0.0,0.0,0.0,0.0,0.0,0.0,0.0,0.0,0.0,0.0,0.0,0.0,0.0,0.0,0.0,0.0,0.0,0.0,0.0,0.0,0.0,0.0,0.0,0.0,0.0,0.0,0.0,0.0,0.0,0.0,0.0,0.0,0.0,0.0,0.0,0.3244,-0.0,-0.2813,-0.4504,-0.4494,-0.4504,-0.4407,-0.4195,0.0,0.0,0.0,0.0,0.0,0.0,0.0,0.0,0.0,0.0,0.0,0.0,0.0,0.0,0.0,0.0,0.0,0.0,0.0,0.0,0.0,0.0,0.0,0.0,0.0,0.0,0.0,0.0,0.0,0.0,0.0,0.0,0.0,0.0,0.0,0.0,0.0,0.0,0.0,0.0,0.0,0.0,0.0,0.0,0.0,0.0,0.0,0.0,0.0,0.0,0.0,0.0,0.0,0.0,0.0,0.0,0.0,0.0,0.0,0.0,0.0,0.0,0.0,0.0,0.0,0.0,0.0,0.0,0.0,0.0,0.0,0.0,0.0,0.0,0.0,0.0,0.0,0.0,0.0,0.0,0.0,0.0,0.0,0.0,0.0,0.0,0.0,0.0,0.0,0.0,0.0,0.0,0.0,0.0,0.0,0.0,0.0,0.0,0.0,0.0,0.0,0.0,0.0,0.2132,0.154,0.0168,-0.1228,-0.2406,-0.3188,-0.3993,-0.4525,-0.4513,-0.0,0.0,0.0,0.0,0.0,0.0,0.0,0.0,0.0,0.0,0.0,0.0,0.0,0.0,0.0,0.0,0.0,0.0,0.0,0.0,0.0,0.0,0.0,0.0,0.0,0.0,0.0,0.0,0.0,0.0,0.0,0.0,0.0,0.0,0.0,0.0,0.0,0.0,0.0,0.0,0.0,0.0,0.0,0.0,0.0,0.0,0.0,0.0,0.0,0.0,0.0,0.0,0.0,0.0,0.0,0.0,0.0,0.0,0.0,0.0,0.0,0.0,0.0,0.0,0.0,0.0,0.0,0.0,0.0,0.0,0.0,0.0,0.0,0.0,0.0,0.0,0.0,0.0,0.0,0.0,0.0,0.0,0.0,0.0,0.0,0.0,0.0,0.0,0.0,0.0,0.0,0.0,0.0,0.0,0.0,0.0,0.0,0.0,0.0,0.0,0.0,0.0,0.0,0.1814,0.0926,0.0559,0.0502,0.0056,-0.1058,-0.2235,-0.2883,-0.2826,0.1043,0.0,0.0,0.0,0.0,0.0,0.0,0.0,0.0,0.0,0.0,0.0,0.0,0.0,0.0,0.0,0.0,0.0,0.0,0.0,0.0,0.0,0.0,0.0,0.0,0.0,0.0,0.0,0.0,0.0,0.0,0.0,0.0,0.0,0.0,0.0,0.0,0.0,0.0,0.0,0.0,0.0,0.0,0.0,0.0,0.0,0.0,0.0,0.0,0.0,0.0,0.0,0.0,0.0,0.0,0.0,0.0,0.0,0.0,0.0,0.0,0.0,0.0,0.0,0.0,0.0,0.0,0.0,0.0,0.0,0.0,0.0,0.0,0.0,0.0,0.0,0.0,0.0,0.0,0.0,0.0,0.0,0.0,0.0,0.0,0.0,0.0,0.0,0.0,0.0,0.0,0.0,0.0,0.0,0.0,0.0,0.0,0.0,0.0,0.0,0.0,0.0,0.0,0.438,0.3661,0.2183,0.2063,0.2007,0.1895,0.1783,0.1835,0.2204,0.3941,0.0,0.0,0.0,0.0,0.0,0.0,0.0,0.0,0.0,0.0,0.0,0.0,0.0,0.0,0.0,0.0,0.0,0.0,0.0,0.0,0.0,0.0,0.0,0.0,0.0,0.0,0.0,0.0,0.0,0.0,0.0,0.0,0.0,0.0,0.0,0.0,0.0,0.0,0.0,0.0,0.0,0.0,0.0,0.0,0.0,0.0,0.0,0.0,0.0,0.0,0.0,0.0,0.0,0.0,0.0,0.0,0.0,0.0,0.0,0.0,0.0,0.0,0.0,0.0,0.0,0.0,0.0,0.0,0.0,0.0,0.0,0.0,0.0,0.0,0.0,0.0,0.0,0.0,0.0,0.0,0.0,0.0,0.0,0.0,0.0,0.0,0.0,0.0,0.0,0.0,0.0,0.0,0.0,0.0,0.0,0.0,0.0,0.0,0.0,0.0,0.0,0.0,0.479,0.4398,0.3711,0.3638,0.3641,0.3641,0.3641,0.3746,0.4058,0.0,0.0,0.0,0.0,0.0,0.0,0.0,0.0,0.0,0.0,0.0,0.0,0.0,0.0,0.0,0.0,0.0,0.0,0.0,0.0,0.0,0.0,0.0,0.0,0.0,0.0,0.0,0.0,0.0,0.0,0.0,0.0,0.0,0.0,0.0,0.0,0.0,0.0,0.0,0.0,0.0,0.0,0.0,0.0,0.0,0.0,0.0,0.0,0.0,0.0,0.0,0.0,0.0,0.0,0.0,0.0,0.0,0.0,0.0,0.0,0.0,0.0,0.0,0.0,0.0,0.0,0.0,0.0,0.0,0.0,0.0,0.0,0.0,0.0,0.0,0.0,0.0,0.0,0.0,0.0,0.0,0.0,0.0,0.0,0.0,0.0,0.0,0.0,0.0,0.0,0.0,0.0,0.0,0.0,0.0,0.0,0.0,0.0,0.0,0.0,0.0,0.0,0.4952,0.4823,0.4699,0.4501,0.448,0.4487,0.4487,0.4487,0.4616,0.4864,0.0,0.0,0.0,0.0,0.0,0.0,0.0,0.0,0.0,0.0,0.0,0.0,0.0,0.0,0.0,0.0,0.0,0.0,0.0,0.0,0.0,0.0,0.0,0.0,0.0,0.0,0.0,0.0,0.0,0.0,0.0,0.0,0.0,0.0,0.0,0.0,0.0,0.0,0.0,0.0,0.0,0.0,0.0,0.0,0.0,0.0,0.0,0.0,0.0,0.0,0.0,0.0,0.0,0.0,0.0,0.0,0.0,0.0,0.0,0.0,0.0,0.0,0.0,0.0,0.0,0.0,0.0,0.0,0.0,0.0,0.0,0.0,0.0,0.0,0.0,0.0,0.0,0.0,0.0,0.0,0.0,0.0,0.0,0.0,0.0,0.0,0.0,0.0,0.0,0.0,0.0,0.0,0.0,0.0,0.0,0.0,0.0,0.0,0.0,0.0,0.0,0.0,0.4938,0.4785,0.4633,0.4532,0.4519,0.4519,0.4519,0.4519,0.4592,0.0,0.0,0.0,0.0,0.0,0.0,0.0,0.0,0.0,0.0,0.0,0.0,0.0,0.0,0.0,0.0,0.0,0.0,0.0,0.0,0.0,0.0,0.0,0.0,0.0,0.0,0.0,0.0,0.0,0.0,0.0,0.0,0.0,0.0,0.0,0.0,0.0,0.0,0.0,0.0,0.0,0.0,0.0,0.0,0.0,0.0,0.0,0.0,0.0,0.0,0.0,0.0,0.0,0.0,0.0,0.0,0.0,0.0,0.0,0.0,0.0,0.0,0.0,0.0,0.0,0.0,0.0,0.0,0.0,0.0,0.0,0.0,0.0,0.0,0.0,0.0,0.0,0.0,0.0,0.0,0.0,0.0,0.0,0.0,0.0,0.0,0.0,0.0,0.0,0.0,0.0,0.0,0.0,0.0,0.0,0.0,0.0,0.0,0.0,0.0,0.0,0.0,0.0,0.4938,0.4785,0.4633,0.4532,0.4519,0.4519,0.4519,0.4519,0.4592,0.4901,0.0,0.0,0.0,0.0,0.0,0.0,0.0,0.0,0.0,0.0,0.0,0.0,0.0,0.0,0.0,0.0,0.0,0.0,0.0,0.0,0.0,0.0,0.0,0.0,0.0,0.0,0.0,0.0,0.0,0.0,0.0,0.0,0.0,0.0,0.0,0.0,0.0,0.0,0.0,0.0,0.0,0.0,0.0,0.0,0.0,0.0,0.0,0.0,0.0,0.0,0.0,0.0,0.0,0.0,0.0,0.0,0.0,0.0,0.0,0.0,0.0,0.0,0.0,0.0,0.0,0.0,0.0,0.0,0.0,0.0,0.0,0.0,0.0,0.0,0.0,0.0,0.0,0.0,0.0,0.0,0.0,0.0,0.0,0.0,0.0,0.0,0.0,0.0,0.0,0.0,0.0,0.0,0.0,0.0,0.0,0.0,0.0,0.0,0.0,0.0,0.0,0.0,0.4945,0.4745,0.4579,0.4487,0.4477,0.4473,0.4525,0.4525,0.4572,0.4813,0.0,0.0,0.0,0.0,0.0,0.0,0.0,0.0,0.0,0.0,0.0,0.0,0.0,0.0,0.0,0.0,0.0,0.0,0.0,0.0,0.0,0.0,0.0,0.0,0.0,0.0,0.0,0.0,0.0,0.0,0.0,0.0,0.0,0.0,0.0,0.0,0.0,0.0,0.0,0.0,0.0,0.0,0.0,0.0,0.0,0.0,0.0,0.0,0.0,0.0,0.0,0.0,0.0,0.0,0.0,0.0,0.0,0.0,0.0,0.0,0.0,0.0,0.0,0.0,0.0,0.0,0.0,0.0,0.0,0.0,0.0,0.0,0.0,0.0,0.0,0.0,0.0,0.0,0.0,0.0,0.0,0.0,0.0,0.0,0.0,0.0,0.0,0.0,0.0,0.0,0.0,0.0,0.0,0.0,0.0,0.0,0.0,0.0,0.0,0.0,0.0,0.0,0.4485,0.4235,0.4058,0.4054,0.416,0.4209,0.4212,0.4386,0.4562,0.4704,0.0,0.0,0.0,0.0,0.0,0.0,0.0,0.0,0.0,0.0,0.0,0.0,0.0,0.0,0.0,0.0,0.0,0.0,0.0,0.0,0.0,0.0,0.0,0.0,0.0,0.0,0.0,0.0,0.0,0.0,0.0,0.0,0.0,0.0,0.0,0.0,0.0,0.0,0.0,0.0,0.0,0.0,0.0,0.0,0.0,0.0,0.0,0.0,0.0,0.0,0.0,0.0,0.0,0.0,0.0,0.0,0.0,0.0,0.0,0.0,-0.7677,-0.7623,0.0,0.0,0.0,0.0,0.0,0.0,0.0,0.0,0.0,0.0,0.0,0.0,0.0,0.0,0.0,0.0,0.0,0.0,0.0,0.0,0.0,0.0,0.0,0.0,0.0,0.0,0.0,0.0,0.0,0.0,0.0,0.0,0.0,0.0,0.0,0.0,0.0,0.0,0.0,0.0,0.1244,0.0975,0.0923,0.0806,0.1579,0.2135,0.2134,0.3713,0.4663,0.4566,0.4882,0.0,0.0,0.0,0.0,0.0,0.0,0.0,0.0,0.0,0.0,0.0,0.0,0.0,0.0,0.0,0.0,0.0,0.0,0.0,0.0,0.0,0.0,0.0,0.0,0.0,0.0,0.0,0.0,0.0,0.0,0.0,0.0,0.0,0.0,0.0,0.0,0.0,0.0,0.0,0.0,0.0,0.0,0.0,0.0,0.0,0.0,0.0,0.0,0.0,0.0,0.0,0.0,0.0,0.0,0.0,0.0,0.0,0.0,0.0,-0.9425,-0.8952,0.0,0.0,0.0,0.0,0.0,0.0,0.0,0.0,0.0,0.0,0.0,0.0,0.0,0.0,0.0,0.0,0.0,0.0,0.0,0.0,0.0,0.0,0.0,0.0,0.0,0.0,0.0,0.0,0.0,0.0,0.0,0.0,0.0,0.0,0.0,0.0,0.0,0.0,0.0,0.0,-0.1202,-0.203,-0.2554,-0.2455,-0.18,-0.086,0.0466,0.1786,0.3134,0.4693,0.4897,0.0,0.0,0.0,0.0,0.0,0.0,0.0,0.0,0.0,0.0,0.0,0.0,0.0,0.0,0.0,0.0,0.0,0.0,0.0,0.0,0.0,0.0,0.0,0.0,0.0,0.0,0.0,0.0,0.0,0.0,0.0,0.0,0.0,0.0,0.0,0.0,0.0,0.0,0.0,0.0,0.0,0.0,0.0,0.0,0.0,0.0,0.0,0.0,0.0,0.0,0.0,0.0,0.0,-1.181,-1.1686,-1.1413,-1.1115,-1.1626,-1.2553,-1.1232,-1.0606,-1.051,-1.0159,0.0,0.0,0.0,0.0,0.0,0.0,0.0,0.0,0.0,0.0,0.0,0.0,0.0,0.0,0.0,0.0,0.0,0.0,0.0,0.0,0.0,0.0,-0.9307,-1.033,-1.0607,-0.9686,-0.6618,0.0,0.0,0.0,0.0,0.0,0.0,0.0,0.0,0.0,0.0,0.0,-0.3637,-0.4755,-0.5413,-0.5289,-0.4884,-0.3646,-0.1309,-0.0406,0.1328,0.448,0.4806,0.4994,0.0,0.0,0.0,0.0,0.0,0.0,0.0,0.0,0.0,0.0,0.0,0.0,0.0,0.0,0.0,0.0,0.0,0.0,0.0,0.0,0.0,0.0,0.0,0.0,0.0,0.0,0.0,0.0,0.0,0.0,0.0,0.0,-0.5067,-0.4121,0.0,0.0,0.0,0.0,0.0,0.0,0.0,0.0,0.0,0.0,0.0,0.0,0.0,-0.9531,-1.217,-1.1117,-1.0826,-1.1465,-1.2437,-1.2933,-1.2925,-1.3945,-1.4477,-1.4599,-1.4392,0.0,-1.3027,-1.2155,0.0,0.0,0.0,0.0,0.0,0.0,0.0,0.0,0.0,0.0,0.0,0.0,0.0,0.0,0.0,0.0,0.0,0.0,0.0,0.0,0.0,0.0,-1.0243,-1.0551,-1.0525,-0.9948,-0.8338,-0.7872,-0.7495,-0.6409,-0.6108,-0.5974,0.0,0.0,0.0,0.0,0.0,0.0,-0.7241,-0.6471,-0.611,-0.6572,-0.568,-0.4712,-0.4019,-0.1515,0.0882,0.286,0.4446,0.5325,0.5332,0.5418,0.0,0.0,0.0,0.0,0.0,0.0,0.0,0.0,0.0,0.0,0.0,0.0,0.0,0.0,0.0,0.0,0.0,0.0,0.0,0.0,0.0,0.0,0.0,0.0,0.0,0.0,0.0,0.0,0.0,-0.3662,-0.6194,-0.5906,-0.4882,-0.425,0.0,0.0,0.0,0.0,0.0,0.0,0.0,0.0,0.0,-1.0434,-1.0248,-1.0945,-1.2807,-1.2302,-1.262,-1.3628,-1.3223,-1.3267,-1.3538,-1.3061,-1.2992,-1.3262,-1.3107,-1.2848,-1.2648,-1.2487,-1.1321,-0.9721,0.0,0.0,0.0,0.0,-0.8508,-0.9272,-0.9839,-1.0556,-1.1237,-1.1199,0.0,0.0,0.0,0.0,0.0,0.0,0.0,-0.8131,-0.8795,-0.926,-0.9677,-1.0394,-1.0575,-1.0193,-0.9096,-0.8849,-0.8332,-0.6813,-0.6529,-0.6502,-0.6636,-0.6706,0.0,0.0,0.0,-0.6887,-0.7106,-0.6691,-0.6395,-0.641,-0.5802,-0.5302,-0.5035,-0.2681,-0.0567,0.1091,0.3851,0.5373,0.5369,0.5386,0.5487,0.0,0.0,0.0,0.0,0.0,0.0,0.0,0.0,0.0,0.0,0.0,0.0,0.0,0.0,0.0,0.0,0.0,0.0,0.0,0.0,0.0,0.0,0.0,0.0,0.0,0.0,0.0,0.0,-0.3811,-0.5823,-0.6441,-0.5987,-0.5681,0.0,0.0,0.0,0.0,0.0,0.0,-0.9434,-1.0759,-1.1502,-1.121,-1.1419,-1.2252,-1.3662,-1.3429,-1.3817,-1.5026,-1.3495,-1.2941,-1.338,-1.1968,-1.1532,-1.1935,-1.1667,-1.1495,-1.1419,-1.2081,-1.1141,-0.9259,-0.8989,-0.831,-0.7629,-0.7866,-0.8594,-0.9592,-1.0057,-1.0882,-1.1572,-1.1467,-1.0641,-0.9605,-0.91,0.0,0.0,0.0,0.0,-0.7882,-0.8727,-0.9178,-0.9674,-1.0687,-1.0644,-1.0219,-0.9579,-0.9133,-0.8509,-0.7194,-0.699,-0.7044,-0.7048,-0.687,0.0,-0.6776,-0.6959,-0.6963,-0.6983,-0.6864,-0.6716,-0.6601,-0.612,-0.5688,-0.5406,-0.3926,-0.2177,-0.013,0.2543,0.4287,0.4897,0.5313,0.5547,0.5644,0.0,0.0,0.0,0.0,0.0,0.0,0.0,0.0,0.0,0.0,0.0,0.0,0.0,0.0,0.0,0.0,0.0,0.0,0.0,0.0,0.0,0.0,0.0,0.0,0.0,0.0,0.0,0.0,0.0,-0.6806,-0.6615,0.0,0.0,0.0,0.0,-0.799,-0.8339,-0.9143,-1.059,-1.0898,-1.1839,-1.3483,-1.3197,-1.3884,-1.5664,-1.416,-1.3602,-1.3957,-1.2592,-1.1925,-1.2042,-1.192,-1.1828,-1.1945,-1.1935,-1.1156,-1.0177,-1.1196,-1.0934,-0.9938,-0.956,-0.8832,-0.8086,-0.9087,-0.9618,-1.0138,-1.1101,-1.1647,-1.196,-1.2261,-1.1392,-1.0117,-0.9827,-0.8714,0.0,0.0,-0.8311,-0.9266,-0.9626,-1.0518,-1.1417,-1.1742,-1.0928,-1.0006,-0.9836,-0.8752,-0.7846,-0.7587,-0.7444,-0.7356,-0.7377,0.0,-0.7085,-0.707,-0.7212,-0.7538,-0.8081,-0.7468,-0.735,-0.8121,-0.7045,-0.6023,-0.545,-0.5329,-0.3726,-0.0201,0.0201,0.1269,0.3609,0.4965,0.5737,0.5789,0.5789,0.0,0.0,0.0,0.0,0.0,0.0,0.0,0.0,0.0,0.0,0.0,0.0,0.0,0.0,0.0,0.0,0.0,0.0,0.0,0.0,0.0,0.0,0.0,0.0,0.0,0.0,0.0,0.0,-0.853,-0.8783,0.0,-0.7859,-0.8268,-0.8494,-0.8367,-1.0013,-1.1359,-1.2023,-1.2355,-1.2837,-1.3491,-1.272,-1.265,-1.3301,-1.2731,-1.2539,-1.2624,-1.1263,-1.0681,-1.0681,-0.9801,-0.941,-0.941,-0.941,-0.9126,-0.8744,-0.9072,-0.9076,-0.8718,-0.8565,-0.8294,-0.8055,-0.8389,-0.8605,-0.8752,-0.9079,-0.9296,-0.9458,-0.9522,-0.9195,-0.8733,-0.8678,-0.8322,-0.7882,-0.7882,-0.8167,-0.847,-0.8623,-0.8939,-0.9257,-0.932,-0.905,-0.8744,-0.8685,-0.8283,-0.7875,-0.7828,-0.7631,-0.7461,-0.7773,-0.6112,-0.4883,-0.4876,-0.6199,-0.7326,-0.7734,-0.7624,-0.6864,-0.544,-0.4846,-0.4951,-0.5892,-0.5623,-0.3848,-0.0208,0.2208,0.3353,0.3013,0.4607,0.5549,0.5518,0.5518,0.5637,0.0,0.0,0.0,0.0,0.0,0.0,0.0,0.0,0.0,0.0,0.0,0.0,0.0,0.0,0.0,0.0,0.0,0.0,0.0,0.0,0.0,0.0,0.0,0.0,0.0,-0.9261,-0.9932,-1.011,-1.0392,-1.0213,-0.9363,-0.9397,-0.9394,-0.9251,-1.0712,-1.1822,-1.2322,-1.2729,-1.2864,-1.2864,-1.225,-1.1945,-1.1945,-1.1458,-1.1268,-1.1263,-0.9899,-0.9316,-0.9327,-0.8446,-0.7952,-0.7955,-0.7955,-0.7965,-0.7975,-0.7054,-0.6639,-0.6728,-0.7646,-0.7965,-0.7875,-0.6954,-0.6651,-0.6656,-0.6656,-0.6656,-0.6656,-0.6656,-0.6651,-0.6848,-0.7772,-0.7969,-0.7955,-0.7955,-0.7955,-0.7955,-0.7955,-0.7969,-0.7772,-0.6851,-0.6651,-0.6656,-0.6656,-0.6656,-0.6962,-0.7795,-0.7052,-0.6617,-0.7761,-0.6381,-0.447,-0.2659,-0.3748,-0.5086,-0.6132,-0.7095,-0.6966,-0.4969,-0.3328,-0.2892,-0.4042,-0.3841,-0.2048,0.1597,0.4092,0.4836,0.3692,0.4919,0.559,0.5508,0.5848,0.6252,0.6881,0.0,0.0,0.0,0.0,0.0,0.0,0.0,0.0,0.0,0.0,0.0,0.0,0.0,0.0,0.0,0.0,0.0,0.0,0.0,0.0,0.0,0.0,0.0,-0.9474,-1.0038,-1.0717,-1.1467,-1.1161,-1.1139,-1.1485,-0.9932,-0.9379,-1.0741,-1.0058,-1.0161,-1.1392,-1.1722,-1.1853,-1.1853,-1.1755,-1.175,-1.175,-1.0583,-0.9903,-0.9903,-0.863,-0.7952,-0.7972,-0.7872,-0.7875,-0.7885,-0.7885,-0.7889,-0.7785,-0.5231,-0.4117,-0.4219,-0.6859,-0.7889,-0.7682,-0.5129,-0.4017,-0.3915,-0.3915,-0.3915,-0.3915,-0.3915,-0.3915,-0.432,-0.6962,-0.7785,-0.7885,-0.7885,-0.7885,-0.7885,-0.7885,-0.7889,-0.7372,-0.4724,-0.4016,-0.3915,-0.3915,-0.3915,-0.4828,-0.7503,-0.5648,-0.4499,-0.7321,-0.772,-0.5991,-0.0766,-0.0,0.0,-0.3155,-0.5842,-0.731,-0.6689,-0.2561,0.0082,0.0076,0.0078,0.1583,0.5116,0.5339,0.5429,0.5399,0.5804,0.5953,0.5864,0.6655,0.7744,0.9093,0.0,0.0,0.0,0.0,0.0,0.0,0.0,0.0,0.0,0.0,0.0,0.0,0.0,0.0,0.0,0.0,0.0,0.0,0.0,0.0,0.0,-0.992,-1.0423,-1.031,-1.1726,-1.2745,-1.2892,-1.3597,-1.3702,-1.2537,-1.2014,-1.152,-1.0865,-1.0925,-1.1155,-1.1497,-1.0858,-1.0485,-1.0485,-0.9608,-0.9118,-0.9118,-0.8744,-0.8556,-0.8556,-0.8172,-0.7979,-0.7982,-0.5937,-0.5127,-0.5129,-0.5129,-0.6152,-0.7915,-0.719,-0.5763,-0.4039,-0.4832,-0.6255,-0.7912,-0.719,-0.444,-0.1109,-0.1109,-0.1109,-0.1109,-0.1109,-0.1107,-0.1206,-0.2011,-0.3518,-0.5129,-0.5129,-0.5129,-0.5129,-0.5129,-0.6561,-0.7808,-0.7086,-0.3934,-0.1109,-0.1109,-0.2623,-0.4754,-0.7529,-0.1107,0.3218,-0.1403,-0.2188,-0.1675,-0.0195,-0.0,-0.0287,-0.0927,0.1282,0.2971,0.3135,0.306,0.2738,0.2318,0.2077,0.2406,0.3365,0.4686,0.5494,0.5617,0.5686,0.5996,0.6602,0.7136,0.7812,0.0,0.0,0.0,0.0,0.0,0.0,0.0,0.0,0.0,0.0,0.0,0.0,0.0,0.0,0.0,0.0,0.0,0.0,0.0,0.0,0.0,0.0,-1.1252,-1.1921,-1.2109,-1.3087,-1.3908,-1.4173,-1.4916,-1.4741,-1.301,-1.2564,-1.172,-1.0315,-1.0059,-0.9931,-1.0013,-0.9461,-0.9133,-0.9133,-0.8453,-0.7962,-0.7962,-0.7972,-0.7466,-0.6339,-0.6345,-0.6865,-0.7902,-0.6361,-0.4431,-0.2314,-0.2314,-0.3225,-0.4853,-0.7107,-0.5778,-0.2325,0.0,0.0,0.0,0.0,-0.2726,-0.0,-0.0,-0.0,-0.0,-0.0,-0.0,-0.0,-0.0,-0.1107,-0.2314,-0.2314,-0.2314,-0.2314,-0.2314,-0.181,-0.1308,-0.1308,0.0201,0.1711,0.1711,0.0403,-0.1107,-0.272,0.2011,0.0,0.3731,0.2396,0.1684,0.1684,0.156,0.153,0.1499,0.3954,0.6054,0.7007,0.5877,0.5049,0.4809,0.4461,0.0,0.0,0.0,0.5709,0.5789,0.5779,0.0,0.0,0.0,0.813,0.9547,0.8625,0.0,0.0,0.6885,0.6264,0.0,0.0,0.0,0.0,0.0,0.0,0.0,0.0,0.0,0.0,0.0,0.0,0.0,0.0,0.0,0.0,-1.2501,-1.3695,-1.4039,-1.3906,-1.4052,-1.51,-1.5252,-1.4574,-1.2991,-1.1799,-1.0683,-0.9615,-0.8497,-0.7896,-0.8035,-0.7962,0.0,0.0,0.0,-0.7578,-0.7578,-0.7889,-0.6762,-0.4422,-0.3817,-0.4834,-0.7098,-0.7098,-0.4549,-0.0,-0.0,-0.0,-0.0303,-0.4459,-0.3439,0.0808,0.0202,-0.0,-0.0,-0.0,0.0404,0.0909,0.0909,0.0,0.0,0.0404,0.0404,0.0404,0.0404,0.0404,0.0404,0.0404,0.0404,0.0404,0.0404,0.3939,0.7607,0.7918,0.6158,0.442,0.442,0.442,0.442,0.442,0.442,0.5229,0.7575,0.6042,0.4418,0.4409,0.4241,0.4064,0.3985,0.3998,0.4838,0.684,0.0,0.0,0.706,0.6627,0.626,0.6023,0.6019,0.6026,0.6034,0.6047,0.6557,0.7749,0.7522,0.8477,1.0742,0.9506,0.9089,0.9448,0.7419,0.6438,0.0,0.0,0.0,0.0,0.0,0.0,0.0,0.0,0.0,0.0,0.0,0.0,0.0,0.0,0.0,-1.0316,-1.1691,-1.284,-1.273,-1.2705,-1.3025,-1.4052,-1.4189,-1.3601,-1.1932,-1.0847,-1.0035,-0.954,-0.8506,-0.8018,-0.7965,-0.7972,-0.7051,-0.4822,-0.4822,-0.4824,-0.4824,-0.6877,-0.7708,-0.7193,-0.2823,0.0,-0.1515,-0.1515,-0.101,-0.0,-0.0,-0.0,0.0303,0.3543,0.5473,0.5974,0.1716,-0.0,-0.0,-0.0,0.2726,0.6483,0.6483,0.5046,0.3215,0.3215,0.3215,0.3215,0.3215,0.3215,0.0,0.3215,0.3215,0.3215,0.3215,0.4021,0.5336,0.7481,0.7582,0.7269,0.7269,0.7269,0.7269,0.7269,0.7263,0.7359,0.7875,0.7572,0.7235,0.7233,0.7,0.6768,0.6441,0.6394,0.6573,0.7091,0.7221,0.7092,0.6788,0.6668,0.6471,0.6017,0.5969,0.5986,0.603,0.6149,0.6619,0.7397,0.7589,0.8637,1.0478,0.9606,0.9622,1.049,0.854,0.7243,0.0,0.0,0.0,0.0,0.0,0.0,0.0,0.0,0.0,0.0,0.0,-0.7859,-0.8018,0.0,-1.091,-1.0644,-1.181,-1.272,-1.2725,-1.2531,-1.2648,-1.3114,-1.3165,-1.2574,-1.0974,-1.0367,-0.976,-0.8811,-0.8301,-0.7962,-0.7972,-0.7992,-0.7384,-0.6055,-0.3423,-0.2013,-0.2013,-0.333,-0.4041,-0.394,0.1412,0.4041,0.394,0.262,0.2013,0.2013,0.2013,0.2013,0.2214,0.4847,0.6782,0.7701,0.5046,0.3224,0.2013,0.2013,0.3726,0.6158,0.7494,0.7074,0.6042,0.6042,0.6042,0.6042,0.6042,0.6042,0.6042,0.6042,0.6042,0.6042,0.6042,0.6039,0.6342,0.7672,0.7972,0.7965,0.7965,0.7965,0.7965,0.7965,0.7959,0.7955,0.7955,0.7962,0.8041,0.7974,0.777,0.7503,0.7333,0.7212,0.7068,0.7068,0.7153,0.7058,0.6834,0.6675,0.6458,0.6166,0.6594,0.6893,0.6893,0.7503,0.796,0.8305,0.8486,0.9236,1.0595,1.0204,1.034,1.0789,0.9895,0.844,0.0,0.0,0.0,0.0,0.0,0.0,0.0,-0.3722,-0.7491,-0.8648,-0.8762,-0.8639,-0.8536,-0.9583,-1.0498,-1.0815,-1.1851,-1.2517,-1.2311,-1.2068,-1.1903,-1.1741,-1.1883,-1.141,-0.9933,-0.9786,-0.9326,-0.814,-0.7999,-0.8006,-0.7965,-0.7968,-0.755,-0.6518,-0.2234,-0.0,-0.0,-0.0,0.0505,0.1615,0.5972,0.8022,0.7915,0.5744,0.4824,0.4824,0.4824,0.4824,0.4824,0.4822,0.6039,0.7985,0.7982,0.6648,0.4818,0.4822,0.4822,0.5125,0.7266,0.7982,0.7979,0.7979,0.7979,0.7979,0.7979,0.7979,0.7979,0.7979,0.7979,0.7979,0.7979,0.7972,0.7965,0.7965,0.7952,0.8038,0.8038,0.8038,0.8038,0.8038,0.8038,0.8038,0.8038,0.8038,0.8038,0.8038,0.7814,0.7631,0.7604,0.7356,0.7173,0.7143,0.7037,0.7042,0.7268,0.6998,0.6925,0.6928,0.7794,0.8258,0.8141,0.9019,0.9484,0.9362,0.9362,0.9862,1.0783,1.0783,1.0932,1.1093,1.1006,0.9637,0.4204,0.3514,0.3005,0.0632,-0.0,-0.0,0.0,-0.0561,-0.2534,-0.7794,-0.8868,-0.8871,-0.9086,-0.9293,-0.9458,-0.9551,-1.0815,-1.1147,-0.9806,-0.9568,-0.9554,-0.9323,-1.0112,-1.0028,-0.8685,-0.8464,-0.8336,-0.8049,-0.8034,-0.8011,-0.7973,-0.7975,-0.581,-0.1035,-0.0311,-0.0,-0.0,-0.0,0.2424,0.7098,0.7717,0.8016,0.7992,0.7682,0.7578,0.7578,0.7578,0.7578,0.7578,0.7569,0.7769,0.7972,0.7952,0.7839,0.754,0.7566,0.7572,0.7563,0.7872,0.7962,0.8045,0.8045,0.8045,0.8045,0.8045,0.8045,0.8045,0.8045,0.8045,0.8045,0.8045,0.8045,0.8041,0.8041,0.8041,0.8038,0.8038,0.8038,0.8038,0.8038,0.8038,0.8038,0.8038,0.8038,0.8038,0.8038,0.7896,0.7743,0.7614,0.7451,0.7292,0.7153,0.7126,0.7494,0.8454,0.833,0.8532,0.9287,0.9697,0.9797,0.9516,0.9861,0.9951,0.9673,0.9667,1.0023,1.0783,1.0783,1.1242,1.2077,1.1198,1.0264,0.6943,0.652,0.6424,0.5445,0.3999,0.2307,0.0459,0.0114,-0.0569,-0.3132,-0.5161,-0.637,-0.6481,-0.8195,-0.9595,-0.9673,-1.0155,-1.0245,-0.9696,-0.787,-0.6619,-0.6385,-0.6706,-0.7365,-0.8593,-0.7124,-0.5967,-0.5741,-0.7157,-0.8011,-0.8033,-0.509,-0.232,-0.0106,-0.0,-0.0,-0.0,0.308,0.5831,0.8026,0.8006,0.7992,0.7979,0.7965,0.7962,0.7962,0.7962,0.7962,0.7959,0.7955,0.7952,0.7952,0.8041,0.8038,0.8041,0.7955,0.7959,0.7952,0.7952,0.8048,0.8038,0.8038,0.8038,0.8038,0.8038,0.8038,0.8038,0.8038,0.8038,0.8038,0.8038,0.8038,0.8038,0.8038,0.8038,0.8038,0.8038,0.8038,0.8038,0.8038,0.8627,0.9118,0.9118,0.9801,1.0288,1.0288,0.8874,0.8076,0.8767,0.8699,0.8794,0.9411,0.9292,0.932,0.9625,0.9609,0.9712,0.9992,1.0632,1.1049,1.0863,1.1523,1.1854,1.1745,1.1576,1.1674,1.1935,1.1776,1.1922,1.2298,1.1842,1.1615,0.9417,0.9259,0.9362,0.8941,0.7445,0.5496,0.3242,0.221,0.1286,0.0237,-0.1678,-0.3262,-0.3262,-0.5376,-0.7403,-0.8275,-0.8401,-0.8732,-0.971,-0.7725,-0.5839,-0.4632,-0.453,-0.5683,-0.8584,-0.6953,-0.4954,-0.3039,-0.4749,-0.5824,-0.5741,-0.2154,0.0752,0.2363,0.2471,0.2018,0.114,0.4981,0.722,0.8012,0.7985,0.7969,0.7962,0.8045,0.8038,0.8038,0.8038,0.8038,0.8038,0.8038,0.8038,0.8038,0.8038,0.8038,0.8038,0.8432,0.8333,0.8038,0.8038,0.8038,0.8038,0.8038,0.8038,0.8038,0.8038,0.8038,0.8038,0.8038,0.8038,0.8038,0.8432,0.8528,0.8627,0.9019,0.9114,0.9114,0.9114,0.9114,0.9114,0.9114,0.9899,1.0485,1.0485,1.1263,1.1945,1.1945,1.0171,0.9296,1.0196,1.0197,1.036,1.1054,1.0885,1.0783,1.0889,1.0952,1.1028,1.1126,1.1921,1.2338,1.2265,1.2998,1.3414,1.3333,1.3106,1.2953,1.2872,1.2572,1.2425,1.2425,1.2338,1.2418,1.1631,1.1765,1.1373,0.9363,0.8981,0.9198,0.9459,0.7057,0.3803,0.0614,-0.0123,-0.0123,-0.0123,-0.0246,-0.1353,-0.4548,-0.504,-0.6126,-0.9362,-0.9713,-0.8316,-0.4965,-0.454,-0.5691,-0.8645,-0.8868,-0.6327,-0.0573,-0.0223,-0.022,-0.0224,-0.011,0.2626,0.8474,0.8587,0.7116,0.3924,0.4027,0.5428,0.7975,0.7972,0.7962,0.8041,0.8038,0.8038,0.8038,0.8038,0.8038,0.8038,0.8038,0.8038,0.8038,0.8038,0.8038,0.8137,0.941,0.9118,0.8038,0.8038,0.8038,0.8038,0.8038,0.8038,0.8038,0.8038,0.8038,0.8038,0.8038,0.8038,0.8336,0.9608,0.9903,1.0293,1.1463,1.175,1.175,1.175,1.175,1.175,1.175,1.1848,1.1853,1.1853,1.1853,1.1945,1.1945,1.1843,1.1758,1.1637,1.1502,1.1369,1.1148,1.1117,1.1372,1.2163,1.2231,1.2638,1.3477,1.3818,1.3844,1.3559,1.3908,1.3928,1.3552,1.3539,1.348,1.32,1.2886,1.2808,1.2802,1.2438,1.2305,1.3102,1.3102,1.3098,1.1824,1.0925,1.0166,0.9715,0.8857,0.7886,0.6677,0.4444,0.262,0.262,0.2978,0.2858,0.1784,0.1439,0.0964,-0.012,-0.0357,0.0117,0.1272,0.1507,0.1045,0.0115,-0.1823,-0.2158,-0.0115,0.3719,0.5922,0.5951,0.4012,0.3886,0.5892,0.7722,0.8138,0.697,0.6774,0.7082,0.7972,0.7959,0.8045,0.8038,0.8038,0.8038,0.8038,0.8038,0.8038,0.8038,0.8038,0.8531,0.9316,0.9316,0.9801,1.0681,1.1068,1.0974,1.0485,0.9608,0.8726,0.8038,0.8038,0.8038,0.8137,0.9019,0.9316,0.9509,1.0386,1.0583,1.0681,1.117,1.1268,1.1365,1.1755,1.1945,1.1945,1.1945,1.1945,1.1945,1.1945,1.2619,1.3199,1.3199,1.3884,1.4465,1.4465,1.3782,1.3171,1.3183,1.3713,1.4012,1.3746,1.3465,1.3417,1.3496,1.347,1.3607,1.3941,1.4035,1.4041,1.3941,1.4035,1.4041,1.3941,1.3741,1.3594,1.3494,1.32,1.2946,1.2829,1.2859,1.2792,1.4409,1.4459,1.4475,1.374,1.2931,1.1846,1.0428,1.017,1.019,0.9808,0.7663,0.5813,0.547,0.5824,0.6165,0.6362,0.606,0.5981,0.61,0.6016,0.6057,0.6028,0.6082,0.6109,0.6077,0.4296,0.2707,0.1718,0.5117,0.7806,0.8795,0.703,0.5989,0.5985,0.7542,0.8391,0.8452,0.824,0.8109,0.7962,0.8045,0.8038,0.8038,0.8038,0.8038,0.8038,0.8038,0.8038,0.8038,0.8038,0.8825,0.9998,0.9998,1.0779,1.1945,1.2431,1.2334,1.175,1.0974,1.0092,0.941,0.941,0.941,0.9505,1.0386,1.0681,1.0877,1.1653,1.1945,1.2042,1.2522,1.2624,1.2721,1.321,1.3307,1.3307,1.3307,1.3307,1.3307,1.3307,1.398,1.4561,1.4561,1.5242,1.5832,1.5832,1.514,1.4561,1.4561,1.5181,1.5438,1.515,1.495,1.4676,1.4275,1.4242,1.4202,1.4095,1.4088,1.4088,1.4088,1.4088,1.4088,1.4088,1.3901,1.3801,1.3801,1.3507,1.3206,1.2913,1.3006,1.2879,1.5578,1.5818,1.5641,1.5029,1.4798,1.4079,1.1691,1.1123,1.0743,0.969,0.9259,0.8927,0.8142,0.8271,0.8584,0.8913,0.8667,0.8673,0.8913,0.8893,0.8842,0.8866,0.8886,0.894,0.8833,0.8851,0.7682,0.4909,0.4685,0.5914,0.8785,0.8643,0.8553,0.8632,0.8375,0.8327,0.8272,0.8262,0.8184,0.8038,0.8038,0.8038,0.8038,0.8038,0.8038,0.8038,0.8038,0.8038,0.8038,0.8038,0.8825,0.9998,1.0194,1.0974,1.2139,1.3488,1.3204,1.2139,1.2139,1.2042,1.1945,1.1945,1.1945,1.195,1.1945,1.2042,1.2047,1.2042,1.2139,1.2431,1.368,1.3974,1.4262,1.5534,1.5832,1.5832,1.5832,1.5832,1.5832,1.5832,1.5832,1.5832,1.5832,1.5832,1.5832,1.5832,1.5832,1.5832,1.5832,1.5832,1.5718,1.5431,1.5398,1.5157,1.4569,1.4522,1.4396,1.4108,1.4088,1.4088,1.4088,1.4088,1.4095,1.4108,1.4095,1.4095,1.4108,1.3808,1.352,1.3227,1.2926,1.2632,1.5391,1.5665,1.5836,1.5881,1.5077,1.3937,1.2581,1.1505,1.0454,0.9208,0.8771,0.8662,0.8451,0.8544,0.8756,0.8833,0.893,0.9041,0.9269,0.9062,0.8872,0.8794,0.8886,0.8816,0.8736,0.8799,0.8628,0.7862,0.7768,0.8106,0.887,0.8816,0.8732,0.8723,0.857,0.8418,0.8272,0.8157,0.8079,0.8038,0.8038,0.8038,0.8038,0.8038,0.8038,0.8038,0.8038,0.8038,0.8038,0.9118,0.9706,1.0194,1.2134,1.3102,1.359,1.4854,1.5146,1.4854,1.4854,1.3499,1.1945,1.1945,1.1945,1.2042,1.3102,1.3392,1.359,1.4561,1.4854,1.4854,1.5242,1.5343,1.5439,1.573,1.5832,1.5832,1.5832,1.5832,1.5832,1.5832,1.5832,1.5832,1.5832,1.5832,1.5832,1.5832,1.5832,1.5832,1.5832,1.5832,1.5718,1.5431,1.5398,1.5157,1.4569,1.4522,1.4396,1.4108,1.4088,1.4088,1.4088,1.4088,1.4188,1.4402,1.4202,1.4195,1.4409,1.4115,1.3821,1.3534,1.3454,1.326,1.5305,1.5324,1.5518,1.5818,1.53,1.4389,1.3358,1.2181,1.0997,0.9549,0.8859,0.8387,0.8387,0.8509,0.8828,0.9481,0.9723,1.01,1.0822,1.072,1.0539,1.051,1.0601,1.0301,0.9674,0.9645,0.9516,0.8933,0.895,0.8846,0.8846,0.8818,0.8699,0.8611,0.8465,0.835,0.8272,0.8116,0.8038,0.8038,0.8038,0.8038,0.8038,0.8038,0.8038,0.8038,0.8038,0.8038,0.8137,0.941,1.0288,1.1068,1.3102,1.4262,1.4854,1.5534,1.5832,1.5832,1.5832,1.4854,1.3596,1.3596,1.3596,1.3788,1.4465,1.4752,1.4854,1.5629,1.5832,1.5832,1.5832,1.5832,1.5832,1.5832,1.5832,1.5832,1.5832,1.5832,1.5832,1.5832,1.5832,1.5832,1.5832,1.5832,1.5832,1.5832,1.5832,1.5832,1.5832,1.5832,1.5718,1.5431,1.5398,1.5157,1.4569,1.4636,1.4536,1.4115,1.4208,1.4222,1.4088,1.4088,1.4162,1.4322,1.4168,1.4168,1.4329,1.4168,1.4178,1.4346,1.4132,1.4202,1.5396,1.5225,1.5197,1.5277,1.5364,1.5073,1.3838,1.2807,1.1686,1.0196,0.9008,0.8214,0.8238,0.8357,0.8834,0.9961,1.0454,1.1141,1.2548,1.2799,1.2822,1.2805,1.2825,1.2288,1.1115,1.0797,1.0341,0.9439,0.9212,0.9003,0.8937,0.8669,0.8492,0.8455,0.8316,0.8241,0.8241,0.8106,0.8038,0.8038,0.8038,0.8038,0.8038,0.8038,0.8137,0.8233,0.8233,0.8333,0.8627,0.9998,1.1068,1.2042,1.359,1.4752,1.5534,1.573,1.5832,1.5832,1.5832,1.5832,1.5832,1.5832,1.5832,1.5832,1.5832,1.5832,1.5832,1.5832,1.5832,1.5832,1.5832,1.5832,1.5832,1.5832,1.5832,1.5832,1.5832,1.5832,1.5832,1.5832,1.5832,1.5832,1.5832,1.5832,1.5832,1.5832,1.5832,1.5832,1.5832,1.5832,1.5732,1.5478,1.5451,1.5231,1.4683,1.4877,1.477,1.4182,1.4382,1.4389,1.4095,1.4088,1.4108,1.4142,1.4108,1.4108,1.4142,1.4271,1.4684,1.535,1.502,1.549,1.6505,1.6338,1.6094,1.5286,1.5217,1.4963,1.3469,1.2411,1.134,0.9912,0.8661,0.7929,0.8055,0.8204,0.8481,0.891,0.9793,1.0716,1.1533,1.2271,1.2885,1.2921,1.2825,1.2651,1.226,1.1214,1.088,1.2023,1.094,0.9728,0.8923,0.8767,0.856,0.8316,0.816,0.8079,0.8079,0.8055,0.8038,0.8038,0.8038,0.8038,0.8038,0.8038,0.8627,0.9608,0.9608,1.0293,1.1361,1.2716,1.2716,1.2139,1.4561,1.4949,1.4364,1.5439,1.5832,1.5832,1.5832,1.5832,1.5832,1.5832,1.5832,1.5832,1.5832,1.5832,1.5832,1.5832,1.5832,1.5832,1.5832,1.5832,1.5832,1.5832,1.5832,1.5832,1.5832,1.5832,1.5832,1.5832,1.5832,1.5832,1.5832,1.5832,1.5832,1.5832,1.5832,1.5832,1.5832,1.5832,1.5812,1.5758,1.5752,1.5618,1.5271,1.5291,1.507,1.4482,1.4489,1.4389,1.4095,1.4088,1.4202,1.4442,1.4208,1.4208,1.4442,1.5098,1.5508,1.5606,1.6214,1.6768,1.7171,1.6789,1.6491,1.5749,1.5479,1.5129,1.4078,1.2564,1.1218,1.0371,0.8855,0.7723,0.7797,0.7929,0.8371,0.9217,0.9929,1.1043,1.2906,1.3736,1.4305,1.5139,1.5021,1.4476,1.3631,1.2801,1.2419,1.2536,1.1836,1.098,0.9985,0.9023,0.8418,0.8275,0.8119,0.8079,0.816,0.8079,0.8038,0.8038,0.8038,0.8038,0.8038,0.8726,0.941,0.9998,1.0681,1.1365,1.2042,1.3397,1.3488,1.3108,1.5051,1.5439,1.4949,1.5534,1.5832,1.5832,1.5832,1.5832,1.5832,1.5832,1.5832,1.5832,1.5832,1.5832,1.5832,1.5832,1.5832,1.5832,1.5832,1.5832,1.5832,1.5832,1.5832,1.5832,1.5832,1.5832,1.5832,1.5832,1.5832,1.5832,1.5832,1.5832,1.5832,1.5832,1.5832,1.6015,1.6669,1.6756,1.6511,1.5712,1.5605,1.5484,1.5197,1.5311,1.5211,1.4776,1.475,1.4616,1.4322,1.4168,1.4155,1.4295,1.4309,1.4309,1.4295,1.5375,1.6111,1.6593,1.7271,1.817,1.8196,1.7672,1.722,1.6806,1.6035,1.534,1.4787,1.2892,1.1146,1.0746,0.9076,0.756,0.7594,0.7692,0.8154,0.9319,0.9922,1.1179,1.4015,1.4706,1.5462,1.6932,1.6794,1.6201,1.4974,1.4336,1.3794,1.3228,1.2939,1.2299,1.1216,0.9618,0.8656,0.8624,0.8203,0.8099,0.8218,0.8099,0.8038,0.8038,0.8333,0.8432,0.8432,0.9805,1.0583,1.0872,1.1848,1.2528,1.2818,1.3878,1.4268,1.4364,1.5439,1.5832,1.5832,1.5832,1.5832,1.5832,1.5832,1.5832,1.5832,1.5832,1.5832,1.5832,1.5832,1.5832,1.5832,1.5832,1.5832,1.5832,1.5832,1.5832,1.5832,1.5832,1.5832,1.5832,1.5832,1.5832,1.5832,1.5832,1.5832,1.592,1.6204,1.6204,1.6292,1.6567,1.656,1.6936,1.7956,1.8048,1.7579,1.6416,1.6033,1.5851,1.5617,1.5541,1.5364,1.5077,1.4997,1.483,1.4529,1.4302,1.4182,1.4182,1.4469,1.4469,1.4182,1.5483,1.6438,1.7001,1.7759,1.8893,2.043,1.9812,1.9374,1.868,1.7041,1.5471,1.5286,1.3064,1.1003,1.0522,0.8796,0.7434,0.7573,0.7611,0.7662,0.798,0.8843,1.0256,1.2318,1.3537,1.4863,1.658,1.6486,1.6306,1.611,1.4758,1.4509,1.5888,1.4795,1.3502,1.2123,1.0782,0.9991,0.9834,0.8634,0.8045,0.8062,0.8045,0.8038,0.8041,0.9217,0.9805,0.9899,1.117,1.2431,1.3584,1.368,1.4364,1.5439,1.5534,1.5635,1.5635,1.573,1.5832,1.5832,1.5832,1.5832,1.5832,1.5832,1.5832,1.5832,1.5832,1.5832,1.5832,1.5832,1.5832,1.5832,1.5832,1.5832,1.5832,1.5832,1.5832,1.5832,1.5832,1.5832,1.5832,1.5832,1.5832,1.5832,1.5832,1.5832,1.6204,1.7318,1.7505,1.7863,1.8948,1.9131,1.9222,1.9314,1.9314,1.9298,1.9174,1.818,1.7446,1.7416,1.6425,1.5665,1.5378,1.511,1.483,1.4529,1.4496,1.4482,1.4482,1.477,1.4776,1.4482,1.5591,1.601,1.5861,1.6895,1.8035,2.1007,2.0869,2.0606,1.9918,1.7708,1.5576,1.5389,1.27,1.0273,1.0239,0.869,0.7251,0.7312,0.7322,0.7343,0.7397,0.7969,0.8997,1.0669,1.2134,1.3656,1.5318,1.6038,1.6273,1.6273,1.5512,1.5293,1.5992,1.5505,1.4921,1.4425,1.2361,1.125,1.117,1.0583,1.0386,1.0386,1.0386,1.0386,1.0386,1.0877,1.117,1.117,1.2522,1.3392,1.3974,1.4752,1.5337,1.5832,1.5832,1.5832,1.5832,1.5832,1.5832,1.5832,1.5832,1.5832,1.5832,1.5832,1.5832,1.5832,1.5832,1.5832,1.5832,1.5832,1.5832,1.5832,1.5832,1.5832,1.5832,1.5832,1.5832,1.5832,1.5832,1.5832,1.5832,1.5832,1.5832,1.5832,1.5832,1.6386,1.7131,1.7598,1.8319,1.8956,1.9405,1.9497,1.9761,2.0477,2.0576,2.0845,2.1587,1.9322,1.7692,1.7692,1.6574,1.5778,1.5665,1.5384,1.517,1.505,1.4883,1.4783,1.4783,1.4903,1.4816,1.4522,1.5598,1.5933,1.5703,1.6764,1.7504,2.0726,2.1102,2.1178,2.1138,1.8499,1.5831,1.5654,1.2616,0.9831,0.9985,0.8418,0.7092,0.7132,0.7139,0.7139,0.0,0.0,0.8031,0.9541,1.1226,1.2729,1.4289,1.5511,1.6146,1.6146,1.5952,1.5832,1.5832,1.5832,1.5832,1.5832,1.4076,1.2915,1.2528,1.2139,1.1945,1.1945,1.1945,1.1945,1.1945,1.2334,1.2522,1.2528,1.3878,1.4459,1.4555,1.5439,1.5832,1.5832,1.5832,1.5832,1.5832,1.5832,1.5832,1.5832,1.5832,1.5832,1.5832,1.5832,1.5832,1.5832,1.5832,1.5832,1.5832,1.5832,1.5832,1.5832,1.5832,1.5832,1.5832,1.5832,1.5832,1.5832,1.5832,1.5832,1.5832,1.5832,1.5832,1.5832,1.5832,1.648,1.7404,1.8141,1.8956,1.977,2.0494,2.0584,2.0764,2.1203,2.1293,2.148,2.1952,1.9413,1.787,1.8234,1.6756,1.5832,1.5832,1.5558,1.5398,1.5398,1.5204,1.509,1.509,1.5177,1.503,1.4649,1.5409,1.5618,1.5213,1.6041,1.6527,1.9755,2.0472,2.1083,2.2391,1.938,1.622,1.638,1.3001,0.9857,0.971,0.8234,0.6973,0.7112,0.7139,0.7139,0.7139,0.7272,0.0,0.9169,1.0691,1.2183,1.352,1.4986,1.5832,1.5832,1.5832,1.5832,1.5832,1.5832,1.5832,1.5832,1.5737,1.5146,1.3878,1.2619,1.1945,1.1945,1.1945,1.1945,1.195,1.3204,1.3878,1.3872,1.5242,1.5737,1.5737,1.5825,1.5832,1.5832,1.5832,1.5832,1.5832,1.5832,1.5832,1.5832,1.5832,1.5832,1.5832,1.5832,1.5832,1.5832,1.5832,1.5832,1.5832,1.5832,1.5832,1.5832,1.5832,1.5832,1.5832,1.5832,1.5832,1.5832,1.5832,1.5832,1.5832,1.5832,1.5832,1.5832,1.5832,1.5832,1.656,1.9031,1.9488,2.0314,2.2687,2.3047,2.2677,2.1471,2.1293,2.0845,1.967,1.8411,1.8141,1.9405,1.7203,1.5832,1.5832,1.5558,1.5398,1.5398,1.5391,1.5391,1.5391,1.5671,1.5538,1.4957,1.5046,1.4656,1.4088,1.4173,1.4734,1.6455,1.8193,1.9604,2.0017,1.7887,1.5705,1.5955,1.2632,0.9528,0.9676,0.8239,0.7088,0.7132,0.7139,0.7139,0.7139,0.7272,0.759,0.8062,0.9472,1.0619,1.1149,1.3154,1.4172,1.321,1.4758,1.5439,1.4555,1.5337,1.5832,1.5832,1.5832,1.5635,1.5242,1.4758,1.4567,1.4567,1.4567,1.4567,1.4567,1.4956,1.5242,1.5242,1.5635,1.5832,1.5832,1.5832,1.5832,1.5832,1.5832,1.5832,1.5832,1.5832,1.5832,1.5832,1.5832,1.5832,1.5832,1.5832,1.5832,1.5832,1.5832,1.5832,1.5832,1.5832,1.5832,1.5832,1.5832,1.5832,1.6015,1.685,1.7131,1.7131,1.7131,1.7131,1.685,1.6015,1.5832,1.5832,1.5832,1.648,1.7311,1.8141,1.8948,1.977,2.0494,2.0674,2.0494,2.0124,2.0034,1.9943,1.9588,1.8411,1.787,1.8234,1.6756,1.5832,1.5832,1.5558,1.5484,1.5685,1.5504,1.5491,1.5691,1.5391,1.515,1.4963,1.4563,1.4269,1.4088,1.4088,1.425,1.184,1.474,1.6775,1.7257,1.6062,1.4784,1.454,1.1822,0.934,0.9077,0.7934,0.7061,0.7061,0.7105,0.7139,0.7139,0.7319,0.7472,0.7509,0.8866,1.0056,1.0667,1.2452,1.3141,1.2047,1.3097,1.3669,1.3199,1.3884,1.437,1.437,1.4854,1.5045,1.5045,1.554,1.5832,1.5832,1.5832,1.5832,1.5832,1.5832,1.5832,1.5832,1.5832,1.5832,1.5832,1.5832,1.5832,0.0,1.5832,1.5832,1.5832,1.5832,1.5832,1.5832,1.5832,1.5832,1.5832,1.5832,1.5832,1.5832,1.5832,1.5832,1.5832,1.5832,1.5832,1.592,1.6386,1.648,1.6669,1.7505,1.8048,1.8141,1.7225,1.7318,1.7318,1.6109,1.5832,1.5832,1.5832,1.648,1.7131,1.7591,1.8319,1.8956,1.9397,1.9497,1.9314,1.8864,1.8864,1.868,1.8126,1.7397,1.6943,1.6943,1.6188,1.5665,1.5665,1.5498,1.5524,1.5818,1.5658,1.5645,1.5825,1.5478,1.5237,1.5124,1.4536,1.4249,1.4249,1.4135,1.4088,0.0,1.0122,1.2952,1.4169,1.4126,1.3484,1.251,1.0796,0.0,0.8203,0.7443,0.6915,0.6926,0.7037,0.7129,0.7143,0.7394,0.7539,0.7411,0.8607,0.9972,1.1109,1.2068,1.2283,1.141,1.0923,1.0937,1.1551,1.1745,1.1848,1.1945,1.3108,1.3776,1.3776,1.4949,1.5635,1.5832,1.5832,1.5832,1.5832,1.5832,1.5832,1.5832,1.5832,1.5832,1.5832,1.5832,1.5832,1.5832,1.5832,1.5832,1.5832,1.5832,1.5832,1.5832,1.5832,1.5832,1.5832,1.5832,1.5832,1.5832,1.5832,1.5832,1.5832,1.5832,1.5832,1.6015,1.7225,1.7598,1.7598,1.7692,1.8503,1.8764,1.6473,1.685,1.7318,1.6109,1.5832,1.5832,1.5832,1.5832,1.6204,1.7318,1.7598,1.7956,1.9039,1.9222,1.8856,1.7684,1.7598,1.7131,1.592,1.5832,1.5812,1.5772,1.5538,1.5398,1.5398,1.5378,1.5498,1.5785,1.5798,1.5805,1.5832,1.5805,1.5658,1.5364,1.4796,1.4522,1.4509,1.4222,1.4088,-0.033,0.0,0.9203,1.0232,1.13,1.1952,0.0,0.0,0.8278,0.8045,0.7349,0.679,0.683,0.6873,0.7021,0.7068,0.7148,0.7293,0.748,0.5764,0.4642,0.527,0.6449,0.6686,0.5456,0.9119,1.089,0.9076,1.0147,1.1234,1.1848,1.2237,1.2334,1.2334,1.2624,1.3788,1.5737,1.5832,1.5832,1.5832,1.5832,1.5832,1.5832,1.5832,1.5832,1.5832,1.5832,1.5832,1.5832,1.5832,1.5832,1.5832,1.5832,1.5832,1.5832,1.5832,1.5832,1.5832,1.5832,1.5832,1.5832,1.5832,1.5832,1.5832,1.5832,1.5832,1.5825,1.6204,1.6292,1.648,1.7412,1.787,1.7963,1.7404,1.7505,1.7318,1.6109,1.5832,1.5832,1.5832,1.5832,1.592,1.6197,1.6292,1.6386,1.6655,1.6655,1.6567,1.6292,1.6292,1.6109,1.5832,1.5832,1.5651,1.5204,1.5304,1.5398,1.5398,1.519,1.5197,1.5484,1.5498,1.5605,1.5825,1.5611,1.5357,1.5064,1.4696,1.4522,1.4509,1.4222,1.4088,-0.3954,0.0746,0.5509,0.6004,0.8156,1.0064,0.973,0.0,0.0,0.0,0.0,0.0,0.6579,0.5905,0.5745,0.69,0.6215,0.5561,0.5873,0.4374,0.2623,0.0766,0.4064,0.5659,0.3299,0.513,0.6492,0.6804,0.8403,0.96,1.0092,1.0681,1.1072,1.1072,1.1556,1.2915,1.4949,1.4949,1.5242,1.5832,1.5832,1.5832,1.5832,1.5832,1.5832,1.5832,1.5832,1.5832,1.5832,1.5832,1.5832,1.5832,1.5832,1.5832,1.5832,1.5832,1.5832,1.5832,1.5832,1.5832,1.5832,1.5832,1.5832,1.5832,1.5832,1.5832,1.592,1.648,1.6662,1.6857,1.7505,1.8141,1.8226,1.7124,1.7225,1.7318,1.6109,1.5832,1.5832,1.5832,1.5832,1.5832,1.5832,1.5832,1.5832,1.5832,1.5832,1.5832,1.5832,1.5832,1.5832,1.5832,1.5832,1.5651,1.5204,1.5184,1.5197,1.5197,1.505,1.5157,1.5578,1.5591,1.5671,1.5825,1.5671,1.5518,1.5357,1.5064,1.4856,1.4716,1.4422,1.4282,-0.5306,-0.1864,0.186,0.2213,0.4714,0.7223,0.7516,0.0,0.0,0.0,0.0,0.0,0.5406,0.4292,0.3976,0.5231,0.3751,0.2485,0.2736,0.2416,0.0767,-0.2904,0.1926,0.4467,0.1584,0.05,0.1406,0.4918,0.6951,0.7965,0.8041,0.9118,0.9706,0.9706,1.0779,1.1925,1.3233,1.3471,1.4172,1.5242,1.5242,1.5343,1.5534,1.5534,1.5635,1.5832,1.5832,1.5832,1.5832,1.5832,1.5832,1.5832,1.5832,1.5832,1.5832,1.5832,1.5832,1.5832,1.5832,1.5832,1.5832,1.5832,1.5832,1.5832,1.5832,1.5832,1.6015,1.7131,1.7412,1.7412,1.7412,1.8133,1.8395,1.6285,1.6662,1.7131,1.6015,1.5832,1.5832,1.5832,1.5832,1.5832,1.5832,1.5832,1.5832,1.5832,1.5832,1.5832,1.5832,1.5832,1.5832,1.5832,1.5832,1.5712,1.5424,1.517,1.503,1.503,1.4943,1.5157,1.5738,1.5805,1.5832,1.5832,1.5832,1.5832,1.5832,1.5538,1.5271,1.5023,1.473,1.4589,-0.3592,-0.2557,-0.1485,-0.0,0.085,0.1759,0.3522,0.0,0.0,0.0,0.0,0.0,0.0,0.2009,0.2042,-0.141,-0.2487,-0.2783,-0.2783,-0.4692,-0.6227,-0.6435,-0.5904,-0.5356,-0.4923,-0.198,0.1209,0.4016,0.655,0.7972,0.8041,0.8237,0.8333,0.8333,0.8528,0.9143,1.0423,1.1656,1.2334,1.2528,1.2528,1.3108,1.4166,1.4166,1.4752,1.5832,1.5832,1.5832,1.5832,1.5832,1.5832,1.5832,1.5832,1.5832,1.5832,1.5832,1.5832,1.5832,1.5832,1.5832,1.5832,1.5832,1.5832,1.5832,1.5832,1.5832,1.5825,1.6015,1.6109,1.6109,1.6109,1.6197,1.6285,1.592,1.592,1.6015,1.5825,1.5832,1.5832,1.5832,1.5832,1.5832,1.5832,1.5832,1.5832,1.5832,1.5832,1.5832,1.5832,1.5832,1.5832,1.5832,1.5832,1.5712,1.5424,1.5357,1.5331,1.5331,1.4863,1.485,1.5438,1.5698,1.5832,1.5832,1.5832,1.5832,1.5832,1.5538,1.5378,1.5324,1.503,1.4897,-0.4398,-0.3436,-0.2276,-0.0418,-0.0,0.028,0.1187,0.144,0.0,0.0,0.0,0.0,-0.3771,-0.3619,-0.3491,-0.5222,-0.5849,-0.616,-0.6166,-0.7229,-0.686,-0.3673,-0.3506,-0.4614,-0.7018,-0.0199,0.4237,0.4017,0.6448,0.7969,0.8041,0.8038,0.8038,0.8038,0.8038,0.8259,0.8671,0.9417,1.0431,1.1763,1.1763,1.2496,1.3878,1.3878,1.4561,1.5832,0.0,1.5832,1.5832,1.5832,1.5832,1.5832,1.5832,1.5832,1.5832,1.5832,1.5832,1.5832,1.5832,1.5832,1.5832,1.5832,1.5832,1.5832,1.5832,1.5832,1.5832,1.5832,1.5832,1.5832,1.5832,1.5832,1.5832,1.5832,1.5832,1.5832,1.5832,1.5832,1.5832,1.5832,1.5832,1.5832,1.5832,1.5832,1.5832,1.5832,1.5832,1.5832,1.5832,1.5832,1.5832,1.5832,1.5832,1.5712,1.5424,1.5398,1.5398,1.5398,1.5291,1.5351,1.5618,1.5758,1.5832,1.5832,1.5832,1.5832,1.5832,1.5698,1.5545,1.5391,1.4504,1.416,-0.5391,-0.442,-0.2818,-0.0537,0.0,-0.0,-0.0,-0.0,-0.0,0.0,0.0,-0.1232,-0.5392,-0.7062,-0.7358,-0.5704,-0.629,-0.7027,-0.7054,-0.7573,-0.6449,-0.236,0.0389,0.0195,-0.41,0.25,0.6426,0.4993,0.6802,0.7925,0.8038,0.8007,0.7987,0.7987,0.7987,0.7896,0.7709,0.8146,0.9336,1.1233,1.1282,1.2252,1.3878,1.3878,1.4561,1.5832,1.5832,1.5832,1.5832,1.5832,1.5832,1.5832,1.5832,1.5832,1.5832,1.5832,1.5832,1.5832,1.5832,1.5832,1.5832,1.5832,1.5832,1.5832,1.5832,1.5832,1.5832,1.5832,1.5635,1.5343,1.5343,1.5343,1.5242,1.4956,1.5146,1.5343,1.5343,1.5635,1.5832,1.5832,1.5832,1.5832,1.5832,1.5832,1.5832,1.5832,1.5832,1.5832,1.5832,1.5832,1.5832,1.5832,1.5832,1.5738,1.5518,1.5498,1.5498,1.5498,1.5645,1.5732,1.5732,1.5792,1.5832,1.5832,1.5832,1.5832,1.5832,1.5832,1.5712,1.5498,1.444,1.3772,-0.5401,-0.5301,-0.437,-0.0842,-0.0,-0.0,-0.0,-0.0,0.0,-0.0,-0.0,-0.0155,-0.0496,-0.4414,-0.604,-0.1329,-0.2417,-0.4034,-0.4301,-0.645,-0.7895,-0.7491,0.1404,0.7033,0.6131,0.4716,0.4901,0.7265,0.7566,0.7815,0.8031,0.7906,0.7828,0.7828,0.7828,0.7692,0.7407,0.8652,0.9464,0.9905,1.0087,1.1439,1.3878,1.3878,1.4561,1.5832,1.5832,1.5832,1.5832,1.5832,1.5832,1.5832,1.5832,1.5832,1.5832,1.5832,1.5832,1.5832,1.5832,1.5832,1.5832,1.5832,1.5832,1.5832,1.5832,1.5832,1.5832,1.5832,1.4949,1.407,1.407,1.407,1.3686,1.2528,1.3108,1.407,1.407,1.4949,1.5832,1.5832,1.5832,1.5832,1.5832,1.5832,1.5832,1.5832,1.5832,1.5832,1.5832,1.5832,1.5832,1.5832,1.5832,1.5818,1.5798,1.5798,1.5798,1.5798,1.5565,1.5431,1.5431,1.5685,1.5832,1.5832,1.5832,1.5832,1.5832,1.5832,1.5818,1.5798,1.5697,1.5019,-0.5417,-0.5399,-0.4556,-0.088,0.1393,0.0,0.0,0.3361,0.3383,0.3389,0.2761,0.1747,0.0248,-0.1591,-0.2227,-0.0284,0.2026,0.2952,0.1199,0.01,-0.0502,-0.0502,0.3013,0.6011,0.7302,0.6672,0.6526,0.7419,0.7681,0.7748,0.7896,0.7841,0.7811,0.7811,0.8575,0.8934,0.8694,1.0193,1.1382,1.2183,1.1278,1.1862,1.3878,1.3878,1.4561,1.5832,1.5832,1.5832,1.5832,1.5832,1.5832,1.5832,1.5832,1.5832,1.5832,1.5832,1.5832,1.5832,1.5832,1.5832,1.5832,1.5832,1.5832,1.5635,1.4854,1.4657,1.4459,1.359,1.3011,1.2818,1.368,1.3295,1.2528,1.2042,1.2334,1.2909,1.368,1.4268,1.4854,1.5635,1.5832,1.5832,1.5832,1.5832,1.5832,1.5832,1.5832,1.5832,1.5832,1.5832,1.5832,1.5832,1.5832,1.5832,1.5832,1.5832,1.5832,1.5832,1.5725,1.5665,1.5665,1.5772,1.5832,1.5832,1.5832,1.5832,1.5832,1.5832,1.5832,1.5737,1.4949,1.4364,-0.3407,-0.3347,-0.2313,0.0668,0.0,0.0,0.5034,0.4903,0.4742,0.529,0.4357,0.3213,0.2397,0.1679,0.1203,0.1124,0.4914,0.7205,0.5436,0.5141,0.5141,0.5141,0.5134,0.5691,0.7254,0.7558,0.7607,0.7453,0.757,0.7931,0.8214,0.8259,0.8419,0.8698,0.9631,1.0001,0.9885,1.1346,1.2587,1.3445,1.2621,1.3118,1.4459,1.4459,1.4949,1.5832,1.5832,1.5778,1.5698,1.5792,1.5832,1.5832,1.5832,1.5832,1.5832,1.5832,1.5832,1.5832,1.5832,1.5832,1.5832,1.5832,1.5534,1.5045,1.4166,1.3584,1.3108,1.2139,1.1658,1.1556,1.2425,1.2037,1.1165,1.0779,1.097,1.1653,1.3006,1.3584,1.4268,1.554,1.5832,1.5832,1.5832,1.5832,1.5832,1.5832,1.6109,1.6386,1.6386,1.6386,1.6386,1.6386,1.6386,1.6386,1.6386,1.6386,1.6204,1.5832,1.5832,1.5832,1.5832,1.5832,1.5832,1.5832,1.5832,1.5832,1.5832,1.5832,1.5832,1.5737,1.4949,1.4268,0.0831,0.1115,0.2581,0.4136,0.0,0.0,0.4543,0.3788,0.3205,0.5067,0.4173,0.3974,0.6605,0.5401,0.3957,0.368,0.5828,0.7624,0.7577,0.7557,0.7557,0.7557,0.7439,0.7366,0.7135,0.7423,0.7533,0.7471,0.7512,0.8149,0.925,0.9167,0.9602,1.0771,1.0771,1.0755,1.0616,1.1981,1.2727,1.2803,1.398,1.4977,1.5818,1.5818,1.5818,1.5818,1.5825,1.5658,1.5418,1.5705,1.5825,1.5832,1.5832,1.5832,1.5832,1.5832,1.5832,1.5832,1.5832,1.5832,1.5832,1.5832,1.4949,1.3878,1.3878,1.3006,1.1945,1.1945,1.0974,0.9998,0.9998,0.9998,0.9706,0.8333,0.9019,1.0391,1.1653,1.3006,1.4268,1.554,1.5832,1.5832,1.5832,1.5832,1.5832,1.5832,1.685,1.7692,1.7692,1.7684,1.7692,1.7692,1.7684,1.7692,1.7692,1.7692,1.7131,1.592,1.5832,1.5832,1.5832,1.5832,1.5832,1.5832,1.5832,1.5832,1.5832,1.5832,1.5832,1.5832,1.5832,1.5146,0.3433,0.2719,0.2565,0.4106,0.4361,0.433,0.0,0.4797,0.0,0.6294,0.6284,0.6177,0.6451,0.6198,0.5999,0.6084,0.6703,0.7342,0.7594,0.7614,0.7614,0.7614,0.7607,0.7816,0.8465,0.858,0.8894,0.9592,0.9763,0.9967,1.0324,1.0357,1.0409,1.0771,1.1744,1.2147,1.2161,1.3591,1.4282,1.4365,1.4645,1.497,1.5217,1.5217,1.5217,1.5231,1.5438,1.5357,1.5117,1.5404,1.5645,1.5832,1.5832,1.5832,1.5832,1.5832,1.5832,1.5832,1.5832,1.5832,1.5832,1.5832,1.4949,1.3878,1.3878,1.3006,1.1945,1.1945,1.1653,1.1365,1.1365,1.1365,1.0974,0.9706,0.9706,1.0583,1.2813,1.3584,1.4268,1.554,1.5832,1.5832,1.5832,1.5832,1.5832,1.5832,1.6103,1.6386,1.6386,1.7131,1.7692,1.7692,1.8503,1.8956,1.8956,1.8234,1.7505,1.7131,1.6292,1.5832,1.5832,1.5832,1.5832,1.5832,1.5832,1.5832,1.5832,1.5832,1.5832,1.5832,1.5832,1.5629,0.4311,0.3815,0.3375,0.4381,0.4983,0.5493,0.6104,0.6058,0.6147,0.6839,0.7338,0.7623,0.7414,0.7646,0.7902,0.8074,0.8166,0.8329,0.8456,0.8476,0.85,0.8661,0.8669,0.8918,0.9664,0.9736,0.9962,1.0539,1.0735,1.0998,1.134,1.1422,1.1608,1.2139,1.2922,1.3361,1.3361,1.4167,1.4616,1.4616,1.4616,1.4616,1.4623,1.4856,1.4963,1.497,1.5023,1.5084,1.5137,1.5204,1.5464,1.5832,1.5832,1.5832,1.5832,1.5832,1.5832,1.5832,1.5832,1.5832,1.5832,1.5832,1.4949,1.3878,1.3878,1.3006,1.1945,1.1945,1.1945,1.1945,1.1945,1.1945,1.175,1.0974,1.0779,1.1361,1.3488,1.3494,1.3494,1.4758,1.4885,1.4815,1.4815,1.4815,1.4815,1.4815,1.5343,1.5981,1.648,1.7225,1.787,1.8319,1.9047,1.967,2.0215,1.9588,1.868,1.7777,1.6943,1.6292,1.5825,1.5832,1.5832,1.5832,1.5832,1.5832,1.5832,1.5832,1.5832,1.5832,1.5832,1.5832,0.4047,0.4563,0.4741,0.4901,0.564,0.6646,0.7737,0.7437,0.6964,0.7076,0.774,0.8482,0.901,0.9148,0.9296,0.9611,0.9819,0.9897,0.973,0.9705,0.9779,1.0143,1.0168,1.0333,1.0615,1.0824,1.087,1.0854,1.0948,1.1505,1.2425,1.2474,1.2905,1.4048,1.4048,1.4048,1.4048,1.4075,1.4088,1.4088,1.4088,1.4088,1.4108,1.4636,1.4897,1.491,1.4609,1.4816,1.5337,1.5044,1.5264,1.5792,1.5792,1.5805,1.5832,1.5832,1.5832,1.5832,1.5832,1.5832,1.5832,1.5832,1.4949,1.3872,1.407,1.3102,1.2139,1.2237,1.2328,1.2425,1.2425,1.2425,1.2425,1.2425,1.2237,1.2431,1.3782,1.3011,1.2431,1.38,1.3574,1.3133,1.2721,1.2715,1.2818,1.2927,1.4472,1.6021,1.721,1.7591,1.8141,1.9405,1.9579,2.0124,2.1391,2.1293,2.0215,1.7956,1.7692,1.7037,1.5825,1.5832,1.5832,1.5832,1.5832,1.5832,1.5832,1.5832,1.5832,1.5832,1.5832,1.5832,0.3738,0.5293,0.6028,0.5821,0.6547,0.7494,0.7896,0.8355,0.8759,0.8749,0.9041,0.9282,0.9371,0.8962,0.8743,0.9133,0.9237,0.937,0.9666,0.9705,0.9725,0.9769,0.9779,1.0203,1.1235,1.1368,1.1799,1.2876,1.2945,1.322,1.3724,1.3432,1.348,1.3741,1.3741,1.3741,1.3741,1.3968,1.4088,1.4088,1.4088,1.4088,1.4088,1.4215,1.4402,1.4596,1.4309,1.4516,1.5037,1.4736,1.4963,1.5491,1.5491,1.5625,1.5832,1.5832,1.5832,1.5832,1.5832,1.5832,1.5832,1.5832,1.4949,1.407,1.5051,1.4465,1.3686,1.4663,1.5697,1.6438,1.6438,1.6438,1.6438,1.6438,1.4918,1.3782,1.514,1.4364,1.3811,1.5101,1.4225,1.2299,0.9531,0.9026,0.9527,1.0942,1.2984,1.4339,1.4638,1.6445,1.8141,1.9405,2.0305,2.1391,2.2589,2.0944,1.9679,1.9131,1.7304,1.6109,1.5832,1.5832,1.5832,1.5832,1.5832,1.5832,1.5832,1.5832,1.5832,1.5832,1.5832,1.5832,0.1587,0.3669,0.5657,0.7602,0.854,0.9182,0.9705,1.0192,1.0521,1.0521,1.0271,1.0152,1.0725,1.0457,1.0474,1.1243,1.1041,1.1002,1.1636,1.1397,1.1202,1.1455,1.1486,1.175,1.2276,1.2307,1.2763,1.3961,1.4048,1.4358,1.4992,1.4452,1.4048,1.4048,1.3804,1.3559,1.3559,1.3941,1.4088,1.4088,1.4088,1.4015,1.3881,1.4021,1.4168,1.4302,1.4155,1.4063,1.4115,1.4517,1.4702,1.4735,1.5317,1.5698,1.5832,1.5832,1.5832,1.5832,1.5832,1.5832,1.5832,1.5832,1.5343,1.4949,1.5629,1.5337,1.5038,1.6379,1.7225,1.787,1.8411,1.8596,1.8596,1.8596,1.6626,1.4854,1.4854,1.3878,1.3039,1.3236,1.0909,0.8605,0.8014,0.7045,0.7144,0.9874,1.1918,1.3327,1.3794,1.6163,1.8141,1.9405,2.0034,2.0935,2.2129,2.0584,1.9222,1.868,1.7397,1.648,1.5832,1.5832,1.5832,1.5832,1.5832,1.5832,1.5832,1.5832,1.5832,1.5832,1.5832,1.5832,-0.1018,0.1702,0.5246,0.9522,1.0739,1.1121,1.1819,1.202,1.202,1.202,1.1476,1.1234,1.2049,1.2213,1.2582,1.3518,1.3131,1.2979,1.381,1.3302,1.3044,1.3513,1.3626,1.3594,1.3453,1.348,1.391,1.4712,1.4789,1.5111,1.5992,1.5196,1.4789,1.4789,1.4258,1.4006,1.3957,1.4317,1.4552,1.4414,1.4414,1.4282,1.4047,1.4352,1.4337,1.4015,1.4062,1.3739,1.3255,1.4404,1.4636,1.423,1.5347,1.5785,1.5832,1.5832,1.5832,1.5832,1.5832,1.5832,1.5832,1.5832,1.5832,1.5832,1.5832,1.5832,1.6109,1.7318,1.787,1.8326,1.9497,1.9852,1.9852,1.9852,1.8118,1.6089,1.4829,1.3284,1.1945,1.0829,0.7015,0.4732,0.7012,0.6159,0.6164,0.9318,1.1188,1.2496,1.3482,1.5812,1.7863,1.9039,1.9222,1.967,2.0845,1.9852,1.8772,1.7777,1.7505,1.6943,1.5825,1.5832,1.5832,1.5832,1.5832,1.5832,1.5832,1.5832,1.5832,1.5832,1.5832,1.5832,-0.242,0.1978,0.6862,1.0677,1.2166,1.2696,1.2818,1.2826,1.2826,1.2826,1.2765,1.2623,1.2425,1.2376,1.2497,1.2907,1.2849,1.3066,1.3802,1.3826,1.38,1.3822,1.4163,1.4388,1.4345,1.4696,1.5073,1.5454,1.547,1.56,1.5983,1.564,1.547,1.547,1.5734,1.5699,1.5327,1.6044,1.6142,1.5761,1.5761,1.5737,1.5697,1.6134,1.5358,1.3714,1.3975,1.4044,1.3959,1.4389,1.4681,1.4916,1.5265,1.5611,1.5832,1.5832,1.5832,1.5832,1.5832,1.5832,1.5832,1.5832,1.5832,1.5832,1.5832,1.5832,1.6109,1.7318,1.8411,1.9588,2.0755,2.1025,2.1025,2.1025,2.0034,1.8672,1.7483,1.5253,1.2934,1.103,0.6988,0.4241,0.4828,0.6508,0.8007,0.8643,1.0777,1.2253,1.2427,1.4503,1.6567,1.7777,1.7963,1.8411,1.967,1.8588,1.787,1.7684,1.6669,1.6015,1.5832,1.5832,1.5832,1.5832,1.5832,1.5832,1.5832,1.5832,1.5832,1.5832,1.5832,1.5832,-0.1592,0.2808,0.7639,1.1858,1.296,1.313,1.3554,1.3666,1.3666,1.3666,1.3856,1.3834,1.3203,1.288,1.2841,1.3462,1.3389,1.3534,1.4297,1.4224,1.4122,1.4337,1.4509,1.4569,1.4509,1.469,1.5217,1.6076,1.6182,1.6465,1.709,1.6492,1.6182,1.6182,1.5961,1.5782,1.5618,1.6051,1.6231,1.5992,1.5871,1.588,1.6152,1.6316,1.6038,1.5385,1.5733,1.5216,1.4183,1.5019,1.4832,1.3966,1.4996,1.5478,1.5698,1.6511,1.685,1.6943,1.7669,1.7848,1.7755,1.7124,1.685,1.6763,1.6015,1.5832,1.6109,1.7318,1.8596,1.9761,2.1025,2.1756,2.2306,2.2306,2.2356,2.2133,2.0962,1.8164,1.4867,1.1298,0.9429,0.8627,0.9306,1.0531,1.1406,1.083,1.2349,1.3418,1.338,1.539,1.7037,1.7598,1.7692,1.787,1.8411,1.7311,1.6669,1.6669,1.6109,1.5832,1.5832,1.5832,1.5832,1.5832,1.5832,1.5832,1.5832,1.5832,1.5832,1.5832,1.5832,1.5832,-0.148,0.2478,0.6809,1.121,1.2597,1.3218,1.4025,1.4392,1.451,1.451,1.4668,1.4608,1.4034,1.3525,1.3385,1.3888,1.3836,1.3933,1.4564,1.4459,1.4473,1.4717,1.4928,1.5034,1.4887,1.4966,1.5475,1.6523,1.6619,1.6945,1.7774,1.7203,1.6821,1.6922,1.659,1.6306,1.622,1.6413,1.6476,1.6476,1.6276,1.6409,1.6845,1.7222,1.7552,1.7863,1.7489,1.6381,1.5064,1.6129,1.5619,1.4365,1.5756,1.6288,1.6415,1.7649,1.8141,1.8326,1.9222,1.9497,1.9314,1.8411,1.7963,1.7498,1.6574,1.6015,1.6109,1.7318,1.8596,1.9761,2.1025,2.2217,2.3135,2.3464,2.4211,2.4501,2.3179,2.0286,1.6771,1.2991,1.2587,1.2975,1.3434,1.3881,1.3782,1.2751,1.3694,1.4476,1.4377,1.6012,1.7225,1.7225,1.7225,1.7225,1.7225,1.6386,1.5832,1.5832,1.5832,1.5832,1.5832,1.5832,1.5832,1.5832,1.5832,1.5832,1.5832,1.5832,1.5832,1.5832,1.5832,1.5832,-0.3389,-0.0268,0.3449,0.718,1.054,1.3142,1.4007,1.4805,1.5352,1.5352,1.5078,1.4785,1.4729,1.4369,1.3951,1.3603,1.3834,1.4116,1.4116,1.4486,1.4768,1.4788,1.5508,1.6013,1.6001,1.6389,1.6641,1.666,1.667,1.6908,1.7393,1.7346,1.7531,1.793,1.8269,1.8228,1.7901,1.792,1.793,1.793,1.791,1.8123,1.8531,1.992,2.0782,2.0999,1.8426,1.7269,1.7139,1.7572,1.7644,1.7641,1.8321,1.8588,1.8726,1.9175,1.9405,1.9405,1.9497,1.9497,1.9497,1.9405,1.8588,1.7692,1.7591,1.6763,1.6109,1.7318,1.8596,1.9761,2.1025,2.2217,2.3387,2.4457,2.4787,2.4449,2.2982,2.0853,1.8643,1.7175,1.6068,1.5216,1.443,1.4346,1.4128,1.3362,1.3909,1.454,1.4529,1.5284,1.592,1.592,1.592,1.592,1.592,1.5825,1.5832,1.5832,1.5832,1.5832,1.5832,1.5832,1.5832,1.5832,1.5832,1.5832,1.5832,1.5832,1.5832,1.5832,1.5832,1.5832,-0.5955,-0.3447,-0.0065,0.3471,0.6598,0.9854,1.4004,1.4363,1.4073,1.5157,1.5078,1.4943,1.541,1.5139,1.4779,1.4625,1.5049,1.5415,1.5285,1.5073,1.5063,1.5174,1.5215,1.5517,1.6076,1.6211,1.6416,1.6709,1.6665,1.6743,1.6953,1.6963,1.7158,1.7598,1.7754,1.7891,1.8008,1.8008,1.8008,1.8008,1.8008,1.8232,1.8652,2.0133,2.1007,2.1376,2.1326,2.0507,1.9289,1.9436,1.8709,1.7524,1.8239,1.8518,1.8671,2.0162,2.0508,2.043,2.1496,2.1609,2.1346,2.0864,1.9852,1.868,1.7956,1.685,1.6109,1.7318,1.8596,1.9761,2.1025,2.2217,2.3551,2.5473,2.6311,2.7036,2.7944,2.5769,2.3558,2.3418,2.1311,1.9608,1.9606,1.9154,1.864,1.8368,1.836,1.84,1.84,1.7588,1.7037,1.7037,1.6292,1.5832,1.5832,1.5832,1.5832,1.5832,1.5832,1.5832,1.5832,1.5832,1.5832,1.5832,1.5832,1.5832,1.5832,1.5832,1.5832,1.5832,1.5832,1.5832,-0.7493,-0.5292,-0.218,0.0129,0.3412,0.7229,1.1661,1.3278,1.3974,1.4704,1.5135,1.5543,1.6022,1.6235,1.6225,1.5712,1.6107,1.6376,1.6114,1.5859,1.5786,1.5899,1.5624,1.5615,1.6197,1.6019,1.5967,1.6269,1.6289,1.6357,1.6494,1.6514,1.6709,1.7148,1.7168,1.7363,1.7793,1.7803,1.7871,1.8008,1.8008,1.8232,1.8643,2.0237,2.1344,2.202,2.3553,2.3167,2.1425,2.1064,2.0139,1.8895,1.9247,1.9344,1.9507,2.0939,2.1367,2.1267,2.2351,2.2627,2.2378,2.1839,2.0659,1.9314,1.8596,1.7404,1.6574,1.7505,1.8864,2.0305,2.1114,2.2463,2.4135,2.6058,2.7521,2.8963,3.0768,2.912,2.7369,2.7708,2.5198,2.3009,2.3112,2.2354,2.1697,2.1197,2.0801,2.0528,2.0404,1.8856,1.7692,1.7692,1.6574,1.5832,1.5832,1.5832,1.5832,1.5832,1.5832,1.5832,1.5832,1.5832,1.5832,1.5832,1.6197,1.648,1.648,1.6015,1.5832,1.5832,1.5832,1.5832,0.0,0.0,0.0,-0.2896,0.1037,0.5297,0.6918,1.1359,1.487,1.4029,1.5221,1.6482,1.6492,1.7688,1.8236,1.6694,1.678,1.6915,1.6514,1.6768,1.701,1.7044,1.6742,1.6528,1.6492,1.5864,1.5468,1.541,1.5468,1.5655,1.6086,1.6115,1.626,1.6699,1.6665,1.6934,1.7363,1.7363,1.7578,1.7988,1.7988,1.8213,1.8623,2.0514,2.1913,2.2976,2.4742,2.4759,2.3419,2.2467,2.2027,2.1928,2.1431,2.123,2.1289,2.1728,2.1875,2.1865,2.1885,2.2139,2.2386,2.2405,2.1074,1.9389,1.9389,1.8588,1.7692,1.7777,1.9497,2.1293,2.1382,2.3037,2.5041,2.6141,2.8001,2.9694,3.0843,3.0265,2.9528,2.9541,2.7367,2.5285,2.4392,2.3654,2.2699,2.1303,2.0898,2.0533,2.0074,1.8715,1.7777,1.7692,1.6574,1.5832,1.5832,1.5832,1.5832,1.5832,1.5832,1.5832,1.5832,1.5832,1.5832,1.5832,1.7037,1.7692,1.7692,1.648,1.592,1.592,1.592,1.592,-0.7061,0.0,0.0,0.0,0.0,0.0,0.4495,0.7255,1.0086,1.4105,1.5323,1.5803,1.6358,1.7688,1.8567,1.8125,1.8274,1.8367,1.8107,1.7572,1.7264,1.7407,1.709,1.6776,1.6507,1.681,1.6754,1.6255,1.6698,1.6807,1.6393,1.6188,1.6184,1.624,1.6562,1.6787,1.6914,1.6914,1.7129,1.7559,1.7559,1.7773,1.8193,1.9766,2.0937,2.1902,2.3851,2.4417,2.3968,2.3369,2.2627,2.1928,2.1431,2.123,2.1289,2.1728,2.1689,2.1455,2.1777,2.1234,2.0421,2.0717,1.9495,1.7833,1.7833,1.7751,1.787,1.8772,2.0124,2.148,2.2403,2.3115,2.3887,2.4957,2.6173,2.7392,2.856,2.9207,2.9884,3.1047,2.9748,2.8218,2.7442,2.6744,2.5744,2.4202,2.3617,2.2926,2.16,2.0004,1.8688,1.7777,1.6574,1.5832,1.5832,1.5832,1.5832,1.5832,1.5832,1.5832,1.5832,1.5832,1.5832,1.5832,1.7037,1.7692,1.7692,1.8218,1.8488,1.8488,1.8488,1.8033,-0.6588,-0.6461,-0.6316,-0.7048,0.0,0.0,0.1052,0.3937,0.6945,1.11,1.3252,1.4739,1.567,1.7254,1.8517,1.8679,1.9062,1.9295,1.9165,1.8678,1.8406,1.8484,1.7764,1.7265,1.739,1.7246,1.709,1.6978,1.7357,1.7413,1.6978,1.6512,1.6256,1.6256,1.6226,1.6269,1.6455,1.6455,1.6768,1.7383,1.7383,1.7607,1.8018,1.9256,2.014,2.0951,2.2455,2.3187,2.3282,2.2655,2.2209,2.1907,2.1222,2.0957,2.0986,2.124,2.0922,2.033,2.0585,1.9943,1.8994,1.9221,1.8349,1.7153,1.7153,1.7408,1.787,1.8588,1.9943,2.1569,2.2775,2.3135,2.329,2.3912,2.4862,2.5821,2.6352,2.745,2.8797,3.0625,2.965,2.8402,2.8007,2.704,2.5845,2.4683,2.3938,2.2971,2.1808,2.0004,1.8303,1.6994,1.5785,1.4758,1.4178,1.4178,1.437,1.4949,1.5045,1.5242,1.5737,1.5832,1.6015,1.6574,1.7863,1.8956,1.996,1.9679,1.9497,1.9497,1.9497,1.9131,-0.633,-0.6009,-0.5593,-0.6559,-0.6217,0.0,-0.2761,0.1069,0.461,0.6511,0.9893,1.2969,1.4376,1.6286,1.7796,1.8207,1.9052,1.9672,1.9798,1.9798,1.9798,1.9798,1.8661,1.807,1.8661,1.7578,1.709,1.7688,1.7743,1.7743,1.7743,1.7034,1.6595,1.6492,1.5864,1.5655,1.6047,1.5986,1.6416,1.7236,1.7236,1.7461,1.7871,1.8634,1.9306,1.9896,2.0797,2.142,2.1674,2.0903,2.1146,2.1816,2.0834,2.0498,2.0498,2.0469,1.9844,1.8957,1.8877,1.8365,1.7737,1.7737,1.7361,1.6928,1.6928,1.7286,1.7692,1.787,1.9405,2.1391,2.2403,2.2687,2.2658,2.2659,2.3441,2.4139,2.4026,2.5009,2.6464,2.821,2.7743,2.7115,2.6945,2.5612,2.4359,2.3667,2.2674,2.1688,2.0988,1.894,1.7001,1.5637,1.4429,1.3199,1.2042,1.1945,1.2431,1.3782,1.3878,1.4459,1.573,1.5832,1.6386,1.7692,1.9039,2.0854,2.3135,2.0953,1.9861,1.9861,1.9861,1.9852,-0.5624,-0.5557,-0.5466,-0.5754,-0.5677,0.0,-0.4993,-0.246,0.0895,0.4626,0.7082,0.942,1.2375,1.4043,1.5185,1.5587,1.7206,1.8727,1.9684,1.9798,1.9798,1.9798,1.9527,1.9202,1.8715,1.8992,1.898,1.8501,1.8501,1.8501,1.8501,1.7797,1.7079,1.6549,1.6379,1.6019,1.5537,1.5537,1.5801,1.6318,1.6318,1.6553,1.6982,1.7101,1.764,1.8438,1.9447,1.9446,1.8778,1.9354,2.0145,2.0988,2.0267,2.0039,2.0002,1.9478,1.9195,1.8877,1.798,1.6968,1.6125,1.6125,1.5827,1.5397,1.5397,1.6493,1.787,1.8864,1.9497,1.9943,2.0133,2.0223,2.0215,2.0198,2.0369,2.0549,2.0523,2.1353,2.2263,2.264,2.5189,2.6956,2.5925,2.5878,2.5128,2.2721,2.2117,2.1138,1.8735,1.7066,1.5644,1.4339,1.3097,1.2139,1.1945,1.1945,1.2431,1.3782,1.3878,1.4459,1.573,1.5832,1.6386,1.7692,1.9852,2.1667,2.3135,2.2589,2.2403,2.2403,2.2403,2.1854,-0.5369,-0.5432,-0.5466,-0.5552,-0.5474,0.0,0.0,-0.3786,-0.1406,0.117,0.3258,0.5565,0.8751,1.0635,1.1981,1.2759,1.5054,1.6852,1.7308,1.879,1.9798,1.9798,1.9475,1.9254,1.9254,1.9254,1.9254,1.9254,1.9523,1.9548,1.9267,1.8555,1.7797,1.709,1.6708,1.6151,1.541,1.541,1.5635,1.6125,1.6125,1.6299,1.6665,1.6665,1.6971,1.7357,1.7451,1.722,1.6713,1.6904,1.7302,1.7764,1.8018,1.8113,1.814,1.7802,1.7328,1.6789,1.6237,1.5403,1.466,1.466,1.4668,1.477,1.4917,1.5824,1.7037,1.8226,1.8596,1.8772,1.9314,1.9497,1.9314,1.8772,1.9039,1.9314,1.8772,1.9455,2.0318,2.0318,2.1989,2.3389,2.3281,2.3041,2.2425,2.0989,2.0247,1.935,1.7893,1.5954,1.4327,1.3006,1.175,1.0681,0.9993,0.9998,1.0774,1.2813,1.2909,1.3782,1.573,1.6386,1.7576,1.9497,2.1311,2.2492,2.3135,2.3135,2.3135,2.3135,2.3135,2.2775,-0.5309,-0.5352,-0.5359,-0.5508,-0.543,-0.5325,0.0,0.0,0.0,-0.246,-0.0665,0.1687,0.4479,0.6442,0.8212,0.978,1.2222,1.4057,1.4342,1.6872,1.8943,1.9676,1.9158,1.9028,1.9897,1.9413,1.9344,2.006,2.0564,2.0627,2.015,1.9474,1.8762,1.7999,1.7301,1.6472,1.5642,1.5553,1.5634,1.588,1.588,1.6006,1.6357,1.6436,1.6475,1.6422,1.5832,1.5405,1.5047,1.4698,1.4416,1.4303,1.5724,1.6271,1.628,1.6119,1.5549,1.4794,1.4569,1.4085,1.3559,1.3559,1.4041,1.4583,1.4937,1.5378,1.594,1.7023,1.7318,1.7591,1.8488,1.8764,1.858,1.7591,1.8041,1.8488,1.7498,1.8133,1.8764,1.8764,1.8764,1.919,2.0543,2.0065,1.9405,1.9222,1.8319,1.7598,1.7412,1.5114,1.3102,1.2047,1.0485,0.9217,0.8137,0.8038,0.9114,1.175,1.1945,1.3108,1.573,1.7217,1.9039,2.1293,2.2492,2.3135,2.3135,2.3135,2.3135,2.3135,2.3135,2.3135,-0.497,-0.5277,-0.5206,-0.5352,-0.527,-0.5192,-0.5328,0.0,-0.5091,-0.5014,0.0,-0.1877,-0.0122,0.0,0.0,0.6345,0.806,0.9831,1.219,1.3696,1.5816,1.9223,1.9066,1.9172,2.0461,2.0511,2.0711,2.1255,2.1355,2.1368,2.1305,2.0774,2.0109,1.9385,1.8748,1.7786,1.6379,1.6008,1.5512,1.4932,1.4932,1.4961,1.5019,1.5391,1.5566,1.5586,1.5906,1.512,1.3691,1.3991,1.3392,1.2487,1.4944,1.5896,1.579,1.521,1.4872,1.4647,1.3738,1.3481,1.3559,1.3559,1.4041,1.4623,1.5177,1.5391,1.5498,1.5947,1.6015,1.6015,1.6197,1.6197,1.6197,1.6015,1.6103,1.6197,1.6015,1.6103,1.6197,1.6197,1.6197,1.6929,1.9289,1.9579,1.9131,1.8048,1.7785,1.7318,1.6204,1.3788,1.2042,1.195,0.9702,0.8137,0.8038,0.8038,0.9114,1.175,1.1945,1.3108,1.573,1.8033,1.9943,2.1293,2.2492,2.3135,2.3135,2.3135,2.3135,2.3135,2.3135,2.3135,-0.3075,-0.4404,-0.527,-0.5237,-0.5247,-0.5281,-0.5415,-0.5428,-0.5411,-0.5418,0.0,0.0,0.0,0.0,0.0,0.0,0.3136,0.5442,0.7458,0.9587,1.245,1.6555,1.7464,1.8317,1.983,2.0655,2.0966,2.0539,2.1822,2.2159,2.1096,2.1247,2.0828,1.9646,1.9,1.7867,1.6185,1.5985,1.5386,1.4404,1.4404,1.4404,1.4414,1.459,1.4668,1.4642,1.4658,1.3945,1.2846,1.2956,1.2358,1.1553,1.2984,1.363,1.3734,1.3433,1.3339,1.3264,1.2831,1.2993,1.3447,1.3788,1.4182,1.4569,1.481,1.5124,1.5424,1.5545,1.5698,1.5832,1.5832,1.5832,1.5832,1.5832,1.5832,1.5832,1.5832,1.5832,1.5832,1.5832,1.5832,1.6103,1.7203,1.739,1.721,1.6662,1.7225,1.7225,1.592,1.4823,1.3843,1.3102,1.1356,1.0288,1.0288,1.0288,1.1068,1.2909,1.3788,1.5032,1.685,1.858,2.0034,2.1293,2.2492,2.3135,2.3135,2.3135,2.3135,2.3135,2.3135,2.3135,-0.2189,-0.3786,-0.5294,-0.5213,-0.5247,-0.5311,-0.5418,-0.5328,-0.5311,-0.5418,-0.5328,0.0,0.0,0.0,-0.5199,-0.383,0.0,0.1507,0.3553,0.5855,0.8914,1.3365,1.5586,1.7307,1.8657,2.0032,2.0618,1.9994,2.1856,2.257,2.1524,2.1786,2.147,2.0446,1.9648,1.8342,1.647,1.618,1.5416,1.4208,1.4008,1.3965,1.3912,1.4029,1.4077,1.4097,1.3682,1.3011,1.2249,1.2058,1.1546,1.0935,1.1516,1.1924,1.2191,1.2271,1.2305,1.2305,1.2305,1.2705,1.3293,1.3801,1.4162,1.4416,1.4496,1.4877,1.5297,1.5378,1.5545,1.5712,1.5712,1.5712,1.5712,1.5712,1.5772,1.5832,1.5832,1.5832,1.5832,1.5832,1.5832,1.5832,1.5832,1.5832,1.5832,1.5832,1.685,1.7412,1.648,1.6223,1.5893,1.4975,1.3459,1.2404,1.2404,1.2129,1.2431,1.3782,1.5146,1.6386,1.7692,1.8864,2.0034,2.1293,2.2492,2.3135,2.3135,2.3135,2.3135,2.3135,2.3135,2.3135,-0.3172,-0.3855,-0.5186,-0.5321,-0.5247,-0.5176,-0.5328,-0.5247,-0.5179,-0.5332,-0.5243,-0.5186,-0.5342,-0.5435,-0.549,-0.5866,-0.4109,0.0,0.0,0.2933,0.5209,1.0066,1.3787,1.6295,1.717,1.8412,1.9515,2.0318,2.1424,2.2414,2.3273,2.2692,2.2444,2.2484,2.1281,1.9707,1.784,1.6853,1.5703,1.4362,1.3811,1.3525,1.3545,1.3945,1.4077,1.4077,1.3377,1.2648,1.1888,1.1511,1.1024,1.0698,1.1216,1.1623,1.1917,1.2198,1.2305,1.2305,1.2305,1.2705,1.326,1.3561,1.3854,1.4155,1.4436,1.4736,1.5037,1.5317,1.5404,1.5411,1.5411,1.5411,1.5411,1.5411,1.5625,1.5832,1.5832,1.5832,1.5832,1.5832,1.5832,1.5832,1.5832,1.5832,1.5832,1.5832,1.685,1.7692,1.7591,1.7494,1.7427,1.7427,1.5188,1.3784,1.3784,1.2587,1.2431,1.3782,1.5146,1.6386,1.7692,1.8864,2.0034,2.1293,2.2492,2.3135,2.3135,2.3135,2.3135,2.3135,2.3135,2.3135,-0.4365,-0.4693,-0.5091,-0.5199,-0.5247,-0.5298,-0.5415,-0.5243,-0.5176,-0.5328,-0.524,-0.5209,-0.5464,-0.5511,-0.5631,-0.5856,-0.537,-0.4574,0.0,-0.0985,0.1913,0.495,0.95,1.2976,1.4547,1.6382,1.7407,1.7357,2.0167,2.1641,2.1107,2.207,2.2409,2.1957,2.0731,1.9292,1.7492,1.6781,1.5576,1.3999,1.341,1.3096,1.3096,1.3242,1.303,1.2605,1.2684,1.1995,1.0872,1.0986,1.0746,1.0307,1.0701,1.1029,1.1369,1.2051,1.2305,1.2331,1.2525,1.2866,1.326,1.3547,1.3841,1.4142,1.4436,1.473,1.5023,1.5311,1.5531,1.5638,1.5444,1.5398,1.5398,1.5398,1.5471,1.5591,1.5792,1.5832,1.5832,1.5832,1.5832,1.5832,1.5832,1.5832,1.5832,1.5832,1.7576,1.8596,1.7777,1.9686,2.0543,1.8975,1.8712,1.8315,1.7665,1.6404,1.5961,1.6351,1.6001,1.6386,1.7692,1.8864,2.0034,2.1293,2.2492,2.3135,2.3135,2.3135,2.3135,2.3135,2.3135,2.3135,-0.4924,-0.503,0.0,-0.5057,-0.5131,-0.522,-0.5267,-0.5162,-0.5114,-0.5318,-0.524,-0.5209,-0.546,-0.5508,-0.5555,-0.5701,-0.5801,-0.5923,0.0,-0.3339,-0.0626,0.0933,0.5638,0.9494,1.1472,1.3451,1.4562,1.4493,1.7709,1.9784,1.9927,2.1259,2.2034,2.1998,2.0798,1.9332,1.7654,1.6799,1.5646,1.4097,1.3286,1.2881,1.2881,1.2881,1.251,1.1783,1.1849,1.1237,1.0104,1.0265,1.0142,1.0,1.0401,1.0735,1.1089,1.1864,1.2211,1.2325,1.2518,1.2859,1.324,1.3427,1.3761,1.4122,1.4309,1.4643,1.5003,1.519,1.5378,1.5478,1.5291,1.5164,1.511,1.5217,1.5317,1.5478,1.5765,1.5832,1.5832,1.5832,1.5832,1.592,1.6386,1.648,1.6292,1.5825,1.7749,1.8985,1.8395,2.0962,2.2273,2.0935,2.1051,2.0676,1.9579,1.8772,1.8319,1.8319,1.7576,1.7483,1.8319,1.9497,2.0555,2.1518,2.2577,2.3213,2.3369,2.3213,2.3135,2.3135,2.3135,2.3135]},{"header":{"parameterUnit":"m.s-1","parameterCategory":1,"la1":30.6,"la2":29.2853,"lo1":-89.7004,"lo2":-87.6739,"dy":0.0162,"dx":0.0183,"nx":112,"ny":82,"refTime":"2023-08-12T06:00:00:Z","depth":0,"parameterNumber":3,"parameterNumberName":"V-component_of_WINDS"},"data":[0.0,0.0,0.0,0.0,0.0,0.0,0.0,0.0,0.0,0.0,0.0,0.0,0.0,0.0,0.0,0.0,0.0,0.0,0.0,0.0,0.0,0.0,0.0,0.0,0.0,0.0,0.0,0.0,0.0,0.0,0.0,0.0,0.0,0.0,0.0,0.0,0.0,0.0,0.0,0.0,0.0,0.0,0.0,0.0,0.0,0.0,0.0,0.0,0.0,0.0,0.0,0.0,0.0,0.0,0.0,0.0,0.0,0.0,0.0,0.0,0.0,0.0,0.0,0.0,0.0,0.0,0.0,0.0,0.0,0.0,0.0,0.0,0.0,0.0,0.0,0.0,0.0,0.0,0.0,0.0,0.0,0.0,0.0,0.0,0.0,0.0,0.0,0.0,0.0,0.0,-2.7544,-2.6858,-2.6025,-2.5466,-2.5341,-2.5447,-2.6271,-2.8001,0.0,0.0,0.0,0.0,0.0,0.0,0.0,0.0,0.0,0.0,0.0,0.0,0.0,0.0,0.0,0.0,0.0,0.0,0.0,0.0,0.0,0.0,0.0,0.0,0.0,0.0,0.0,0.0,0.0,0.0,0.0,0.0,0.0,0.0,0.0,0.0,0.0,0.0,0.0,0.0,0.0,0.0,0.0,0.0,0.0,0.0,0.0,0.0,0.0,0.0,0.0,0.0,0.0,0.0,0.0,0.0,0.0,0.0,0.0,0.0,0.0,0.0,0.0,0.0,0.0,0.0,0.0,0.0,0.0,0.0,0.0,0.0,0.0,0.0,0.0,0.0,0.0,0.0,0.0,0.0,0.0,0.0,0.0,0.0,0.0,0.0,0.0,0.0,0.0,0.0,0.0,0.0,0.0,0.0,0.0,0.0,0.0,0.0,0.0,0.0,0.0,0.0,0.0,0.0,-2.595,-2.582,-2.5686,-2.5543,-2.5486,-2.5543,-2.6333,-2.8067,0.0,0.0,0.0,0.0,0.0,0.0,0.0,0.0,0.0,0.0,0.0,0.0,0.0,0.0,0.0,0.0,0.0,0.0,0.0,0.0,0.0,0.0,0.0,0.0,0.0,0.0,0.0,0.0,0.0,0.0,0.0,0.0,0.0,0.0,0.0,0.0,0.0,0.0,0.0,0.0,0.0,0.0,0.0,0.0,0.0,0.0,0.0,0.0,0.0,0.0,0.0,0.0,0.0,0.0,0.0,0.0,0.0,0.0,0.0,0.0,0.0,0.0,0.0,0.0,0.0,0.0,0.0,0.0,0.0,0.0,0.0,0.0,0.0,0.0,0.0,0.0,0.0,0.0,0.0,0.0,0.0,0.0,0.0,0.0,0.0,0.0,0.0,0.0,0.0,0.0,0.0,0.0,0.0,0.0,0.0,0.0,0.0,0.0,0.0,0.0,0.0,0.0,0.0,-2.7084,-2.6107,-2.5605,-2.5576,-2.5571,-2.5505,-2.5569,-2.6333,-2.8097,-2.8144,0.0,0.0,0.0,0.0,0.0,0.0,0.0,0.0,0.0,0.0,0.0,0.0,0.0,0.0,0.0,0.0,0.0,0.0,0.0,0.0,0.0,0.0,0.0,0.0,0.0,0.0,0.0,0.0,0.0,0.0,0.0,0.0,0.0,0.0,0.0,0.0,0.0,0.0,0.0,0.0,0.0,0.0,0.0,0.0,0.0,0.0,0.0,0.0,0.0,0.0,0.0,0.0,0.0,0.0,0.0,0.0,0.0,0.0,0.0,0.0,0.0,0.0,0.0,0.0,0.0,0.0,0.0,0.0,0.0,0.0,0.0,0.0,0.0,0.0,0.0,0.0,0.0,0.0,0.0,0.0,0.0,0.0,0.0,0.0,0.0,0.0,0.0,0.0,0.0,0.0,0.0,0.0,0.0,0.0,0.0,0.0,0.0,0.0,0.0,0.0,0.0,0.0,-2.7675,-2.6527,-2.5599,-2.5542,-2.5566,-2.5505,-2.5547,-2.6327,-2.8061,-2.8106,0.0,0.0,0.0,0.0,0.0,0.0,0.0,0.0,0.0,0.0,0.0,0.0,0.0,0.0,0.0,0.0,0.0,0.0,0.0,0.0,0.0,0.0,0.0,0.0,0.0,0.0,0.0,0.0,0.0,0.0,0.0,0.0,0.0,0.0,0.0,0.0,0.0,0.0,0.0,0.0,0.0,0.0,0.0,0.0,0.0,0.0,0.0,0.0,0.0,0.0,0.0,0.0,0.0,0.0,0.0,0.0,0.0,0.0,0.0,0.0,0.0,0.0,0.0,0.0,0.0,0.0,0.0,0.0,0.0,0.0,0.0,0.0,0.0,0.0,0.0,0.0,0.0,0.0,0.0,0.0,0.0,0.0,0.0,0.0,0.0,0.0,0.0,0.0,0.0,0.0,0.0,0.0,0.0,0.0,0.0,0.0,0.0,0.0,0.0,0.0,0.0,0.0,-2.6892,-2.6467,-2.5591,-2.5503,-2.5507,-2.5496,-2.5504,-2.6244,-2.7999,-2.8045,0.0,0.0,0.0,0.0,0.0,0.0,0.0,0.0,0.0,0.0,0.0,0.0,0.0,0.0,0.0,0.0,0.0,0.0,0.0,0.0,0.0,0.0,0.0,0.0,0.0,0.0,0.0,0.0,0.0,0.0,0.0,0.0,0.0,0.0,0.0,0.0,0.0,0.0,0.0,0.0,0.0,0.0,0.0,0.0,0.0,0.0,0.0,0.0,0.0,0.0,0.0,0.0,0.0,0.0,0.0,0.0,0.0,0.0,0.0,0.0,0.0,0.0,0.0,0.0,0.0,0.0,0.0,0.0,0.0,0.0,0.0,0.0,0.0,0.0,0.0,0.0,0.0,0.0,0.0,0.0,0.0,0.0,0.0,0.0,0.0,0.0,0.0,0.0,0.0,0.0,0.0,0.0,0.0,0.0,0.0,0.0,0.0,0.0,0.0,0.0,0.0,0.0,-2.7516,-2.7007,-2.5592,-2.5484,-2.5503,-2.5503,-2.5503,-2.6238,-2.7989,0.0,0.0,0.0,0.0,0.0,0.0,0.0,0.0,0.0,0.0,0.0,0.0,0.0,0.0,0.0,0.0,0.0,0.0,0.0,0.0,0.0,0.0,0.0,0.0,0.0,0.0,0.0,0.0,0.0,0.0,0.0,0.0,0.0,0.0,0.0,0.0,0.0,0.0,0.0,0.0,0.0,0.0,0.0,0.0,0.0,0.0,0.0,0.0,0.0,0.0,0.0,0.0,0.0,0.0,0.0,0.0,0.0,0.0,0.0,0.0,0.0,0.0,0.0,0.0,0.0,0.0,0.0,0.0,0.0,0.0,0.0,0.0,0.0,0.0,0.0,0.0,0.0,0.0,0.0,0.0,0.0,0.0,0.0,0.0,0.0,0.0,0.0,0.0,0.0,0.0,0.0,0.0,0.0,0.0,0.0,0.0,0.0,0.0,0.0,0.0,0.0,0.0,-2.8082,-2.7708,-2.6996,-2.5524,-2.5409,-2.5447,-2.5447,-2.5447,-2.6178,-2.7939,0.0,0.0,0.0,0.0,0.0,0.0,0.0,0.0,0.0,0.0,0.0,0.0,0.0,0.0,0.0,0.0,0.0,0.0,0.0,0.0,0.0,0.0,0.0,0.0,0.0,0.0,0.0,0.0,0.0,0.0,0.0,0.0,0.0,0.0,0.0,0.0,0.0,0.0,0.0,0.0,0.0,0.0,0.0,0.0,0.0,0.0,0.0,0.0,0.0,0.0,0.0,0.0,0.0,0.0,0.0,0.0,0.0,0.0,0.0,0.0,0.0,0.0,0.0,0.0,0.0,0.0,0.0,0.0,0.0,0.0,0.0,0.0,0.0,0.0,0.0,0.0,0.0,0.0,0.0,0.0,0.0,0.0,0.0,0.0,0.0,0.0,0.0,0.0,0.0,0.0,0.0,0.0,0.0,0.0,0.0,0.0,0.0,0.0,0.0,0.0,0.0,0.0,-2.8005,-2.714,-2.6274,-2.538,-2.5303,-2.5303,-2.5303,-2.5303,-2.6043,0.0,0.0,0.0,0.0,0.0,0.0,0.0,0.0,0.0,0.0,0.0,0.0,0.0,0.0,0.0,0.0,0.0,0.0,0.0,0.0,0.0,0.0,0.0,0.0,0.0,0.0,0.0,0.0,0.0,0.0,0.0,0.0,0.0,0.0,0.0,0.0,0.0,0.0,0.0,0.0,0.0,0.0,0.0,0.0,0.0,0.0,0.0,0.0,0.0,0.0,0.0,0.0,0.0,0.0,0.0,0.0,0.0,0.0,0.0,0.0,0.0,0.0,0.0,0.0,0.0,0.0,0.0,0.0,0.0,0.0,0.0,0.0,0.0,0.0,0.0,0.0,0.0,0.0,0.0,0.0,0.0,0.0,0.0,0.0,0.0,0.0,0.0,0.0,0.0,0.0,0.0,0.0,0.0,0.0,0.0,0.0,0.0,0.0,0.0,0.0,0.0,0.0,0.0,-2.8005,-2.714,-2.6274,-2.538,-2.5303,-2.5303,-2.5303,-2.5303,-2.6043,-2.7794,0.0,0.0,0.0,0.0,0.0,0.0,0.0,0.0,0.0,0.0,0.0,0.0,0.0,0.0,0.0,0.0,0.0,0.0,0.0,0.0,0.0,0.0,0.0,0.0,0.0,0.0,0.0,0.0,0.0,0.0,0.0,0.0,0.0,0.0,0.0,0.0,0.0,0.0,0.0,0.0,0.0,0.0,0.0,0.0,0.0,0.0,0.0,0.0,0.0,0.0,0.0,0.0,0.0,0.0,0.0,0.0,0.0,0.0,0.0,0.0,0.0,0.0,0.0,0.0,0.0,0.0,0.0,0.0,0.0,0.0,0.0,0.0,0.0,0.0,0.0,0.0,0.0,0.0,0.0,0.0,0.0,0.0,0.0,0.0,0.0,0.0,0.0,0.0,0.0,0.0,0.0,0.0,0.0,0.0,0.0,0.0,0.0,0.0,0.0,0.0,0.0,0.0,-2.8044,-2.6909,-2.5967,-2.5447,-2.539,-2.537,-2.5341,-2.5341,-2.5928,-2.7294,0.0,0.0,0.0,0.0,0.0,0.0,0.0,0.0,0.0,0.0,0.0,0.0,0.0,0.0,0.0,0.0,0.0,0.0,0.0,0.0,0.0,0.0,0.0,0.0,0.0,0.0,0.0,0.0,0.0,0.0,0.0,0.0,0.0,0.0,0.0,0.0,0.0,0.0,0.0,0.0,0.0,0.0,0.0,0.0,0.0,0.0,0.0,0.0,0.0,0.0,0.0,0.0,0.0,0.0,0.0,0.0,0.0,0.0,0.0,0.0,0.0,0.0,0.0,0.0,0.0,0.0,0.0,0.0,0.0,0.0,0.0,0.0,0.0,0.0,0.0,0.0,0.0,0.0,0.0,0.0,0.0,0.0,0.0,0.0,0.0,0.0,0.0,0.0,0.0,0.0,0.0,0.0,0.0,0.0,0.0,0.0,0.0,0.0,0.0,0.0,0.0,0.0,-2.8319,-2.6737,-2.5618,-2.5599,-2.5542,-2.5495,-2.5514,-2.5524,-2.587,-2.6678,0.0,0.0,0.0,0.0,0.0,0.0,0.0,0.0,0.0,0.0,0.0,0.0,0.0,0.0,0.0,0.0,0.0,0.0,0.0,0.0,0.0,0.0,0.0,0.0,0.0,0.0,0.0,0.0,0.0,0.0,0.0,0.0,0.0,0.0,0.0,0.0,0.0,0.0,0.0,0.0,0.0,0.0,0.0,0.0,0.0,0.0,0.0,0.0,0.0,0.0,0.0,0.0,0.0,0.0,0.0,0.0,0.0,0.0,0.0,0.0,-3.2604,-3.1754,0.0,0.0,0.0,0.0,0.0,0.0,0.0,0.0,0.0,0.0,0.0,0.0,0.0,0.0,0.0,0.0,0.0,0.0,0.0,0.0,0.0,0.0,0.0,0.0,0.0,0.0,0.0,0.0,0.0,0.0,0.0,0.0,0.0,0.0,0.0,0.0,0.0,0.0,0.0,0.0,-2.9994,-2.7913,-2.6429,-2.6374,-2.5811,-2.5693,-2.6379,-2.642,-2.6785,-2.7653,-2.8412,0.0,0.0,0.0,0.0,0.0,0.0,0.0,0.0,0.0,0.0,0.0,0.0,0.0,0.0,0.0,0.0,0.0,0.0,0.0,0.0,0.0,0.0,0.0,0.0,0.0,0.0,0.0,0.0,0.0,0.0,0.0,0.0,0.0,0.0,0.0,0.0,0.0,0.0,0.0,0.0,0.0,0.0,0.0,0.0,0.0,0.0,0.0,0.0,0.0,0.0,0.0,0.0,0.0,0.0,0.0,0.0,0.0,0.0,0.0,-3.4275,-3.3411,0.0,0.0,0.0,0.0,0.0,0.0,0.0,0.0,0.0,0.0,0.0,0.0,0.0,0.0,0.0,0.0,0.0,0.0,0.0,0.0,0.0,0.0,0.0,0.0,0.0,0.0,0.0,0.0,0.0,0.0,0.0,0.0,0.0,0.0,0.0,0.0,0.0,0.0,0.0,0.0,-3.0601,-2.9031,-2.7793,-2.7371,-2.658,-2.6255,-2.6715,-2.6365,-2.6475,-2.7314,-2.8132,0.0,0.0,0.0,0.0,0.0,0.0,0.0,0.0,0.0,0.0,0.0,0.0,0.0,0.0,0.0,0.0,0.0,0.0,0.0,0.0,0.0,0.0,0.0,0.0,0.0,0.0,0.0,0.0,0.0,0.0,0.0,0.0,0.0,0.0,0.0,0.0,0.0,0.0,0.0,0.0,0.0,0.0,0.0,0.0,0.0,0.0,0.0,0.0,0.0,0.0,0.0,0.0,0.0,-3.7173,-3.7928,-3.9802,-3.8445,-3.8028,-3.8349,-3.6453,-3.5806,-3.6058,-3.5428,0.0,0.0,0.0,0.0,0.0,0.0,0.0,0.0,0.0,0.0,0.0,0.0,0.0,0.0,0.0,0.0,0.0,0.0,0.0,0.0,0.0,0.0,-3.2726,-3.3788,-3.3641,-3.2962,-3.1819,0.0,0.0,0.0,0.0,0.0,0.0,0.0,0.0,0.0,0.0,0.0,-3.1313,-3.0451,-2.9567,-2.8537,-2.7698,-2.7237,-2.7254,-2.6579,-2.6451,-2.7133,-2.7969,-2.869,0.0,0.0,0.0,0.0,0.0,0.0,0.0,0.0,0.0,0.0,0.0,0.0,0.0,0.0,0.0,0.0,0.0,0.0,0.0,0.0,0.0,0.0,0.0,0.0,0.0,0.0,0.0,0.0,0.0,0.0,0.0,0.0,-3.1549,-3.078,0.0,0.0,0.0,0.0,0.0,0.0,0.0,0.0,0.0,0.0,0.0,0.0,0.0,-3.5885,-3.7734,-3.7834,-3.871,-4.0315,-4.068,-4.1017,-4.1306,-4.0787,-4.0601,-4.0662,-4.0362,0.0,-3.7302,-3.7411,0.0,0.0,0.0,0.0,0.0,0.0,0.0,0.0,0.0,0.0,0.0,0.0,0.0,0.0,0.0,0.0,0.0,0.0,0.0,0.0,0.0,0.0,-3.6318,-3.6494,-3.7009,-3.7128,-3.5759,-3.5145,-3.4887,-3.5004,-3.4641,-3.4764,0.0,0.0,0.0,0.0,0.0,0.0,-3.3704,-3.2905,-3.1801,-2.9952,-2.9219,-2.8935,-2.9059,-2.8906,-2.8873,-2.9039,-2.9748,-3.0198,-3.0237,-3.034,0.0,0.0,0.0,0.0,0.0,0.0,0.0,0.0,0.0,0.0,0.0,0.0,0.0,0.0,0.0,0.0,0.0,0.0,0.0,0.0,0.0,0.0,0.0,0.0,0.0,0.0,0.0,0.0,0.0,-3.1526,-3.1864,-3.1482,-3.1716,-3.1748,0.0,0.0,0.0,0.0,0.0,0.0,0.0,0.0,0.0,-3.669,-3.7269,-3.8169,-3.9417,-3.9925,-4.0644,-4.1635,-4.1622,-4.2079,-4.2936,-4.2062,-4.2165,-4.3042,-4.2538,-4.2025,-4.1371,-3.9908,-3.9808,-4.049,0.0,0.0,0.0,0.0,-4.0902,-4.1396,-4.0984,-4.1188,-4.1574,-4.1079,0.0,0.0,0.0,0.0,0.0,0.0,0.0,-3.8666,-3.848,-3.8572,-3.8812,-3.9131,-3.9467,-3.9769,-3.9794,-3.9509,-3.8783,-3.7213,-3.7026,-3.7348,-3.8118,-3.755,0.0,0.0,0.0,-3.7617,-3.5726,-3.5667,-3.4927,-3.2598,-3.1303,-3.046,-3.0089,-2.9174,-2.8862,-2.9413,-2.9752,-3.009,-3.0448,-3.0941,-3.1518,0.0,0.0,0.0,0.0,0.0,0.0,0.0,0.0,0.0,0.0,0.0,0.0,0.0,0.0,0.0,0.0,0.0,0.0,0.0,0.0,0.0,0.0,0.0,0.0,0.0,0.0,0.0,0.0,-3.2197,-3.2609,-3.1656,-3.2301,-3.2634,0.0,0.0,0.0,0.0,0.0,0.0,-3.6153,-3.6616,-3.7331,-3.8458,-3.9496,-4.039,-4.113,-4.1638,-4.221,-4.2728,-4.2478,-4.2997,-4.4109,-4.3156,-4.3416,-4.4542,-4.3926,-4.4052,-4.4556,-4.213,-4.158,-4.2199,-4.1399,-4.1779,-4.2722,-4.2441,-4.2718,-4.3266,-4.3561,-4.3644,-4.3567,-4.3171,-4.308,-4.2883,-4.1474,0.0,0.0,0.0,0.0,-4.1027,-4.1055,-4.0977,-4.1083,-4.1699,-4.1912,-4.2158,-4.2768,-4.2966,-4.2297,-3.9784,-3.9642,-3.995,-3.9969,-3.9465,0.0,-3.843,-3.9469,-3.9488,-3.7222,-3.7959,-3.7608,-3.4769,-3.3429,-3.2256,-3.1056,-2.9821,-2.9294,-2.9785,-2.9814,-3.0027,-3.0488,-3.133,-3.1864,-3.2006,0.0,0.0,0.0,0.0,0.0,0.0,0.0,0.0,0.0,0.0,0.0,0.0,0.0,0.0,0.0,0.0,0.0,0.0,0.0,0.0,0.0,0.0,0.0,0.0,0.0,0.0,0.0,0.0,0.0,-3.07,-3.3255,0.0,0.0,0.0,0.0,-3.6039,-3.612,-3.7012,-3.918,-3.9298,-4.0289,-4.2441,-4.1855,-4.2106,-4.333,-4.294,-4.3141,-4.393,-4.4279,-4.4504,-4.4553,-4.4485,-4.453,-4.458,-4.4542,-4.4743,-4.4976,-4.3686,-4.3853,-4.4829,-4.4033,-4.4403,-4.528,-4.4172,-4.43,-4.4805,-4.371,-4.3851,-4.4636,-4.5364,-4.5268,-4.4709,-4.3874,-4.3312,0.0,0.0,-4.2754,-4.2677,-4.3418,-4.3392,-4.3366,-4.4209,-4.4659,-4.4674,-4.3912,-4.4001,-4.3934,-4.3028,-4.222,-4.172,-4.1835,0.0,-4.1232,-3.9588,-4.1428,-4.1687,-3.8018,-3.9336,-3.918,-3.5529,-3.5419,-3.4597,-3.2139,-3.1842,-3.1479,-3.0683,-3.0644,-3.0599,-3.049,-3.1347,-3.2128,-3.2833,-3.2833,0.0,0.0,0.0,0.0,0.0,0.0,0.0,0.0,0.0,0.0,0.0,0.0,0.0,0.0,0.0,0.0,0.0,0.0,0.0,0.0,0.0,0.0,0.0,0.0,0.0,0.0,0.0,0.0,-3.5192,-3.5894,0.0,-3.5088,-3.5114,-3.5723,-3.6975,-3.7697,-3.8658,-3.9949,-4.1052,-4.1988,-4.2787,-4.3287,-4.3755,-4.4194,-4.4036,-4.4091,-4.4392,-4.4757,-4.4919,-4.4919,-4.514,-4.5243,-4.5243,-4.5243,-4.5361,-4.5515,-4.5093,-4.5112,-4.5381,-4.5112,-4.5302,-4.5682,-4.5264,-4.5323,-4.5554,-4.5131,-4.5186,-4.5472,-4.5778,-4.5705,-4.5458,-4.517,-4.4899,-4.4701,-4.4701,-4.461,-4.4613,-4.4882,-4.494,-4.4995,-4.5301,-4.5495,-4.5515,-4.5208,-4.5244,-4.5238,-4.4968,-4.3278,-4.2316,-4.353,-4.2808,-4.2042,-4.1983,-4.2756,-4.2637,-4.0737,-4.1135,-4.0477,-3.7518,-3.6811,-3.5792,-3.3846,-3.3159,-3.2507,-3.1718,-3.1583,-3.1246,-3.0594,-3.0829,-3.1071,-3.1295,-3.1295,-3.1968,0.0,0.0,0.0,0.0,0.0,0.0,0.0,0.0,0.0,0.0,0.0,0.0,0.0,0.0,0.0,0.0,0.0,0.0,0.0,0.0,0.0,0.0,0.0,0.0,0.0,-3.7848,-3.8404,-3.7084,-3.7472,-3.7461,-3.6534,-3.6666,-3.7332,-3.8534,-3.9632,-4.0558,-4.1266,-4.2632,-4.3428,-4.3428,-4.4173,-4.458,-4.458,-4.4707,-4.4776,-4.4757,-4.5118,-4.5282,-4.5339,-4.5571,-4.568,-4.5699,-4.5699,-4.5757,-4.5815,-4.5827,-4.5791,-4.5699,-4.5693,-4.5757,-4.5832,-4.5843,-4.5868,-4.5907,-4.5907,-4.5907,-4.5907,-4.5907,-4.5868,-4.5819,-4.583,-4.5776,-4.5699,-4.5699,-4.5699,-4.5699,-4.5699,-4.5776,-4.583,-4.5838,-4.5868,-4.5907,-4.5907,-4.5907,-4.5901,-4.5965,-4.4523,-4.3622,-4.4583,-4.4012,-4.3442,-4.3473,-4.3942,-4.3788,-4.2292,-4.2399,-4.1628,-3.906,-3.8038,-3.6742,-3.4805,-3.4376,-3.3492,-3.1796,-3.2163,-3.1881,-3.0618,-3.1058,-3.1302,-3.1237,-3.1175,-3.1793,-3.3081,0.0,0.0,0.0,0.0,0.0,0.0,0.0,0.0,0.0,0.0,0.0,0.0,0.0,0.0,0.0,0.0,0.0,0.0,0.0,0.0,0.0,0.0,0.0,-3.7997,-3.9889,-3.9995,-3.6093,-3.7984,-3.8845,-3.6988,-3.8061,-3.9447,-4.0797,-4.1895,-4.2734,-4.3271,-4.4134,-4.4624,-4.4624,-4.465,-4.4631,-4.4631,-4.4943,-4.5137,-4.5137,-4.5457,-4.568,-4.5796,-4.5813,-4.5832,-4.589,-4.589,-4.5909,-4.5907,-4.5914,-4.5909,-4.592,-4.5896,-4.5909,-4.5905,-4.5906,-4.5918,-4.5907,-4.5907,-4.5907,-4.5907,-4.5907,-4.5907,-4.591,-4.5901,-4.5907,-4.589,-4.589,-4.589,-4.589,-4.589,-4.5909,-4.5896,-4.591,-4.5899,-4.5907,-4.5907,-4.5907,-4.5938,-4.6073,-4.6002,-4.5677,-4.4954,-4.5522,-4.5506,-4.3899,-4.5,0.0,-4.2461,-4.2925,-4.2541,-3.9971,-3.9076,-3.7617,-3.498,-3.5547,-3.4534,-3.0987,-3.2336,-3.2439,-3.0621,-3.2097,-3.2923,-3.284,-3.2709,-3.2889,-3.3353,0.0,0.0,0.0,0.0,0.0,0.0,0.0,0.0,0.0,0.0,0.0,0.0,0.0,0.0,0.0,0.0,0.0,0.0,0.0,0.0,0.0,-4.016,-4.1806,-4.1351,-4.1926,-4.2016,-4.0887,-4.1234,-4.0952,-3.9462,-4.0237,-4.0848,-4.0906,-4.2243,-4.3132,-4.3284,-4.4374,-4.4966,-4.4966,-4.5201,-4.5322,-4.5322,-4.5515,-4.5611,-4.5611,-4.576,-4.5834,-4.5853,-4.5867,-4.5886,-4.5906,-4.5906,-4.5957,-4.6063,-4.6044,-4.6106,-4.6171,-4.5977,-4.5963,-4.6044,-4.6044,-4.6115,-4.6198,-4.6198,-4.6198,-4.6198,-4.6198,-4.6119,-4.6058,-4.605,-4.5979,-4.5906,-4.5906,-4.5906,-4.5906,-4.5906,-4.596,-4.6042,-4.604,-4.6122,-4.6198,-4.6198,-4.6195,-4.6201,-4.6227,-4.6139,-4.602,-4.5916,-4.5553,-4.5145,-4.4687,-4.4473,-4.3866,-4.249,-4.1953,-4.1201,-3.9838,-4.0,-3.9162,-3.6587,-3.6582,-3.5524,-3.2698,-3.2318,-3.1973,-3.1455,-3.184,-3.1962,-3.1742,-3.2867,-3.3175,0.0,0.0,0.0,0.0,0.0,0.0,0.0,0.0,0.0,0.0,0.0,0.0,0.0,0.0,0.0,0.0,0.0,0.0,0.0,0.0,0.0,0.0,-4.1631,-4.2987,-4.3664,-4.3483,-4.3125,-4.2668,-4.2415,-4.1917,-4.0952,-4.1417,-4.1907,-4.2155,-4.314,-4.389,-4.4252,-4.4993,-4.5399,-4.5399,-4.561,-4.5738,-4.5738,-4.5796,-4.5841,-4.5833,-4.5872,-4.5935,-4.5986,-4.5988,-4.6018,-4.6075,-4.6075,-4.6118,-4.6171,-4.6175,-4.6222,-4.6289,0.0,0.0,0.0,0.0,-4.6228,-4.6308,-4.6308,-4.6308,-4.6308,-4.6308,-4.625,-4.6172,-4.6172,-4.6139,-4.6075,-4.6075,-4.6075,-4.6075,-4.6075,-4.6078,-4.6095,-4.6095,-4.6113,-4.612,-4.612,-4.6131,-4.6139,-4.6131,-4.6069,0.0,-4.6119,-4.5718,-4.5379,-4.5379,-4.466,-4.3801,-4.2923,-4.2021,-4.1119,-4.0254,-3.9921,-3.901,-3.7151,-3.6998,0.0,0.0,0.0,-3.3224,-3.2833,-3.2776,0.0,0.0,0.0,-3.354,-3.3023,-3.3961,0.0,0.0,-3.5013,-3.5526,0.0,0.0,0.0,0.0,0.0,0.0,0.0,0.0,0.0,0.0,0.0,0.0,0.0,0.0,0.0,0.0,-4.3595,-4.3767,-4.5214,-4.4785,-4.3899,-4.264,-4.2481,-4.2327,-4.1838,-4.219,-4.2848,-4.3821,-4.423,-4.4778,-4.5566,-4.5738,0.0,0.0,0.0,-4.5902,-4.5902,-4.5909,-4.5931,-4.592,-4.5935,-4.5997,-4.6117,-4.6117,-4.6183,-4.6308,-4.6308,-4.6308,-4.6307,-4.6309,-4.6279,-4.6282,-4.6289,-4.6308,-4.6308,-4.6308,-4.6287,-4.628,-4.628,0.0,0.0,-4.6248,-4.6248,-4.6248,-4.6248,-4.6248,-4.6248,-4.6248,-4.6248,-4.6248,-4.6248,-4.618,-4.6075,-4.6082,-4.5996,-4.5901,-4.5901,-4.5901,-4.5901,-4.5901,-4.5901,-4.5894,-4.5883,-4.5893,-4.5881,-4.5784,-4.5074,-4.4228,-4.3372,-4.2488,-4.1653,-4.0877,0.0,0.0,-3.7187,-3.7108,-3.5963,-3.3307,-3.4578,-3.5072,-3.4218,-3.4295,-3.4539,-3.4952,-3.4282,-3.3998,-3.4069,-3.3705,-3.3921,-3.4653,-3.5283,-3.6051,0.0,0.0,0.0,0.0,0.0,0.0,0.0,0.0,0.0,0.0,0.0,0.0,0.0,0.0,0.0,-4.4684,-4.5615,-4.6299,-4.6694,-4.66,-4.5801,-4.3899,-4.367,-4.3469,-4.3024,-4.3914,-4.4347,-4.3937,-4.4805,-4.547,-4.5757,-4.5796,-4.5808,-4.588,-4.588,-4.5899,-4.5899,-4.6012,-4.6059,-4.6063,-4.6164,0.0,-4.6264,-4.6264,-4.6278,-4.6308,-4.6308,-4.6308,-4.6307,-4.631,-4.624,-4.6158,-4.6257,-4.6308,-4.6308,-4.6308,-4.6228,-4.6129,-4.6129,-4.6072,-4.5981,-4.5981,-4.5981,-4.5981,-4.5981,-4.5981,0.0,-4.5981,-4.5981,-4.5981,-4.5981,-4.5957,-4.5941,-4.5938,-4.5921,-4.5893,-4.5893,-4.5893,-4.5893,-4.5893,-4.5854,-4.5819,-4.5832,-4.5863,-4.568,-4.5028,-4.4195,-4.3342,-4.2463,-4.1542,-4.0921,-4.0735,-4.095,-4.0219,-3.8012,-3.7815,-3.6699,-3.4122,-3.4289,-3.4385,-3.4199,-3.4872,-3.4865,-3.4069,-3.4587,-3.4321,-3.3231,-3.4062,-3.4402,-3.4311,-3.5571,-3.6415,0.0,0.0,0.0,0.0,0.0,0.0,0.0,0.0,0.0,0.0,0.0,-4.4011,-4.4339,0.0,-4.6792,-4.8014,-4.8263,-4.8314,-4.8333,-4.8021,-4.7202,-4.5735,-4.5537,-4.5339,-4.4849,-4.5354,-4.5428,-4.4806,-4.534,-4.5738,-4.5796,-4.5911,-4.5973,-4.599,-4.6064,-4.6108,-4.6108,-4.6169,-4.6191,-4.6199,-4.6209,-4.6191,-4.6199,-4.6137,-4.6108,-4.6108,-4.6108,-4.6108,-4.6099,-4.6113,-4.6066,-4.602,-4.6072,-4.6098,-4.6108,-4.6108,-4.606,-4.5996,-4.6015,-4.5963,-4.5893,-4.5893,-4.5893,-4.5893,-4.5893,-4.5893,-4.5893,-4.5893,-4.5893,-4.5893,-4.5893,-4.5874,-4.5852,-4.5847,-4.5796,-4.5757,-4.5757,-4.5757,-4.5757,-4.5757,-4.5719,-4.5699,-4.5699,-4.5738,-4.5605,-4.522,-4.4066,-4.3102,-4.2675,-4.1428,-4.06,-4.06,-4.0566,-4.0027,-3.8757,-3.7853,-3.6622,-3.4968,-3.4731,-3.4653,-3.4653,-3.4926,-3.4824,-3.4262,-3.468,-3.4468,-3.3604,-3.4173,-3.4357,-3.4218,-3.5381,-3.6197,0.0,0.0,0.0,0.0,0.0,0.0,0.0,-4.4787,-4.4174,-4.5017,-4.6148,-4.7184,-4.7798,-4.8735,-4.9924,-5.1434,-5.0824,-5.0201,-5.0312,-4.9789,-4.9105,-4.8441,-4.7662,-4.7074,-4.6729,-4.6541,-4.6356,-4.6163,-4.595,-4.5988,-4.6352,-4.6371,-4.6362,-4.638,-4.6509,-4.6465,-4.6308,-4.6308,-4.6286,-4.6261,-4.6138,-4.6084,-4.6063,-4.5951,-4.5899,-4.5899,-4.5899,-4.5899,-4.5899,-4.588,-4.5874,-4.5873,-4.5853,-4.5849,-4.5841,-4.588,-4.588,-4.5867,-4.5873,-4.5853,-4.5834,-4.5834,-4.5834,-4.5834,-4.5834,-4.5834,-4.5834,-4.5834,-4.5834,-4.5834,-4.5834,-4.5796,-4.5757,-4.5757,-4.568,-4.5586,-4.5586,-4.5586,-4.5586,-4.5586,-4.5586,-4.5586,-4.5586,-4.5586,-4.5586,-4.5586,-4.4316,-4.3278,-4.3124,-4.172,-4.0681,-4.0508,-3.9912,-3.9435,-3.9215,-3.7755,-3.6477,-3.5641,-3.5522,-3.5417,-3.5264,-3.5191,-3.5088,-3.4939,-3.4939,-3.468,-3.42,-3.42,-3.4152,-3.4141,-3.4907,-3.5654,-4.3665,-4.3432,-4.4371,-4.8316,-4.7617,-4.7187,0.0,-5.1462,-5.0464,-5.1385,-5.1607,-5.1626,-5.1529,-5.1393,-5.1661,-5.2815,-5.2571,-5.2442,-5.2907,-5.2911,-5.2834,-5.2876,-4.9704,-4.7687,-4.803,-4.7395,-4.7278,-4.8101,-4.6756,-4.6621,-4.8291,-4.7658,-4.732,-4.743,-4.744,-4.707,-4.6308,-4.6308,-4.6245,-4.6117,-4.6116,-4.6046,-4.5911,-4.5905,-4.5902,-4.5902,-4.5902,-4.5902,-4.5902,-4.5844,-4.5811,-4.5796,-4.568,-4.562,-4.5671,-4.5825,-4.5863,-4.5806,-4.5813,-4.5738,-4.5624,-4.5624,-4.5624,-4.5624,-4.5624,-4.5624,-4.5624,-4.5624,-4.5624,-4.5624,-4.5624,-4.5624,-4.5605,-4.5605,-4.5605,-4.5586,-4.5586,-4.5586,-4.5586,-4.5586,-4.5586,-4.5586,-4.5586,-4.5586,-4.5586,-4.5586,-4.4778,-4.3912,-4.3181,-4.2258,-4.1354,-4.0566,-4.0412,-3.9948,-3.8936,-3.7964,-3.6957,-3.5908,-3.6507,-3.6562,-3.5828,-3.6484,-3.65,-3.5786,-3.5767,-3.5243,-3.42,-3.42,-3.4093,-3.3868,-3.421,-3.4929,-4.4461,-4.567,-4.7201,-4.874,-4.9428,-5.0318,-5.2596,-5.2461,-5.2126,-5.3111,-5.36,-5.3823,-5.3751,-5.403,-5.4414,-5.4857,-5.4789,-5.4614,-5.4297,-5.4276,-5.3911,-5.2956,-5.1814,-5.0797,-5.0009,-4.9135,-4.86,-4.8509,-4.7886,-4.7869,-4.8658,-4.8425,-4.8304,-4.8359,-4.8359,-4.7949,-4.707,-4.6989,-4.6649,-4.6103,-4.5988,-4.5911,-4.5834,-4.5757,-4.5738,-4.5738,-4.5738,-4.5738,-4.5719,-4.5699,-4.568,-4.568,-4.5605,-4.5586,-4.5605,-4.5699,-4.5719,-4.568,-4.568,-4.5643,-4.5586,-4.5586,-4.5586,-4.5586,-4.5586,-4.5586,-4.5586,-4.5586,-4.5586,-4.5586,-4.5586,-4.5586,-4.5586,-4.5586,-4.5586,-4.5586,-4.5586,-4.5586,-4.5586,-4.5586,-4.5438,-4.5322,-4.5322,-4.514,-4.5011,-4.5011,-4.4614,-4.411,-4.358,-4.2757,-4.182,-4.0764,-4.025,-3.9581,-3.8603,-3.8184,-3.7553,-3.6651,-3.6775,-3.6713,-3.6381,-3.6547,-3.6482,-3.6147,-3.5627,-3.5143,-3.4663,-3.4201,-3.3902,-3.3788,-3.391,-3.4463,-4.4782,-4.6549,-4.8161,-4.8837,-5.0568,-5.229,-5.3006,-5.3274,-5.3598,-5.4355,-5.4935,-5.5314,-5.5314,-5.5835,-5.6233,-5.621,-5.6212,-5.5924,-5.5068,-5.4967,-5.4414,-5.2942,-5.3108,-5.2958,-5.1991,-5.1091,-5.0303,-4.9692,-4.9323,-4.9207,-4.9433,-4.9328,-4.9232,-4.9201,-4.9196,-4.8649,-4.7506,-4.7395,-4.6908,-4.6026,-4.5873,-4.5776,-4.5738,-4.5624,-4.5586,-4.5586,-4.5586,-4.5586,-4.5586,-4.5586,-4.5586,-4.5586,-4.5586,-4.5586,-4.5586,-4.5495,-4.5513,-4.5586,-4.5586,-4.5586,-4.5586,-4.5586,-4.5586,-4.5586,-4.5586,-4.5586,-4.5586,-4.5586,-4.5586,-4.5586,-4.5495,-4.5457,-4.5438,-4.5342,-4.5303,-4.5303,-4.5303,-4.5303,-4.5303,-4.5303,-4.5118,-4.4966,-4.4966,-4.4757,-4.458,-4.458,-4.4497,-4.4209,-4.3729,-4.2886,-4.1942,-4.0896,-4.0273,-3.9552,-3.8611,-3.8512,-3.8145,-3.7261,-3.724,-3.7145,-3.6922,-3.6961,-3.6853,-3.6633,-3.6009,-3.5587,-3.5367,-3.4541,-3.4137,-3.4137,-3.3899,-3.4119,-4.4178,-4.4688,-4.5615,-4.9314,-5.0933,-5.2164,-5.4339,-5.5471,-5.6141,-5.6286,-5.6347,-5.6347,-5.6347,-5.6386,-5.6351,-5.6222,-5.62,-5.5935,-5.5208,-5.5088,-5.4822,-5.403,-5.3225,-5.3035,-5.3822,-5.2993,-5.2471,-5.2555,-5.1074,-5.0488,-5.1288,-5.0586,-5.0107,-4.997,-4.9971,-4.9077,-4.722,-4.7211,-4.6736,-4.5815,-4.5796,-4.5738,-4.5605,-4.5586,-4.5586,-4.5586,-4.5586,-4.5586,-4.5586,-4.5586,-4.5586,-4.5586,-4.5586,-4.5586,-4.5568,-4.5243,-4.5322,-4.5586,-4.5586,-4.5586,-4.5586,-4.5586,-4.5586,-4.5586,-4.5586,-4.5586,-4.5586,-4.5586,-4.5586,-4.5532,-4.5201,-4.5137,-4.503,-4.4726,-4.4631,-4.4631,-4.4631,-4.4631,-4.4631,-4.4631,-4.4606,-4.4624,-4.4624,-4.4624,-4.458,-4.458,-4.4587,-4.4266,-4.3429,-4.2555,-4.1701,-4.089,-4.0777,-4.0322,-3.9171,-3.9088,-3.8609,-3.7537,-3.8224,-3.8297,-3.7507,-3.8212,-3.8267,-3.7489,-3.7452,-3.7037,-3.6266,-3.5404,-3.4954,-3.4935,-3.4174,-3.3807,-4.3193,-4.4233,-4.5679,-4.832,-4.9792,-5.1108,-5.3063,-5.4381,-5.5241,-5.538,-5.4938,-5.4546,-5.4546,-5.4548,-5.4534,-5.4482,-5.4962,-5.5245,-5.5,-5.4471,-5.3808,-5.2973,-5.3123,-5.3193,-5.289,-5.2195,-5.2025,-5.2656,-5.1565,-5.0985,-5.1237,-5.0975,-5.0789,-5.0733,-5.0171,-4.9294,-4.8071,-4.7448,-4.6692,-4.5796,-4.5719,-4.5624,-4.5586,-4.5586,-4.5586,-4.5586,-4.5586,-4.5586,-4.5586,-4.5586,-4.5476,-4.5282,-4.5282,-4.514,-4.4919,-4.4806,-4.4849,-4.4966,-4.5201,-4.5419,-4.5586,-4.5586,-4.5586,-4.5568,-4.5342,-4.5282,-4.5222,-4.4988,-4.4943,-4.4919,-4.48,-4.4776,-4.4751,-4.465,-4.458,-4.458,-4.458,-4.458,-4.458,-4.458,-4.4373,-4.4204,-4.4204,-4.4035,-4.3868,-4.3868,-4.4046,-4.4111,-4.3801,-4.2839,-4.1878,-4.1082,-4.0537,-3.9811,-3.8918,-3.8844,-3.8693,-3.8303,-3.856,-3.8579,-3.8303,-3.856,-3.8579,-3.8303,-3.7753,-3.7349,-3.7074,-3.6266,-3.5569,-3.5009,-3.533,-3.5147,-4.2754,-4.3849,-4.522,-4.7526,-4.8683,-4.9822,-5.1832,-5.2938,-5.367,-5.4237,-5.3674,-5.3081,-5.3157,-5.3178,-5.3081,-5.2762,-5.3191,-5.3534,-5.354,-5.2803,-5.2149,-5.1897,-5.2363,-5.2596,-5.2324,-5.1697,-5.1648,-5.2491,-5.1956,-5.1462,-5.1183,-5.0825,-5.0604,-5.0565,-4.9724,-4.8835,-4.7932,-4.7335,-4.6584,-4.5738,-4.5624,-4.5586,-4.5586,-4.5586,-4.5586,-4.5586,-4.5586,-4.5586,-4.5586,-4.5586,-4.54,-4.5096,-4.5096,-4.4896,-4.458,-4.4447,-4.4474,-4.4631,-4.4849,-4.5055,-4.5243,-4.5243,-4.5243,-4.5203,-4.4988,-4.4919,-4.4872,-4.4657,-4.458,-4.4553,-4.4401,-4.4392,-4.4364,-4.4242,-4.4213,-4.4213,-4.4213,-4.4213,-4.4213,-4.4213,-4.4004,-4.3836,-4.3836,-4.3646,-4.3497,-4.3497,-4.366,-4.3836,-4.3836,-4.317,-4.2415,-4.1625,-4.1075,-4.0322,-3.9221,-3.9129,-3.9019,-3.8726,-3.8707,-3.8707,-3.8707,-3.8707,-3.8707,-3.8707,-3.8193,-3.7918,-3.7918,-3.711,-3.6285,-3.5477,-3.5734,-3.5385,-4.28,-4.3461,-4.4168,-4.695,-4.7658,-4.8302,-5.064,-5.1228,-5.1648,-5.2929,-5.251,-5.1953,-5.2141,-5.222,-5.1991,-5.1203,-5.1106,-5.1145,-5.1203,-5.0433,-5.0144,-5.0933,-5.1049,-5.1356,-5.2088,-5.1511,-5.1402,-5.2172,-5.2232,-5.191,-5.1126,-5.0298,-4.9778,-4.9586,-4.8739,-4.7835,-4.6913,-4.6855,-4.6413,-4.5586,-4.5586,-4.5586,-4.5586,-4.5586,-4.5586,-4.5586,-4.5586,-4.5586,-4.5586,-4.5586,-4.54,-4.5096,-4.5052,-4.4849,-4.4527,-4.4117,-4.4223,-4.4527,-4.4527,-4.4553,-4.458,-4.458,-4.458,-4.4599,-4.458,-4.4553,-4.4572,-4.4553,-4.4527,-4.4447,-4.4058,-4.3986,-4.3893,-4.3563,-4.3497,-4.3497,-4.3497,-4.3497,-4.3497,-4.3497,-4.3497,-4.3497,-4.3497,-4.3497,-4.3497,-4.3497,-4.3497,-4.3497,-4.3497,-4.3497,-4.3185,-4.2396,-4.2304,-4.1644,-4.0029,-3.99,-3.9551,-3.8762,-3.8707,-3.8707,-3.8707,-3.8707,-3.8726,-3.8762,-3.8726,-3.8726,-3.8762,-3.7936,-3.7147,-3.634,-3.5514,-3.4706,-4.2286,-4.3039,-4.3807,-4.516,-4.5723,-4.6307,-4.7786,-4.8859,-4.9713,-5.0297,-4.974,-4.9125,-4.9181,-4.972,-5.0298,-5.0741,-5.1299,-5.1934,-5.2568,-5.1395,-5.0317,-4.9875,-5.0394,-5.0645,-5.0183,-5.0548,-5.0875,-5.1078,-5.1211,-5.1178,-5.0952,-5.0645,-5.0163,-4.9471,-4.8606,-4.774,-4.6913,-4.6259,-4.5817,-4.5586,-4.5586,-4.5586,-4.5586,-4.5586,-4.5586,-4.5586,-4.5586,-4.5586,-4.5586,-4.5322,-4.518,-4.5052,-4.4508,-4.4233,-4.4106,-4.3758,-4.3679,-4.3758,-4.3758,-4.4154,-4.458,-4.458,-4.458,-4.4553,-4.4233,-4.4146,-4.4106,-4.3836,-4.3758,-4.3758,-4.3646,-4.3631,-4.3597,-4.3513,-4.3497,-4.3497,-4.3497,-4.3497,-4.3497,-4.3497,-4.3497,-4.3497,-4.3497,-4.3497,-4.3497,-4.3497,-4.3497,-4.3497,-4.3497,-4.3497,-4.3185,-4.2396,-4.2304,-4.1644,-4.0029,-3.99,-3.9551,-3.8762,-3.8707,-3.8707,-3.8707,-3.8707,-3.8982,-3.957,-3.9019,-3.9001,-3.9588,-3.8781,-3.7973,-3.7184,-3.6964,-3.6431,-4.1486,-4.2103,-4.2635,-4.3461,-4.3812,-4.4283,-4.5461,-4.6679,-4.7634,-4.8005,-4.7799,-4.7567,-4.7567,-4.8259,-4.8818,-4.8774,-4.9444,-5.0205,-5.0913,-4.9897,-4.9056,-4.8923,-4.9343,-4.9526,-4.9194,-4.9618,-5.012,-5.0664,-5.076,-5.0818,-5.0818,-5.001,-4.9336,-4.8836,-4.8009,-4.7355,-4.6913,-4.6028,-4.5586,-4.5586,-4.5586,-4.5586,-4.5586,-4.5586,-4.5586,-4.5586,-4.5586,-4.5586,-4.5568,-4.5243,-4.5011,-4.4806,-4.4233,-4.3893,-4.3758,-4.3563,-4.3497,-4.3497,-4.3497,-4.3758,-4.4125,-4.4125,-4.4125,-4.4065,-4.3868,-4.3772,-4.3758,-4.3529,-4.3497,-4.3497,-4.3497,-4.3497,-4.3497,-4.3497,-4.3497,-4.3497,-4.3497,-4.3497,-4.3497,-4.3497,-4.3497,-4.3497,-4.3497,-4.3497,-4.3497,-4.3497,-4.3497,-4.3497,-4.3497,-4.3497,-4.3185,-4.2396,-4.2304,-4.1644,-4.0029,-4.0212,-3.9937,-3.8781,-3.9038,-3.9074,-3.8707,-3.8707,-3.8909,-3.935,-3.8927,-3.8927,-3.9368,-3.8927,-3.8175,-3.713,-3.6814,-3.6285,-4.0638,-4.0994,-4.1192,-4.1974,-4.2213,-4.2566,-4.3558,-4.4665,-4.5597,-4.5993,-4.634,-4.6586,-4.6721,-4.7394,-4.7665,-4.6863,-4.7156,-4.7781,-4.8521,-4.7768,-4.7438,-4.8211,-4.8287,-4.8386,-4.8629,-4.87,-4.9178,-5.0314,-5.0316,-5.0413,-5.0683,-4.9163,-4.8163,-4.7952,-4.7163,-4.674,-4.674,-4.597,-4.5586,-4.5586,-4.5586,-4.5586,-4.5586,-4.5586,-4.5568,-4.5531,-4.5531,-4.5513,-4.5438,-4.5096,-4.4806,-4.4553,-4.4106,-4.3772,-4.3563,-4.3513,-4.3497,-4.3497,-4.3497,-4.3497,-4.3497,-4.3497,-4.3497,-4.3497,-4.3497,-4.3497,-4.3497,-4.3497,-4.3497,-4.3497,-4.3497,-4.3497,-4.3497,-4.3497,-4.3497,-4.3497,-4.3497,-4.3497,-4.3497,-4.3497,-4.3497,-4.3497,-4.3497,-4.3497,-4.3497,-4.3497,-4.3497,-4.3497,-4.3497,-4.3497,-4.3222,-4.2525,-4.2451,-4.1846,-4.0341,-4.0873,-4.0579,-3.8964,-3.9515,-3.9533,-3.8726,-3.8707,-3.8762,-3.8854,-3.8762,-3.8762,-3.8854,-3.8682,-3.8004,-3.6831,-3.6038,-3.5413,-4.0095,-4.0437,-4.0598,-4.1159,-4.1809,-4.2253,-4.2076,-4.2929,-4.385,-4.4255,-4.4557,-4.497,-4.5682,-4.6528,-4.7491,-4.8664,-4.8135,-4.8338,-5.0456,-4.9216,-4.8089,-4.8221,-4.8287,-4.805,-4.7405,-4.7623,-4.8081,-4.8674,-4.8348,-4.8905,-5.0606,-4.9721,-4.8548,-4.7163,-4.6278,-4.5817,-4.5817,-4.5682,-4.5586,-4.5586,-4.5586,-4.5586,-4.5586,-4.5586,-4.5438,-4.5201,-4.5201,-4.503,-4.4732,-4.4346,-4.4346,-4.4527,-4.3836,-4.3726,-4.3881,-4.3597,-4.3497,-4.3497,-4.3497,-4.3497,-4.3497,-4.3497,-4.3497,-4.3497,-4.3497,-4.3497,-4.3497,-4.3497,-4.3497,-4.3497,-4.3497,-4.3497,-4.3497,-4.3497,-4.3497,-4.3497,-4.3497,-4.3497,-4.3497,-4.3497,-4.3497,-4.3497,-4.3497,-4.3497,-4.3497,-4.3497,-4.3497,-4.3497,-4.3497,-4.3497,-4.3442,-4.3296,-4.3277,-4.291,-4.1956,-4.2011,-4.1405,-3.979,-3.9808,-3.9533,-3.8726,-3.8707,-3.9019,-3.968,-3.9038,-3.9038,-3.968,-3.8576,-3.7907,-3.7677,-3.6417,-3.6165,-3.8342,-3.8383,-3.8385,-3.9726,-4.0063,-4.0196,-4.0597,-4.1744,-4.261,-4.2382,-4.3044,-4.3797,-4.422,-4.497,-4.5724,-4.6338,-4.671,-4.7362,-4.8589,-4.83,-4.791,-4.7653,-4.7281,-4.6981,-4.6765,-4.6553,-4.6758,-4.7616,-4.7472,-4.8038,-4.963,-4.8683,-4.774,-4.6932,-4.6047,-4.5817,-4.6278,-4.5817,-4.5586,-4.5586,-4.5586,-4.5586,-4.5586,-4.5419,-4.5243,-4.5096,-4.4919,-4.4751,-4.4553,-4.4165,-4.4117,-4.4252,-4.3712,-4.3597,-4.3726,-4.3563,-4.3497,-4.3497,-4.3497,-4.3497,-4.3497,-4.3497,-4.3497,-4.3497,-4.3497,-4.3497,-4.3497,-4.3497,-4.3497,-4.3497,-4.3497,-4.3497,-4.3497,-4.3497,-4.3497,-4.3497,-4.3497,-4.3497,-4.3497,-4.3497,-4.3497,-4.3497,-4.3497,-4.3497,-4.3497,-4.3497,-4.3497,-4.341,-4.3142,-4.3087,-4.3014,-4.2876,-4.2873,-4.2543,-4.1754,-4.2066,-4.1791,-4.0598,-4.0524,-4.0157,-3.935,-3.8927,-3.8891,-3.9276,-3.9313,-3.9313,-3.9276,-3.8782,-3.8186,-3.7488,-3.6209,-3.5854,-3.6496,-3.6233,-3.6103,-3.797,-3.8239,-3.8207,-3.9031,-4.0579,-4.1599,-4.0816,-4.1799,-4.2874,-4.3066,-4.3624,-4.3997,-4.3845,-4.4753,-4.5683,-4.6202,-4.6643,-4.6891,-4.6838,-4.614,-4.5751,-4.6085,-4.5469,-4.5473,-4.6515,-4.6657,-4.7133,-4.8104,-4.7274,-4.6704,-4.6532,-4.5933,-4.5932,-4.6605,-4.5932,-4.5586,-4.5586,-4.5513,-4.5495,-4.5495,-4.5159,-4.4943,-4.4853,-4.4606,-4.4419,-4.4337,-4.4016,-4.3912,-4.3881,-4.3597,-4.3497,-4.3497,-4.3497,-4.3497,-4.3497,-4.3497,-4.3497,-4.3497,-4.3497,-4.3497,-4.3497,-4.3497,-4.3497,-4.3497,-4.3497,-4.3497,-4.3497,-4.3497,-4.3497,-4.3497,-4.3497,-4.3497,-4.3497,-4.3497,-4.3497,-4.3497,-4.3497,-4.3497,-4.3444,-4.3339,-4.3339,-4.3286,-4.316,-4.3142,-4.2995,-4.2559,-4.2519,-4.2441,-4.2213,-4.2318,-4.2116,-4.1494,-4.2127,-4.2213,-4.1423,-4.1203,-4.0744,-3.9918,-3.9294,-3.8964,-3.8964,-3.9753,-3.9753,-3.8964,-3.9055,-3.8492,-3.7305,-3.6211,-3.5721,-3.5385,-3.5018,-3.4772,-3.6076,-3.7179,-3.7817,-3.7133,-3.9044,-4.0707,-3.9966,-4.0941,-4.2162,-4.2951,-4.3162,-4.3451,-4.4128,-4.3465,-4.3555,-4.5572,-4.498,-4.4744,-4.5865,-4.5296,-4.48,-4.4871,-4.4429,-4.4326,-4.4867,-4.5199,-4.5581,-4.6048,-4.624,-4.6018,-4.5292,-4.5477,-4.5624,-4.572,-4.5624,-4.5586,-4.5605,-4.5302,-4.5159,-4.5118,-4.48,-4.4447,-4.4087,-4.4058,-4.3881,-4.3597,-4.3563,-4.3548,-4.3548,-4.3513,-4.3497,-4.3497,-4.3497,-4.3497,-4.3497,-4.3497,-4.3497,-4.3497,-4.3497,-4.3497,-4.3497,-4.3497,-4.3497,-4.3497,-4.3497,-4.3497,-4.3497,-4.3497,-4.3497,-4.3497,-4.3497,-4.3497,-4.3497,-4.3497,-4.3497,-4.3497,-4.3497,-4.3497,-4.3339,-4.2864,-4.2788,-4.2598,-4.2062,-4.1979,-4.1937,-4.1895,-4.1895,-4.186,-4.1831,-4.2315,-4.2643,-4.2571,-4.3068,-4.3039,-4.2249,-4.1515,-4.0744,-3.9918,-3.9827,-3.979,-3.979,-4.0579,-4.0598,-3.979,-3.9327,-3.8651,-3.7825,-3.7288,-3.6773,-3.3948,-3.4056,-3.4125,-3.5385,-3.5518,-3.561,-3.6476,-3.7683,-3.8678,-3.889,-4.0024,-4.1123,-4.147,-4.1527,-4.1643,-4.195,-4.2482,-4.3254,-4.444,-4.4893,-4.5372,-4.6116,-4.5291,-4.4709,-4.4709,-4.411,-4.3793,-4.3938,-4.4091,-4.4272,-4.4395,-4.4952,-4.5122,-4.48,-4.4943,-4.4988,-4.4988,-4.4988,-4.4988,-4.4988,-4.4872,-4.48,-4.48,-4.4401,-4.4146,-4.3986,-4.3772,-4.3612,-4.3497,-4.3497,-4.3497,-4.3497,-4.3497,-4.3497,-4.3497,-4.3497,-4.3497,-4.3497,-4.3497,-4.3497,-4.3497,-4.3497,-4.3497,-4.3497,-4.3497,-4.3497,-4.3497,-4.3497,-4.3497,-4.3497,-4.3497,-4.3497,-4.3497,-4.3497,-4.3497,-4.3497,-4.3497,-4.3497,-4.3497,-4.3497,-4.325,-4.2939,-4.275,-4.2382,-4.208,-4.1853,-4.181,-4.1664,-4.1296,-4.1268,-4.1133,-4.0814,-4.1913,-4.2711,-4.2711,-4.3178,-4.3351,-4.3039,-4.2268,-4.168,-4.135,-4.0891,-4.0616,-4.0616,-4.0946,-4.0708,-3.99,-3.9345,-3.8704,-3.7911,-3.7433,-3.7114,-3.2533,-3.2965,-3.3403,-3.4326,-3.4249,-3.4339,-3.5789,-3.6639,-3.7341,-3.7926,-3.9184,-4.0219,-4.045,-4.0489,-4.0489,0.0,0.0,-4.2808,-4.3037,-4.4202,-4.5134,-4.532,-4.4731,-4.436,-4.436,-4.3828,-4.3497,-4.3497,-4.3497,-4.3497,-4.3497,-4.3974,-4.4308,-4.4419,-4.4527,-4.458,-4.458,-4.458,-4.458,-4.458,-4.4474,-4.4401,-4.4419,-4.4016,-4.3849,-4.3818,-4.3597,-4.3497,-4.3497,-4.3497,-4.3497,-4.3497,-4.3497,-4.3497,-4.3497,-4.3497,-4.3497,-4.3497,-4.3497,-4.3497,-4.3497,-4.3497,-4.3497,-4.3497,-4.3497,-4.3497,-4.3497,-4.3497,-4.3497,-4.3497,-4.3497,-4.3497,-4.3497,-4.3497,-4.3497,-4.3497,-4.3497,-4.3497,-4.3497,-4.3497,-4.3214,-4.2808,-4.248,-4.208,-4.1682,-4.1331,-4.1286,-4.1196,-4.0949,-4.0903,-4.0827,-4.0642,-4.1871,-4.2616,-4.244,-4.3087,-4.3497,-4.3497,-4.2745,-4.2304,-4.2304,-4.1772,-4.146,-4.146,-4.1699,-4.1295,-4.0249,-3.9881,-3.9148,-3.8132,-3.7791,-3.756,-3.116,-3.1675,-3.2466,-3.2579,-3.3736,-3.4783,-3.473,-3.5964,-3.7112,-3.7211,-3.8325,-3.9546,-4.0335,-4.0489,-4.0489,-4.0489,-4.1239,0.0,-4.1359,-4.2484,-4.3198,-4.288,-4.3217,-4.3497,-4.3497,-4.3497,-4.3497,-4.3497,-4.3497,-4.3497,-4.3497,-4.3532,-4.3679,-4.4016,-4.4373,-4.458,-4.458,-4.458,-4.458,-4.4599,-4.4223,-4.4016,-4.3998,-4.3646,-4.3532,-4.3532,-4.3479,-4.3497,-4.3497,-4.3497,-4.3497,-4.3497,-4.3497,-4.3497,-4.3497,-4.3497,-4.3497,-4.3497,-4.3497,-4.3497,-4.3497,-4.3497,-4.3497,-4.3497,-4.3497,-4.3497,-4.3497,-4.3497,-4.3497,-4.3497,-4.3497,-4.3497,-4.3497,-4.3497,-4.3497,-4.3497,-4.3497,-4.3497,-4.3497,-4.3497,-4.3497,-4.3142,-4.2003,-4.1793,-4.142,-4.0303,-4.0121,-4.0286,-4.081,-4.0903,-4.1133,-4.1707,-4.2342,-4.248,-4.1853,-4.2847,-4.3497,-4.3497,-4.2745,-4.2304,-4.2304,-4.2286,-4.2286,-4.2286,-4.3057,-4.269,-4.1093,-4.106,-4.0267,-3.8707,-3.8676,-3.8382,-3.0625,-3.1354,-3.1991,-3.2034,-3.2603,-3.3299,-3.3829,-3.5184,-3.6512,-3.7079,-3.8763,-4.02,-4.045,-4.0489,-4.0489,-4.0489,-4.1239,-4.1975,-4.2464,-4.3172,-4.3809,-4.4302,-4.4055,-4.3943,-4.4242,-4.3791,-4.3597,-4.3818,-4.3612,-4.3497,-4.3497,-4.3497,-4.3548,-4.3646,-4.3791,-4.3855,-4.3855,-4.3855,-4.3855,-4.3855,-4.3744,-4.3646,-4.3646,-4.3548,-4.3497,-4.3497,-4.3497,-4.3497,-4.3497,-4.3497,-4.3497,-4.3497,-4.3497,-4.3497,-4.3497,-4.3497,-4.3497,-4.3497,-4.3497,-4.3497,-4.3497,-4.3497,-4.3497,-4.3497,-4.3497,-4.3497,-4.3497,-4.3497,-4.3497,-4.341,-4.305,-4.2939,-4.2939,-4.2939,-4.2939,-4.305,-4.341,-4.3497,-4.3497,-4.3497,-4.3214,-4.2846,-4.248,-4.2062,-4.1682,-4.1331,-4.1241,-4.1331,-4.149,-4.1534,-4.1578,-4.1768,-4.2342,-4.2616,-4.244,-4.3087,-4.3497,-4.3497,-4.2745,-4.2543,-4.3094,-4.2598,-4.2561,-4.3112,-4.2286,-4.1625,-4.1111,-4.001,-3.9203,-3.8707,-3.8707,-3.8627,-3.0057,-3.0903,-3.1716,-3.1456,-3.2039,-3.282,-3.344,-3.4825,-3.6116,-3.6747,-3.8567,-4.0046,-4.0046,-4.0296,-4.0489,-4.0489,-4.1508,-4.2374,-4.2585,-4.358,-4.4443,-4.4862,-4.4522,-4.4364,-4.4572,-4.4214,-4.402,-4.4204,-4.4035,-4.3899,-4.3899,-4.3758,-4.3693,-4.3693,-4.3582,-4.3497,-4.3497,-4.3497,-4.3497,-4.3497,-4.3497,-4.3497,-4.3497,-4.3497,-4.3497,-4.3497,-4.3497,-4.3497,0.0,-4.3497,-4.3497,-4.3497,-4.3497,-4.3497,-4.3497,-4.3497,-4.3497,-4.3497,-4.3497,-4.3497,-4.3497,-4.3497,-4.3497,-4.3497,-4.3497,-4.3497,-4.3444,-4.325,-4.3214,-4.3142,-4.2788,-4.2519,-4.248,-4.2902,-4.2864,-4.2864,-4.3375,-4.3497,-4.3497,-4.3497,-4.3214,-4.2939,-4.2732,-4.2382,-4.208,-4.1835,-4.181,-4.1895,-4.2121,-4.2121,-4.2203,-4.2444,-4.279,-4.3014,-4.3014,-4.3011,-4.3039,-4.3039,-4.258,-4.2653,-4.3461,-4.302,-4.2983,-4.3479,-4.2525,-4.1864,-4.1552,-3.9937,-3.9148,-3.9148,-3.8836,-3.8707,0.0,-3.0472,-3.1462,-3.0911,-3.1916,-3.3164,-3.346,-3.4769,0.0,-3.6251,-3.7849,-3.9219,-3.9277,-3.9912,-4.0431,-4.0508,-4.1931,-4.2758,-4.2027,-4.3771,-4.4982,-4.4554,-4.4648,-4.467,-4.4518,-4.464,-4.4697,-4.4663,-4.4612,-4.4606,-4.458,-4.4252,-4.4028,-4.4028,-4.3726,-4.3548,-4.3497,-4.3497,-4.3497,-4.3497,-4.3497,-4.3497,-4.3497,-4.3497,-4.3497,-4.3497,-4.3497,-4.3497,-4.3497,-4.3497,-4.3497,-4.3497,-4.3497,-4.3497,-4.3497,-4.3497,-4.3497,-4.3497,-4.3497,-4.3497,-4.3497,-4.3497,-4.3497,-4.3497,-4.3497,-4.3497,-4.341,-4.2902,-4.275,-4.275,-4.2711,-4.2302,-4.2144,-4.3196,-4.305,-4.2864,-4.3375,-4.3497,-4.3497,-4.3497,-4.3497,-4.3339,-4.2864,-4.275,-4.2559,-4.2021,-4.1937,-4.2103,-4.2693,-4.275,-4.2939,-4.3444,-4.3497,-4.3442,-4.3332,-4.269,-4.2304,-4.2304,-4.2249,-4.258,-4.3369,-4.3406,-4.3424,-4.3497,-4.3424,-4.302,-4.2213,-4.0653,-3.99,-3.9863,-3.9074,-3.8707,-3.0252,0.0,-3.0823,-3.1259,-3.2133,-3.3062,0.0,0.0,-3.6214,-3.6287,-3.737,-3.8507,-3.9234,-3.9484,-3.9815,-4.06,-4.1597,-4.2444,-4.2967,-4.4531,-4.5113,-4.3707,-4.4476,-4.4737,-4.3645,-4.4326,-4.4929,-4.5112,-4.4843,-4.4643,-4.4606,-4.4501,-4.4474,-4.4474,-4.4392,-4.4065,-4.3532,-4.3497,-4.3497,-4.3497,-4.3497,-4.3497,-4.3497,-4.3497,-4.3497,-4.3497,-4.3497,-4.3497,-4.3497,-4.3497,-4.3497,-4.3497,-4.3497,-4.3497,-4.3497,-4.3497,-4.3497,-4.3497,-4.3497,-4.3497,-4.3497,-4.3497,-4.3497,-4.3497,-4.3497,-4.3497,-4.3479,-4.3339,-4.3286,-4.3214,-4.2826,-4.2616,-4.2577,-4.2808,-4.2788,-4.2864,-4.3375,-4.3497,-4.3497,-4.3497,-4.3497,-4.3444,-4.3321,-4.3286,-4.325,-4.3105,-4.3105,-4.316,-4.3286,-4.3286,-4.3375,-4.3497,-4.3497,-4.3002,-4.1772,-4.2047,-4.2304,-4.2304,-4.1735,-4.1754,-4.2543,-4.258,-4.2873,-4.3479,-4.2892,-4.2194,-4.1387,-4.0377,-3.99,-3.9863,-3.9074,-3.8707,-3.1629,-3.1065,-3.0463,-3.0887,-3.1823,-3.2664,-3.2847,0.0,0.0,0.0,0.0,0.0,-3.8286,-3.893,-3.9625,-4.0154,-4.1589,-4.2962,-4.3866,-4.4414,-4.4473,-4.386,-4.4228,-4.4485,-4.4389,-4.5021,-4.5476,-4.5529,-4.5341,-4.5163,-4.5055,-4.4919,-4.4825,-4.4825,-4.4682,-4.4308,-4.3726,-4.3726,-4.3646,-4.3497,-4.3497,-4.3497,-4.3497,-4.3497,-4.3497,-4.3497,-4.3497,-4.3497,-4.3497,-4.3497,-4.3497,-4.3497,-4.3497,-4.3497,-4.3497,-4.3497,-4.3497,-4.3497,-4.3497,-4.3497,-4.3497,-4.3497,-4.3497,-4.3497,-4.3497,-4.3497,-4.3444,-4.3214,-4.3124,-4.3069,-4.2788,-4.248,-4.2422,-4.2921,-4.2902,-4.2864,-4.3375,-4.3497,-4.3497,-4.3497,-4.3497,-4.3497,-4.3497,-4.3497,-4.3497,-4.3497,-4.3497,-4.3497,-4.3497,-4.3497,-4.3497,-4.3497,-4.3497,-4.3002,-4.1772,-4.1717,-4.1754,-4.1754,-4.135,-4.1644,-4.28,-4.2837,-4.3057,-4.3479,-4.3057,-4.2635,-4.2194,-4.1387,-4.0818,-4.0432,-3.9625,-3.9239,-3.2579,-3.1605,-3.0412,-3.0682,-3.1544,-3.2248,-3.192,0.0,0.0,0.0,0.0,0.0,-3.7286,-3.8413,-3.9488,-3.9735,-4.1824,-4.3758,-4.4741,-4.425,-4.3919,-4.4299,-4.4118,-4.4365,-4.5363,-4.5876,-4.6033,-4.5831,-4.5823,-4.5757,-4.5605,-4.5322,-4.518,-4.518,-4.4896,-4.4504,-4.397,-4.4061,-4.3943,-4.3646,-4.3646,-4.3631,-4.3563,-4.3563,-4.3548,-4.3497,-4.3497,-4.3497,-4.3497,-4.3497,-4.3497,-4.3497,-4.3497,-4.3497,-4.3497,-4.3497,-4.3497,-4.3497,-4.3497,-4.3497,-4.3497,-4.3497,-4.3497,-4.3497,-4.3497,-4.3497,-4.341,-4.2939,-4.2826,-4.2826,-4.2826,-4.2462,-4.2306,-4.3267,-4.3124,-4.2939,-4.341,-4.3497,-4.3497,-4.3497,-4.3497,-4.3497,-4.3497,-4.3497,-4.3497,-4.3497,-4.3497,-4.3497,-4.3497,-4.3497,-4.3497,-4.3497,-4.3497,-4.3167,-4.2378,-4.168,-4.1295,-4.1295,-4.1056,-4.1644,-4.324,-4.3424,-4.3497,-4.3497,-4.3497,-4.3497,-4.3497,-4.269,-4.1956,-4.1277,-4.0469,-4.0084,-3.0925,-3.0773,-3.0921,-3.2461,-3.245,-3.2218,-3.2819,0.0,0.0,0.0,0.0,0.0,0.0,-3.8326,-3.897,-4.0385,-4.2173,-4.3935,-4.5501,-4.5599,-4.5021,-4.3708,-4.4847,-4.525,-4.4062,-4.5347,-4.6156,-4.5899,-4.5882,-4.5796,-4.5605,-4.555,-4.5513,-4.5513,-4.5457,-4.4939,-4.3836,-4.4272,-4.4474,-4.4419,-4.4419,-4.4252,-4.3924,-4.3924,-4.3772,-4.3497,-4.3497,-4.3497,-4.3497,-4.3497,-4.3497,-4.3497,-4.3497,-4.3497,-4.3497,-4.3497,-4.3497,-4.3497,-4.3497,-4.3497,-4.3497,-4.3497,-4.3497,-4.3497,-4.3497,-4.3497,-4.3479,-4.341,-4.3375,-4.3375,-4.3375,-4.3321,-4.3267,-4.3444,-4.3444,-4.341,-4.3479,-4.3497,-4.3497,-4.3497,-4.3497,-4.3497,-4.3497,-4.3497,-4.3497,-4.3497,-4.3497,-4.3497,-4.3497,-4.3497,-4.3497,-4.3497,-4.3497,-4.3167,-4.2378,-4.2194,-4.2121,-4.2121,-4.0836,-4.0799,-4.2415,-4.313,-4.3497,-4.3497,-4.3497,-4.3497,-4.3497,-4.269,-4.2249,-4.2103,-4.1295,-4.0928,-3.1294,-3.1375,-3.1559,-3.1911,-3.2051,-3.2089,-3.199,-3.2976,0.0,0.0,0.0,0.0,-3.7447,-3.8463,-3.9906,-4.2532,-4.3692,-4.4537,-4.5305,-4.5009,-4.4573,-4.4203,-4.455,-4.4841,-4.4944,-4.5703,-4.6114,-4.5918,-4.5877,-4.5776,-4.5605,-4.5586,-4.5586,-4.5586,-4.5586,-4.5109,-4.4097,-4.4782,-4.4737,-4.39,-4.39,-4.3941,-4.4016,-4.4016,-4.3836,-4.3497,0.0,-4.3497,-4.3497,-4.3497,-4.3497,-4.3497,-4.3497,-4.3497,-4.3497,-4.3497,-4.3497,-4.3497,-4.3497,-4.3497,-4.3497,-4.3497,-4.3497,-4.3497,-4.3497,-4.3497,-4.3497,-4.3497,-4.3497,-4.3497,-4.3497,-4.3497,-4.3497,-4.3497,-4.3497,-4.3497,-4.3497,-4.3497,-4.3497,-4.3497,-4.3497,-4.3497,-4.3497,-4.3497,-4.3497,-4.3497,-4.3497,-4.3497,-4.3497,-4.3497,-4.3497,-4.3497,-4.3497,-4.3167,-4.2378,-4.2304,-4.2304,-4.2304,-4.2011,-4.2176,-4.291,-4.3296,-4.3497,-4.3497,-4.3497,-4.3497,-4.3497,-4.313,-4.2708,-4.2286,-4.2123,-4.2014,-3.1376,-3.1449,-3.1417,-3.0757,0.0,-3.168,-3.0781,-3.1894,-3.3164,0.0,0.0,-3.5291,-3.7189,-3.9054,-4.1204,-4.4066,-4.4755,-4.5001,-4.5175,-4.4655,-4.4476,-4.5036,-4.4608,-4.4667,-4.5715,-4.5791,-4.5722,-4.5587,-4.551,-4.5526,-4.5586,-4.5413,-4.5297,-4.5297,-4.5297,-4.4778,-4.372,-4.4495,-4.44,-4.3434,-4.3623,-4.3807,-4.4016,-4.4016,-4.3836,-4.3497,-4.3497,-4.3497,-4.3497,-4.3497,-4.3497,-4.3497,-4.3497,-4.3497,-4.3497,-4.3497,-4.3497,-4.3497,-4.3497,-4.3497,-4.3497,-4.3497,-4.3497,-4.3497,-4.3497,-4.3497,-4.3497,-4.3497,-4.3548,-4.3631,-4.3631,-4.3631,-4.3646,-4.3744,-4.3679,-4.3631,-4.3631,-4.3548,-4.3497,-4.3497,-4.3497,-4.3497,-4.3497,-4.3497,-4.3497,-4.3497,-4.3497,-4.3497,-4.3497,-4.3497,-4.3497,-4.3497,-4.3497,-4.324,-4.2635,-4.258,-4.258,-4.258,-4.2983,-4.3222,-4.3222,-4.3387,-4.3497,-4.3497,-4.3497,-4.3497,-4.3497,-4.3497,-4.3167,-4.258,-4.2847,-4.3025,-2.9867,-2.9687,-2.968,-2.9695,-3.0351,-3.0762,-2.9883,-3.1035,0.0,-3.3242,-3.4082,-3.5449,-3.7868,-4.0306,-4.2305,-4.3495,-4.427,-4.4976,-4.5716,-4.5896,-4.5948,-4.5995,-4.5955,-4.5692,-4.5053,-4.487,-4.4752,-4.4608,-4.4617,-4.4891,-4.5547,-4.4836,-4.4393,-4.4393,-4.4393,-4.3624,-4.2008,-4.2527,-4.3134,-4.3776,-4.4576,-4.4632,-4.4016,-4.4016,-4.3836,-4.3497,-4.3497,-4.3497,-4.3497,-4.3497,-4.3497,-4.3497,-4.3497,-4.3497,-4.3497,-4.3497,-4.3497,-4.3497,-4.3497,-4.3497,-4.3497,-4.3497,-4.3497,-4.3497,-4.3497,-4.3497,-4.3497,-4.3497,-4.3726,-4.3955,-4.3955,-4.3955,-4.4076,-4.4419,-4.4252,-4.3955,-4.3955,-4.3726,-4.3497,-4.3497,-4.3497,-4.3497,-4.3497,-4.3497,-4.3497,-4.3497,-4.3497,-4.3497,-4.3497,-4.3497,-4.3497,-4.3497,-4.3497,-4.3461,-4.3406,-4.3406,-4.3406,-4.3406,-4.2763,-4.2396,-4.2396,-4.3094,-4.3497,-4.3497,-4.3497,-4.3497,-4.3497,-4.3497,-4.3461,-4.3406,-4.3422,-4.3619,-2.9586,-2.9133,-2.8762,-2.8795,-2.9009,0.0,0.0,-3.0086,-3.0889,-3.2244,-3.3225,-3.478,-3.7831,-4.0496,-4.25,-4.3339,-4.4192,-4.504,-4.5785,-4.5937,-4.5974,-4.5974,-4.5975,-4.5661,-4.4839,-4.4641,-4.4327,-4.375,-4.4122,-4.4506,-4.4778,-4.447,-4.4297,-4.4297,-4.4116,-4.3426,-4.2259,-4.3289,-4.3617,-4.3198,-4.3221,-4.351,-4.4016,-4.4016,-4.3836,-4.3497,-4.3497,-4.3497,-4.3497,-4.3497,-4.3497,-4.3497,-4.3497,-4.3497,-4.3497,-4.3497,-4.3497,-4.3497,-4.3497,-4.3497,-4.3497,-4.3497,-4.3497,-4.3548,-4.3758,-4.3804,-4.3849,-4.4106,-4.428,-4.4337,-4.4058,-4.4175,-4.4419,-4.4553,-4.4474,-4.429,-4.4058,-4.3912,-4.3758,-4.3548,-4.3497,-4.3497,-4.3497,-4.3497,-4.3497,-4.3497,-4.3497,-4.3497,-4.3497,-4.3497,-4.3497,-4.3497,-4.3497,-4.3497,-4.3497,-4.3497,-4.3497,-4.3497,-4.3204,-4.3039,-4.3039,-4.3332,-4.3497,-4.3497,-4.3497,-4.3497,-4.3497,-4.3497,-4.3497,-4.3532,-4.3726,-4.3881,-2.8783,-2.8279,-2.7834,-2.7843,0.0,0.0,-2.892,-2.93,-2.9939,-3.1611,-3.3093,-3.497,-3.7834,-4.0492,-4.2405,-4.2915,-4.3984,-4.4855,-4.5084,-4.5118,-4.5118,-4.5118,-4.506,-4.4737,-4.3936,-4.3984,-4.3698,-4.2813,-4.3487,-4.3859,-4.3787,-4.35,-4.331,-4.3235,-4.2997,-4.2471,-4.1575,-4.2718,-4.2837,-4.2002,-4.1604,-4.2248,-4.3849,-4.3849,-4.3726,-4.3497,-4.3497,-4.3351,-4.313,-4.3387,-4.3497,-4.3497,-4.3497,-4.3497,-4.3497,-4.3497,-4.3497,-4.3497,-4.3497,-4.3497,-4.3497,-4.3497,-4.3563,-4.3693,-4.3924,-4.4087,-4.4252,-4.4527,-4.4676,-4.4682,-4.4428,-4.4535,-4.4781,-4.4896,-4.483,-4.4657,-4.4261,-4.4087,-4.3912,-4.3582,-4.3497,-4.3497,-4.3497,-4.3497,-4.3497,-4.3497,-4.3375,-4.325,-4.325,-4.325,-4.325,-4.325,-4.325,-4.325,-4.325,-4.325,-4.3339,-4.3497,-4.3497,-4.3497,-4.3497,-4.3497,-4.3497,-4.3497,-4.3497,-4.3497,-4.3497,-4.3497,-4.3497,-4.3532,-4.3726,-4.3912,-2.7214,-2.6891,-2.681,-2.6871,0.0,0.0,-2.7894,-2.8775,-2.9868,-3.1549,-3.3983,-3.6287,-3.7945,-4.0343,-4.206,-4.2066,-4.3537,-4.4369,-4.3525,-4.341,-4.341,-4.341,-4.3291,-4.2868,-4.2075,-4.264,-4.272,-4.1838,-4.2604,-4.2925,-4.2601,-4.178,-4.118,-4.091,-4.091,-4.049,-3.9618,-4.0124,-4.0365,-4.03,-4.0031,-4.1148,-4.3461,-4.3461,-4.3461,-4.3461,-4.3479,-4.302,-4.2359,-4.3149,-4.3479,-4.3497,-4.3497,-4.3497,-4.3497,-4.3497,-4.3497,-4.3497,-4.3497,-4.3497,-4.3497,-4.3497,-4.3726,-4.4016,-4.4016,-4.4261,-4.458,-4.458,-4.4849,-4.5096,-4.5096,-4.5096,-4.518,-4.5513,-4.5342,-4.5007,-4.4657,-4.4261,-4.3912,-4.3582,-4.3497,-4.3497,-4.3497,-4.3497,-4.3497,-4.3497,-4.305,-4.2711,-4.2711,-4.2693,-4.2711,-4.2711,-4.2693,-4.2711,-4.2711,-4.2711,-4.2939,-4.3444,-4.3497,-4.3497,-4.3497,-4.3497,-4.3497,-4.3497,-4.3497,-4.3497,-4.3497,-4.3497,-4.3497,-4.3497,-4.3497,-4.3679,-2.6989,-2.6423,-2.6046,-2.6678,-2.6776,-2.6959,0.0,-2.8664,0.0,-3.1287,-3.31,-3.4589,-3.5235,-3.7539,-3.9548,-4.0108,-4.1157,-4.2178,-4.3066,-4.3181,-4.3181,-4.3181,-4.3143,-4.2689,-4.1608,-4.1705,-4.1399,-4.034,-4.1062,-4.1516,-4.1408,-4.1158,-4.0984,-4.091,-4.0621,-4.036,-4.009,-4.0619,-4.0898,-4.0848,-4.079,-4.113,-4.1809,-4.1809,-4.1809,-4.1846,-4.2415,-4.2194,-4.1534,-4.2323,-4.2983,-4.3497,-4.3497,-4.3497,-4.3497,-4.3497,-4.3497,-4.3497,-4.3497,-4.3497,-4.3497,-4.3497,-4.3726,-4.4016,-4.4016,-4.4261,-4.458,-4.458,-4.4657,-4.4751,-4.4751,-4.4751,-4.4849,-4.518,-4.518,-4.4943,-4.4318,-4.4087,-4.3912,-4.3582,-4.3497,-4.3497,-4.3497,-4.3497,-4.3497,-4.3497,-4.3356,-4.325,-4.325,-4.2939,-4.2711,-4.2711,-4.2302,-4.208,-4.208,-4.244,-4.2788,-4.2939,-4.3286,-4.3497,-4.3497,-4.3497,-4.3497,-4.3497,-4.3497,-4.3497,-4.3497,-4.3497,-4.3497,-4.3497,-4.3497,-4.3529,-2.6468,-2.5912,-2.5638,-2.6535,-2.6886,-2.7304,-2.8414,-2.9123,-2.9882,-3.1172,-3.2102,-3.3018,-3.4146,-3.5974,-3.7577,-3.8398,-3.9257,-4.0041,-4.0653,-4.0749,-4.0864,-4.1189,-4.1227,-4.1074,-4.0644,-4.0948,-4.0713,-3.9679,-4.0415,-4.0688,-4.0209,-4.0165,-4.0152,-4.0016,-3.977,-3.9645,-3.9645,-4.0007,-4.0157,-4.0157,-4.0157,-4.0157,-4.0175,-4.0818,-4.1111,-4.113,-4.1277,-4.1442,-4.1589,-4.1772,-4.2488,-4.3497,-4.3497,-4.3497,-4.3497,-4.3497,-4.3497,-4.3497,-4.3497,-4.3497,-4.3497,-4.3497,-4.3726,-4.4016,-4.4016,-4.4261,-4.458,-4.458,-4.458,-4.458,-4.458,-4.458,-4.4631,-4.4849,-4.4896,-4.4732,-4.4117,-4.4136,-4.4136,-4.3791,-4.3851,-4.3957,-4.3957,-4.3957,-4.3957,-4.3957,-4.3631,-4.3318,-4.3214,-4.2902,-4.2616,-4.2382,-4.2038,-4.1707,-4.1446,-4.1768,-4.2203,-4.2655,-4.3014,-4.3286,-4.3479,-4.3497,-4.3497,-4.3497,-4.3497,-4.3497,-4.3497,-4.3497,-4.3497,-4.3497,-4.3497,-4.3497,-2.5916,-2.5553,-2.558,-2.6444,-2.7115,-2.7951,-2.9389,-2.9829,-3.0164,-3.0959,-3.1042,-3.1657,-3.3921,-3.5056,-3.5946,-3.6833,-3.7627,-3.7929,-3.7286,-3.7192,-3.7475,-3.8188,-3.8282,-3.8561,-3.9274,-4.0047,-4.0217,-3.9472,-4.0155,-4.0121,-3.9109,-3.897,-3.885,-3.8597,-3.8597,-3.8597,-3.8597,-3.867,-3.8707,-3.8707,-3.8707,-3.8707,-3.8762,-4.0212,-4.0928,-4.0965,-4.0139,-4.0708,-4.2139,-4.1332,-4.1937,-4.3387,-4.3387,-4.3424,-4.3497,-4.3497,-4.3497,-4.3497,-4.3497,-4.3497,-4.3497,-4.3497,-4.3726,-4.3998,-4.3955,-4.4233,-4.4527,-4.4501,-4.4455,-4.4428,-4.4428,-4.4428,-4.4428,-4.4428,-4.4501,-4.4447,-4.4046,-4.428,-4.4447,-4.4102,-4.4397,-4.4692,-4.473,-4.4711,-4.4702,-4.4712,-4.3886,-4.3137,-4.2865,-4.2732,-4.248,-4.1853,-4.175,-4.149,-4.0874,-4.0903,-4.1446,-4.2559,-4.2711,-4.2976,-4.3479,-4.3497,-4.3497,-4.3497,-4.3497,-4.3497,-4.3497,-4.3497,-4.3497,-4.3497,-4.3497,-4.3497,-2.6594,-2.6309,-2.611,-2.6257,-2.7272,-2.8464,-2.9468,-2.9626,-2.957,-2.9776,-3.028,-3.084,-3.1385,-3.2315,-3.3507,-3.5,-3.5397,-3.5907,-3.7041,-3.7192,-3.7268,-3.7438,-3.7475,-3.7423,-3.733,-3.7474,-3.7709,-3.7933,-3.8136,-3.8393,-3.8755,-3.8195,-3.7805,-3.7753,-3.7753,-3.7753,-3.7753,-3.8377,-3.8707,-3.8707,-3.8707,-3.8707,-3.8707,-3.9056,-3.957,-4.0102,-3.9313,-3.9882,-4.1313,-4.0487,-4.1111,-4.2561,-4.2561,-4.2928,-4.3497,-4.3497,-4.3497,-4.3497,-4.3497,-4.3497,-4.3497,-4.3497,-4.3726,-4.3955,-4.3712,-4.3868,-4.4076,-4.3823,-4.3422,-4.3105,-4.3105,-4.3105,-4.3105,-4.3105,-4.3634,-4.4046,-4.366,-4.3881,-4.414,-4.4169,-4.4439,-4.4726,-4.4838,-4.4863,-4.4819,-4.4716,-4.4186,-4.3806,-4.3749,-4.3123,-4.248,-4.1853,-4.1402,-4.0874,-4.0336,-4.1105,-4.1725,-4.1979,-4.2828,-4.3375,-4.3497,-4.3497,-4.3497,-4.3497,-4.3497,-4.3497,-4.3497,-4.3497,-4.3497,-4.3497,-4.3497,-4.3497,-2.6906,-2.6525,-2.6333,-2.6733,-2.7718,-2.8683,-2.9005,-2.8983,-2.8906,-2.8906,-2.9411,-2.9906,-3.0079,-3.0586,-3.1302,-3.2422,-3.276,-3.3123,-3.3795,-3.4062,-3.4476,-3.5256,-3.5349,-3.5632,-3.6424,-3.6517,-3.6546,-3.6608,-3.6596,-3.6685,-3.6874,-3.669,-3.6596,-3.6596,-3.7168,-3.7507,-3.7507,-3.8303,-3.8707,-3.8707,-3.8707,-3.8505,-3.8138,-3.8524,-3.8927,-3.9294,-3.8891,-3.9712,-4.1286,-4.0712,-4.1517,-4.3098,-4.2956,-4.313,-4.3497,-4.3497,-4.3497,-4.3497,-4.3497,-4.3497,-4.3497,-4.3497,-4.3631,-4.3726,-4.3529,-4.3612,-4.3675,-4.3232,-4.2902,-4.2616,-4.2342,-4.2262,-4.2262,-4.2262,-4.3032,-4.3758,-4.3758,-4.4016,-4.4374,-4.4682,-4.5005,-4.5323,-4.5451,-4.577,-4.5754,-4.5004,-4.487,-4.4635,-4.4084,-4.323,-4.248,-4.1853,-4.1534,-4.1087,-4.0546,-4.1286,-4.1937,-4.2203,-4.279,-4.3214,-4.3497,-4.3497,-4.3497,-4.3497,-4.3497,-4.3497,-4.3497,-4.3497,-4.3497,-4.3497,-4.3497,-4.3497,-2.7442,-2.686,-2.6677,-2.7458,-2.8158,-2.8597,-2.8358,-2.8316,-2.8316,-2.8316,-2.8583,-2.8889,-2.9088,-2.9125,-2.9286,-2.9834,-3.0198,-3.0391,-3.0302,-3.0592,-3.1297,-3.2624,-3.2895,-3.3647,-3.5276,-3.5579,-3.5539,-3.5299,-3.5267,-3.5172,-3.4888,-3.5157,-3.5267,-3.5267,-3.643,-3.6967,-3.6839,-3.7789,-3.8159,-3.8045,-3.8045,-3.7698,-3.7077,-3.788,-3.8345,-3.8505,-3.8634,-3.9619,-4.1099,-4.0959,-4.1912,-4.3472,-4.3339,-4.3369,-4.3497,-4.3497,-4.3497,-4.3497,-4.3497,-4.3497,-4.3497,-4.3497,-4.3497,-4.3497,-4.3497,-4.3497,-4.3375,-4.2864,-4.2616,-4.24,-4.181,-4.1621,-4.1621,-4.1621,-4.2426,-4.332,-4.3684,-4.4138,-4.458,-4.5105,-4.5576,-4.5988,-4.6229,-4.6784,-4.6822,-4.58,-4.5721,-4.5442,-4.4445,-4.3442,-4.2598,-4.2021,-4.1937,-4.1707,-4.1133,-4.1621,-4.2162,-4.2655,-4.2788,-4.3014,-4.3479,-4.3497,-4.3497,-4.3497,-4.3497,-4.3497,-4.3497,-4.3497,-4.3497,-4.3497,-4.3497,-4.3497,-2.9118,-2.829,-2.7778,-2.8182,-2.8147,-2.802,-2.7964,-2.7982,-2.7982,-2.7982,-2.801,-2.786,-2.7263,-2.7157,-2.7423,-2.8159,-2.8358,-2.8838,-3.0112,-3.0338,-3.0457,-3.0683,-3.1258,-3.1756,-3.2032,-3.2624,-3.3268,-3.391,-3.3946,-3.423,-3.4871,-3.4319,-3.3946,-3.3946,-3.4727,-3.485,-3.4225,-3.5616,-3.6043,-3.54,-3.54,-3.5346,-3.5257,-3.6025,-3.685,-3.7679,-3.8395,-3.8848,-3.9148,-3.9803,-4.0611,-4.1544,-4.2228,-4.2892,-4.3497,-4.3497,-4.3497,-4.3497,-4.3497,-4.3497,-4.3497,-4.3497,-4.3497,-4.3497,-4.3497,-4.3497,-4.3375,-4.2864,-4.2342,-4.1768,-4.1178,-4.1041,-4.1041,-4.1041,-4.1534,-4.2185,-4.2734,-4.3373,-4.4018,-4.4654,-4.5403,-4.6153,-4.692,-4.7052,-4.7216,-4.7799,-4.6682,-4.573,-4.5582,-4.4308,-4.316,-4.2655,-4.2577,-4.2342,-4.1707,-4.2244,-4.2616,-4.2693,-4.3142,-4.341,-4.3497,-4.3497,-4.3497,-4.3497,-4.3497,-4.3497,-4.3497,-4.3497,-4.3497,-4.3497,-4.3497,-4.3497,-2.9156,-2.8514,-2.802,-2.8278,-2.8113,-2.784,-2.7636,-2.756,-2.756,-2.756,-2.7048,-2.6576,-2.6481,-2.6118,-2.5897,-2.5999,-2.6563,-2.7145,-2.7612,-2.8219,-2.8794,-2.9232,-2.9583,-3.0205,-3.1292,-3.1682,-3.2082,-3.2599,-3.2634,-3.2667,-3.283,-3.2719,-3.2634,-3.2634,-3.3653,-3.4039,-3.3684,-3.4818,-3.5208,-3.4888,-3.4428,-3.4446,-3.4836,-3.519,-3.5811,-3.669,-3.7518,-3.8383,-3.9234,-3.9382,-4.0203,-4.144,-4.2055,-4.2525,-4.2839,-4.3014,-4.305,-4.3014,-4.2657,-4.2562,-4.26,-4.2921,-4.305,-4.3105,-4.341,-4.3497,-4.3375,-4.2864,-4.2262,-4.1664,-4.1041,-4.0703,-4.0449,-4.0449,-4.0331,-4.0343,-4.092,-4.2024,-4.3176,-4.4083,-4.484,-4.5438,-4.5742,-4.6538,-4.7055,-4.691,-4.6493,-4.6034,-4.5536,-4.407,-4.2976,-4.275,-4.2711,-4.2616,-4.2342,-4.2846,-4.3142,-4.3142,-4.3375,-4.3497,-4.3497,-4.3497,-4.3497,-4.3497,-4.3497,-4.3497,-4.3497,-4.3497,-4.3497,-4.3497,-4.3497,-4.3497,-2.9475,-2.9055,-2.8635,-2.8458,-2.8128,-2.7712,-2.7378,-2.721,-2.7147,-2.7147,-2.6326,-2.5688,-2.5983,-2.5436,-2.478,-2.4299,-2.509,-2.5661,-2.5353,-2.6219,-2.7078,-2.7678,-2.8075,-2.888,-3.0354,-3.0685,-3.0869,-3.1076,-3.1091,-3.1048,-3.0942,-3.1196,-3.147,-3.166,-3.2735,-3.3248,-3.3073,-3.3652,-3.3969,-3.3969,-3.3371,-3.3458,-3.4158,-3.4167,-3.4634,-3.544,-3.6667,-3.79,-3.8988,-3.894,-3.9652,-4.0848,-4.1588,-4.1886,-4.1941,-4.2348,-4.248,-4.24,-4.1937,-4.181,-4.1895,-4.2342,-4.2577,-4.277,-4.3178,-4.341,-4.3375,-4.2864,-4.2262,-4.1664,-4.1041,-4.0497,-4.007,-3.9833,-3.9315,-3.902,-3.9548,-4.0911,-4.2305,-4.3165,-4.3895,-4.4515,-4.499,-4.612,-4.6904,-4.6769,-4.6604,-4.6265,-4.5599,-4.3993,-4.2902,-4.2902,-4.2902,-4.2902,-4.2902,-4.325,-4.3497,-4.3497,-4.3497,-4.3497,-4.3497,-4.3497,-4.3497,-4.3497,-4.3497,-4.3497,-4.3497,-4.3497,-4.3497,-4.3497,-4.3497,-4.3497,-3.0948,-3.0682,-3.0273,-2.9068,-2.8192,-2.7553,-2.7344,-2.6987,-2.6725,-2.6725,-2.6116,-2.5609,-2.5641,-2.5014,-2.4286,-2.3562,-2.4083,-2.4574,-2.4574,-2.5217,-2.5709,-2.5742,-2.6996,-2.7876,-2.7996,-2.8674,-2.9115,-2.9149,-2.9166,-2.9434,-3.0125,-3.0197,-3.0518,-3.1213,-3.1964,-3.2055,-3.132,-3.1353,-3.137,-3.137,-3.1336,-3.171,-3.2422,-3.2507,-3.2937,-3.3769,-3.6162,-3.7246,-3.7392,-3.8117,-3.8493,-3.8709,-4.0202,-4.0788,-4.0854,-4.1594,-4.1853,-4.1853,-4.181,-4.181,-4.181,-4.1853,-4.2244,-4.2711,-4.2732,-4.3105,-4.3375,-4.2864,-4.2262,-4.1664,-4.1041,-4.0497,-3.9901,-3.9139,-3.8908,-3.8937,-3.9211,-4.0273,-4.1385,-4.172,-4.241,-4.3572,-4.5767,-4.6203,-4.6943,-4.9012,-4.7721,-4.647,-4.6432,-4.4705,-4.3444,-4.3444,-4.3444,-4.3444,-4.3444,-4.3479,-4.3497,-4.3497,-4.3497,-4.3497,-4.3497,-4.3497,-4.3497,-4.3497,-4.3497,-4.3497,-4.3497,-4.3497,-4.3497,-4.3497,-4.3497,-4.3497,-3.0637,-3.0253,-2.9922,-2.9326,-2.8865,-2.8418,-2.7783,-2.7445,-2.7178,-2.6791,-2.6116,-2.5494,-2.5146,-2.4464,-2.3883,-2.3634,-2.3621,-2.3851,-2.458,-2.4597,-2.4946,-2.6151,-2.6353,-2.6742,-2.7705,-2.8078,-2.8433,-2.8941,-2.9011,-2.9146,-2.9364,-2.9381,-2.9719,-3.048,-3.0751,-3.0987,-3.119,-3.119,-3.119,-3.119,-3.119,-3.1579,-3.2307,-3.2376,-3.2817,-3.3554,-3.4462,-3.5341,-3.6086,-3.6362,-3.6917,-3.7795,-3.9337,-3.9939,-4.004,-4.0885,-4.0909,-4.0533,-4.0642,-4.0427,-4.0146,-4.0948,-4.1621,-4.2203,-4.2559,-4.305,-4.3375,-4.2864,-4.2262,-4.1664,-4.1041,-4.0497,-3.9782,-3.8486,-3.7751,-3.7042,-3.6091,-3.7319,-3.8822,-3.9361,-4.0938,-4.2534,-4.3779,-4.4851,-4.5848,-4.663,-4.5729,-4.4975,-4.4975,-4.3808,-4.2976,-4.2976,-4.3286,-4.3497,-4.3497,-4.3497,-4.3497,-4.3497,-4.3497,-4.3497,-4.3497,-4.3497,-4.3497,-4.3497,-4.3497,-4.3497,-4.3497,-4.3497,-4.3497,-4.3497,-4.3497,-4.3497,-3.062,-3.0402,-3.0234,-2.9648,-2.9373,-2.8995,-2.798,-2.7683,-2.7426,-2.6664,-2.6083,-2.5614,-2.5271,-2.4528,-2.3829,-2.3515,-2.3436,-2.3606,-2.4116,-2.4074,-2.4425,-2.5693,-2.5747,-2.6117,-2.709,-2.7331,-2.7655,-2.818,-2.8213,-2.8332,-2.8569,-2.8602,-2.8941,-2.9702,-2.9736,-3.0074,-3.0818,-3.0835,-3.0954,-3.119,-3.119,-3.1579,-3.229,-3.1918,-3.2248,-3.3112,-3.2716,-3.3395,-3.4792,-3.5057,-3.5596,-3.6492,-3.7979,-3.8587,-3.8701,-3.9589,-3.9559,-3.9169,-3.9304,-3.9191,-3.9154,-4.0014,-4.0986,-4.1895,-4.2262,-4.2808,-4.3178,-4.2788,-4.2121,-4.1402,-4.0995,-4.0317,-3.9385,-3.8092,-3.6854,-3.5607,-3.4321,-3.5326,-3.6651,-3.7105,-3.9364,-4.151,-4.2346,-4.3872,-4.4982,-4.5198,-4.4607,-4.4023,-4.3758,-4.3107,-4.2711,-4.2711,-4.3178,-4.3497,-4.3497,-4.3497,-4.3497,-4.3497,-4.3497,-4.3497,-4.3497,-4.3497,-4.3497,-4.3497,-4.3321,-4.3214,-4.3214,-4.341,-4.3497,-4.3497,-4.3497,-4.3497,0.0,0.0,0.0,-3.0076,-2.9689,-2.9291,-2.8006,-2.7766,-2.753,-2.6385,-2.6101,-2.5997,-2.6013,-2.5144,-2.4091,-2.319,-2.3633,-2.3824,-2.3151,-2.3617,-2.4069,-2.4116,-2.5175,-2.5944,-2.6013,-2.6401,-2.6657,-2.6691,-2.6657,-2.6978,-2.7722,-2.7772,-2.8163,-2.8924,-2.9011,-2.933,-3.0074,-3.0074,-3.0446,-3.1157,-3.1157,-3.1546,-3.2256,-3.0994,-3.115,-3.236,-3.1106,-3.169,-3.3601,-3.4268,-3.4576,-3.4754,-3.6202,-3.6772,-3.6874,-3.7635,-3.7889,-3.7872,-3.7905,-3.8345,-3.8969,-3.9003,-4.0268,-4.1817,-4.1817,-4.2244,-4.2711,-4.2655,-4.181,-4.0903,-4.0856,-3.9901,-3.8745,-3.8035,-3.6491,-3.5076,-3.4254,-3.4662,-3.519,-3.5205,-3.784,-4.0464,-4.1825,-4.334,-4.455,-4.517,-4.4562,-4.3784,-4.305,-4.2785,-4.2655,-4.2711,-4.3178,-4.3497,-4.3497,-4.3497,-4.3497,-4.3497,-4.3497,-4.3497,-4.3497,-4.3497,-4.3497,-4.3497,-4.2976,-4.2711,-4.2711,-4.3214,-4.3444,-4.3444,-4.3444,-4.3444,-3.0281,0.0,0.0,0.0,0.0,0.0,-3.0076,-2.9371,-2.8482,-2.7535,-2.6809,-2.6301,-2.6052,-2.5144,-2.4306,-2.4053,-2.3496,-2.3299,-2.392,-2.3319,-2.3331,-2.4745,-2.4751,-2.4989,-2.5911,-2.5762,-2.5799,-2.6139,-2.5835,-2.5881,-2.649,-2.7345,-2.7891,-2.8129,-2.8687,-2.9076,-2.9296,-2.9296,-2.9668,-3.0412,-3.0412,-3.0784,-3.1512,-3.1176,-3.104,-3.0991,-3.1083,-3.1535,-3.2243,-3.3374,-3.4186,-3.4754,-3.6202,-3.6772,-3.6874,-3.7635,-3.7567,-3.7161,-3.7719,-3.7916,-3.8006,-3.8556,-3.9972,-4.1507,-4.1507,-4.2073,-4.2616,-4.2162,-4.149,-4.0827,-4.0417,-4.0037,-3.9558,-3.8799,-3.7728,-3.6682,-3.5905,-3.5431,-3.5145,-3.5093,-3.7231,-3.9561,-4.107,-4.2593,-4.3704,-4.3886,-4.3271,-4.2668,-4.2392,-4.2176,-4.2221,-4.2655,-4.3178,-4.3497,-4.3497,-4.3497,-4.3497,-4.3497,-4.3497,-4.3497,-4.3497,-4.3497,-4.3497,-4.3497,-4.2976,-4.2711,-4.2711,-4.2404,-4.2266,-4.2266,-4.2266,-4.2483,-3.0028,-3.0075,-3.0366,-3.1146,0.0,0.0,-3.0138,-2.9406,-2.8381,-2.6965,-2.615,-2.5658,-2.5697,-2.4756,-2.4024,-2.4343,-2.3644,-2.3303,-2.3987,-2.3376,-2.3243,-2.4418,-2.4562,-2.4772,-2.5303,-2.5449,-2.5577,-2.5652,-2.5373,-2.5335,-2.5652,-2.6554,-2.7054,-2.7054,-2.7685,-2.818,-2.8501,-2.8501,-2.9042,-3.0108,-3.0108,-3.0497,-3.1207,-3.0966,-3.0866,-3.0771,-3.0907,-3.1193,-3.1608,-3.2657,-3.3713,-3.4721,-3.5849,-3.6299,-3.6349,-3.6789,-3.6791,-3.6676,-3.7137,-3.7508,-3.7888,-3.8342,-3.9802,-4.1412,-4.1412,-4.2026,-4.2616,-4.2244,-4.1578,-4.078,-4.0254,-4.007,-3.9935,-3.9406,-3.8652,-3.7923,-3.746,-3.6761,-3.6041,-3.523,-3.7109,-3.9092,-3.9998,-4.1639,-4.2802,-4.2537,-4.2311,-4.2088,-4.167,-4.1938,-4.2346,-4.2868,-4.3369,-4.3791,-4.3962,-4.3962,-4.3899,-4.3726,-4.3693,-4.3646,-4.3532,-4.3497,-4.341,-4.3178,-4.2598,-4.208,-4.1613,-4.1725,-4.181,-4.181,-4.181,-4.1979,-3.0103,-3.0209,-3.0547,-3.1193,-3.0904,0.0,-2.9343,-2.8808,-2.7923,-2.5873,-2.5114,-2.4912,-2.528,-2.4259,-2.3616,-2.4382,-2.3952,-2.3548,-2.3595,-2.3595,-2.3595,-2.3595,-2.443,-2.4871,-2.443,-2.5221,-2.5577,-2.5144,-2.5105,-2.5105,-2.5105,-2.5615,-2.5924,-2.6013,-2.6401,-2.6978,-2.7654,-2.7689,-2.8433,-2.9854,-2.9854,-3.0243,-3.0954,-3.0409,-3.045,-3.0931,-3.0545,-3.0733,-3.1389,-3.2187,-3.3192,-3.4409,-3.5194,-3.5504,-3.5504,-3.5633,-3.5985,-3.6416,-3.6457,-3.7241,-3.8256,-3.8256,-3.9689,-4.1378,-4.1378,-4.1991,-4.2711,-4.2616,-4.1853,-4.0874,-4.0417,-4.0303,-4.0252,-4.005,-3.9597,-3.9199,-3.9016,-3.851,-3.762,-3.6107,-3.7492,-3.8905,-3.9023,-4.079,-4.198,-4.1409,-4.1761,-4.1886,-4.1192,-4.2044,-4.2886,-4.3256,-4.3757,-4.4204,-4.4553,-4.458,-4.4447,-4.4046,-4.4016,-4.3849,-4.3513,-4.3497,-4.325,-4.2711,-4.2021,-4.115,-4.007,-4.1122,-4.1639,-4.1639,-4.1639,-4.1621,-3.0343,-3.0355,-3.0609,-3.1431,-3.1008,0.0,-3.1086,-3.0408,-2.9303,-2.8019,-2.7138,-2.6418,-2.5799,-2.4571,-2.3951,-2.4944,-2.4121,-2.3437,-2.3563,-2.3595,-2.3595,-2.3595,-2.3794,-2.4032,-2.4389,-2.4199,-2.4184,-2.4552,-2.4552,-2.4552,-2.4552,-2.5067,-2.5561,-2.5977,-2.6085,-2.6399,-2.6911,-2.6911,-2.7368,-2.8264,-2.8264,-2.867,-2.9414,-2.9323,-2.907,-2.8803,-2.9802,-3.0523,-3.1098,-3.237,-3.2873,-3.2945,-3.4236,-3.4709,-3.482,-3.5874,-3.6291,-3.6457,-3.6865,-3.7449,-3.7989,-3.7989,-3.9422,-4.1181,-4.1181,-4.1869,-4.2616,-4.2121,-4.181,-4.1578,-4.1508,-4.1464,-4.1446,-4.1411,-4.1305,-4.1216,-4.1163,-4.0585,-3.9958,-3.9611,-3.9161,-3.9039,-3.9731,-4.0621,-4.141,-4.1847,-4.2037,-4.2166,-4.2328,-4.2776,-4.3275,-4.3806,-4.4214,-4.4527,-4.458,-4.458,-4.4447,-4.4046,-4.4016,-4.3849,-4.3513,-4.3497,-4.325,-4.2711,-4.1621,-4.075,-4.007,-4.0336,-4.0417,-4.0417,-4.0417,-4.0672,-3.0448,-3.0417,-3.0609,-3.1487,-3.1044,0.0,0.0,-3.0292,-2.9263,-2.8218,-2.7523,-2.7051,-2.6934,-2.5995,-2.5402,-2.5873,-2.5429,-2.4867,-2.4264,-2.3836,-2.3595,-2.3595,-2.3837,-2.3991,-2.3991,-2.3991,-2.3991,-2.3991,-2.4326,-2.4356,-2.4006,-2.4511,-2.5067,-2.5577,-2.5852,-2.6227,-2.6691,-2.6691,-2.708,-2.7789,-2.7789,-2.823,-2.9011,-2.9011,-2.8811,-2.8603,-2.9479,-2.9976,-3.0307,-3.1625,-3.2032,-3.2047,-3.3886,-3.4609,-3.4661,-3.5318,-3.5726,-3.6004,-3.6257,-3.6958,-3.7699,-3.7699,-3.8972,-4.0579,-4.0983,-4.2043,-4.2976,-4.2422,-4.2262,-4.2162,-4.1895,-4.181,-4.1895,-4.2162,-4.2021,-4.1895,-4.2162,-4.1722,-4.12,-4.12,-4.071,-4.0307,-4.0324,-4.0933,-4.1518,-4.1869,-4.2212,-4.2459,-4.267,-4.3245,-4.3769,-4.4261,-4.4631,-4.4919,-4.5077,-4.5096,-4.4877,-4.4318,-4.429,-4.4046,-4.3513,-4.325,-4.2696,-4.181,-4.0938,-4.0368,-4.007,-4.007,-4.007,-4.007,-4.007,-4.0254,-3.0498,-3.0352,-3.039,-3.1237,-3.0794,-3.0198,0.0,0.0,0.0,-2.8115,-2.7687,-2.7585,-2.7885,-2.7357,-2.6859,-2.6869,-2.6819,-2.6437,-2.5479,-2.4664,-2.4138,-2.3975,-2.4193,-2.4245,-2.3818,-2.4189,-2.4319,-2.4013,-2.4507,-2.4582,-2.4014,-2.4265,-2.4673,-2.5234,-2.553,-2.598,-2.6556,-2.6404,-2.6674,-2.7367,-2.7367,-2.7723,-2.8332,-2.8467,-2.8535,-2.8588,-2.9008,-2.9281,-2.9532,-3.0642,-3.1271,-3.1751,-3.3721,-3.45,-3.4518,-3.4765,-3.513,-3.5497,-3.5612,-3.6455,-3.7507,-3.7507,-3.8579,-4.0065,-4.1038,-4.2249,-4.3208,-4.294,-4.2864,-4.2732,-4.2266,-4.2144,-4.2226,-4.2732,-4.2501,-4.2266,-4.277,-4.2462,-4.2144,-4.2144,-4.2144,-4.1866,-4.0979,-4.1367,-4.1853,-4.1937,-4.2382,-4.275,-4.2826,-4.3586,-4.4233,-4.4572,-4.4966,-4.5302,-4.5568,-4.5586,-4.5303,-4.4631,-4.458,-4.4252,-4.3513,-4.2884,-4.2021,-4.0903,-4.0368,-4.007,-4.007,-4.007,-4.007,-4.007,-4.007,-4.007,-3.0516,-2.9929,-2.9525,-3.0352,-2.989,-2.9448,-3.0217,0.0,-3.0021,-2.9182,0.0,-2.863,-2.7871,0.0,0.0,-2.7761,-2.721,-2.683,-2.7219,-2.6735,-2.6065,-2.5279,-2.4735,-2.443,-2.4492,-2.4552,-2.4792,-2.533,-2.545,-2.5465,-2.539,-2.4867,-2.4832,-2.5377,-2.4879,-2.5051,-2.6085,-2.5372,-2.5313,-2.5862,-2.5862,-2.5913,-2.6015,-2.6657,-2.6962,-2.6996,-2.769,-2.8437,-2.9195,-3.0004,-3.1171,-3.2529,-3.3369,-3.3705,-3.3863,-3.4981,-3.5465,-3.558,-3.6024,-3.6787,-3.7507,-3.7507,-3.8579,-4.0175,-4.1699,-4.2286,-4.258,-4.3226,-4.341,-4.341,-4.3321,-4.3321,-4.3321,-4.341,-4.3356,-4.3321,-4.341,-4.3356,-4.3321,-4.3321,-4.3321,-4.2977,-4.1842,-4.175,-4.1979,-4.2519,-4.2673,-4.2864,-4.3339,-4.4065,-4.4553,-4.4599,-4.5161,-4.5568,-4.5586,-4.5586,-4.5303,-4.4631,-4.458,-4.4252,-4.3513,-4.2483,-4.1578,-4.0903,-4.0368,-4.007,-4.007,-4.007,-4.007,-4.007,-4.007,-4.007,-2.9881,-2.9912,-2.989,-2.9698,-2.9756,-2.9948,-3.0321,-3.0398,-3.0302,-2.9963,0.0,0.0,0.0,0.0,0.0,0.0,-2.9836,-2.9363,-2.8836,-2.8447,-2.7638,-2.6112,-2.5891,-2.568,-2.5155,-2.5168,-2.4986,-2.4477,-2.5103,-2.5379,-2.503,-2.4334,-2.4386,-2.5373,-2.4761,-2.4705,-2.5283,-2.497,-2.4863,-2.4949,-2.4949,-2.4949,-2.4966,-2.527,-2.5406,-2.5488,-2.6444,-2.7222,-2.7865,-2.9272,-3.0396,-3.1316,-3.2545,-3.3316,-3.378,-3.432,-3.4524,-3.4553,-3.4779,-3.5697,-3.6945,-3.7881,-3.8964,-4.0029,-4.0689,-4.1552,-4.2378,-4.2708,-4.313,-4.3497,-4.3497,-4.3497,-4.3497,-4.3497,-4.3497,-4.3497,-4.3497,-4.3497,-4.3497,-4.3497,-4.3497,-4.3356,-4.2847,-4.2772,-4.2865,-4.3124,-4.2902,-4.2902,-4.3444,-4.3666,-4.3904,-4.4233,-4.4713,-4.5011,-4.5011,-4.5011,-4.4806,-4.429,-4.4065,-4.3656,-4.305,-4.2226,-4.1534,-4.0903,-4.0368,-4.007,-4.007,-4.007,-4.007,-4.007,-4.007,-4.007,-2.945,-2.976,-3.0025,-2.9563,-2.9756,-3.0121,-3.034,-3.0217,-3.0121,-3.034,-3.0217,0.0,0.0,0.0,-3.1488,-3.1762,0.0,-3.137,-3.0595,-3.012,-2.9156,-2.7251,-2.6996,-2.6651,-2.5916,-2.5988,-2.5575,-2.4472,-2.5254,-2.5511,-2.487,-2.4196,-2.4268,-2.5137,-2.4701,-2.4451,-2.4418,-2.433,-2.4198,-2.4,-2.414,-2.4188,-2.4218,-2.4421,-2.4506,-2.454,-2.5463,-2.6096,-2.657,-2.8236,-2.9312,-3.0044,-3.1641,-3.2761,-3.3495,-3.3715,-3.3807,-3.3807,-3.3807,-3.4908,-3.6523,-3.7918,-3.8909,-3.9606,-3.9827,-4.0873,-4.2029,-4.2249,-4.2708,-4.3167,-4.3167,-4.3167,-4.3167,-4.3167,-4.3332,-4.3497,-4.3497,-4.3497,-4.3497,-4.3497,-4.3497,-4.3497,-4.3497,-4.3497,-4.3497,-4.3497,-4.305,-4.2826,-4.3214,-4.3103,-4.308,-4.349,-4.4024,-4.4353,-4.4353,-4.4489,-4.4447,-4.4046,-4.3679,-4.325,-4.2711,-4.2121,-4.1534,-4.0903,-4.0368,-4.007,-4.007,-4.007,-4.007,-4.007,-4.007,-4.007,-2.9557,-2.9279,-2.941,-3.0179,-2.9756,-2.9352,-3.0217,-2.9756,-2.9371,-3.0237,-2.9737,-2.941,-3.0294,-3.0436,-3.0744,-3.1648,-3.1747,0.0,0.0,-3.1916,-3.0714,-2.9027,-2.7805,-2.6985,-2.6693,-2.7042,-2.6983,-2.6359,-2.6456,-2.6243,-2.551,-2.4982,-2.4601,-2.4537,-2.4589,-2.4228,-2.346,-2.3196,-2.2955,-2.2762,-2.3214,-2.3427,-2.346,-2.4154,-2.4506,-2.4506,-2.4895,-2.523,-2.564,-2.6792,-2.7985,-2.9195,-3.0815,-3.1935,-3.2742,-3.3513,-3.3807,-3.3807,-3.3807,-3.4908,-3.6431,-3.7257,-3.8065,-3.8891,-3.9662,-4.0487,-4.1313,-4.2084,-4.2323,-4.2341,-4.2341,-4.2341,-4.2341,-4.2341,-4.2928,-4.3497,-4.3497,-4.3497,-4.3497,-4.3497,-4.3497,-4.3497,-4.3497,-4.3497,-4.3497,-4.3497,-4.305,-4.2711,-4.2732,-4.2497,-4.2334,-4.2334,-4.3188,-4.3718,-4.3718,-4.4261,-4.4447,-4.4046,-4.3679,-4.325,-4.2711,-4.2121,-4.1534,-4.0903,-4.0368,-4.007,-4.007,-4.007,-4.007,-4.007,-4.007,-4.007,-2.9207,-2.9215,-2.9248,-2.9486,-2.9756,-3.0044,-3.0321,-2.9737,-2.9352,-3.0217,-2.9717,-2.9544,-3.0987,-3.1256,-3.1532,-3.2385,-3.2093,-3.2038,0.0,-3.2231,-3.127,-2.9985,-2.86,-2.7826,-2.7944,-2.6864,-2.5929,-2.5255,-2.4684,-2.4247,-2.4068,-2.3564,-2.3512,-2.3961,-2.3954,-2.3507,-2.2693,-2.2886,-2.2663,-2.1974,-2.2429,-2.2682,-2.2682,-2.2936,-2.3147,-2.3337,-2.3981,-2.4594,-2.5153,-2.6039,-2.7108,-2.8319,-2.9402,-3.0301,-3.1237,-3.3109,-3.3807,-3.388,-3.4412,-3.5349,-3.6431,-3.7221,-3.8028,-3.8854,-3.9662,-4.0469,-4.1277,-4.2066,-4.2671,-4.2965,-4.2433,-4.2304,-4.2304,-4.2304,-4.2506,-4.2837,-4.3387,-4.3497,-4.3497,-4.3497,-4.3497,-4.3497,-4.3497,-4.3497,-4.3497,-4.3497,-4.2696,-4.2262,-4.2655,-4.1505,-4.0979,-4.1878,-4.1782,-4.1873,-4.2384,-4.3013,-4.3263,-4.3159,-4.3373,-4.325,-4.2711,-4.2121,-4.1534,-4.0903,-4.0368,-4.007,-4.007,-4.007,-4.007,-4.007,-4.007,-4.007,-2.8285,-2.8525,0.0,-2.8679,-2.9102,-2.9602,-2.9871,-2.9275,-2.9006,-3.016,-2.9717,-2.9544,-3.0968,-3.1237,-3.1506,-3.2333,-3.2077,-3.1956,0.0,-3.2446,-3.1869,-3.0533,-2.9346,-2.8582,-2.8395,-2.7578,-2.6407,-2.4852,-2.4263,-2.3683,-2.3126,-2.2798,-2.2817,-2.3283,-2.3715,-2.3348,-2.2095,-2.2703,-2.2449,-2.1399,-2.2003,-2.231,-2.231,-2.231,-2.2453,-2.2755,-2.338,-2.3961,-2.4545,-2.5407,-2.6421,-2.7475,-2.8576,-2.9494,-3.0467,-3.2596,-3.355,-3.3862,-3.4394,-3.533,-3.6376,-3.689,-3.7808,-3.8799,-3.9313,-4.023,-4.1222,-4.1735,-4.2249,-4.2525,-4.2011,-4.1662,-4.1515,-4.1809,-4.2084,-4.2525,-4.3314,-4.3497,-4.3497,-4.3497,-4.3497,-4.3444,-4.325,-4.3214,-4.3286,-4.3479,-4.2327,-4.1659,-4.2306,-4.07,-3.9976,-4.1087,-4.0874,-4.1021,-4.175,-4.2162,-4.2382,-4.2382,-4.2696,-4.2734,-4.2382,-4.181,-4.1453,-4.1336,-4.0521,-4.0206,-4.0476,-4.0206,-4.007,-4.007,-4.007,-4.007]}]]